[[{"header":{"parameterUnit":"m.s-1","parameterCategory":1,"la1":30.6,"la2":28.766,"lo1":-90.7593,"lo2":-88.6598,"dy":0.0162,"dx":0.0183,"nx":116,"ny":114,"refTime":"2023-08-17T12:00:00:Z","depth":0,"parameterNumber":2,"parameterNumberName":"U-component_of_WINDS"},"data":[0.0,0.0,0.0,0.0,0.0,0.0,0.0,0.0,0.0,0.0,0.0,0.0,0.0,0.0,0.0,0.0,0.0,0.0,0.0,0.0,0.0,0.0,0.0,0.0,0.0,0.0,0.0,0.0,0.0,0.0,0.0,0.0,0.0,0.0,0.0,0.0,0.0,0.0,0.0,0.0,0.0,0.0,0.0,0.0,0.0,0.0,0.0,0.0,0.0,0.0,0.0,0.0,0.0,0.0,0.0,0.0,0.0,0.0,0.0,0.0,0.0,0.0,0.0,0.0,0.0,0.0,0.0,0.0,0.0,0.0,0.0,0.0,0.0,0.0,0.0,0.0,0.0,0.0,0.0,0.0,0.0,0.0,0.0,0.0,0.0,0.0,0.0,0.0,0.0,0.0,0.0,0.0,0.0,0.0,0.0,0.0,0.0,0.0,0.0,0.0,0.0,0.0,0.0,0.0,0.0,0.0,0.0,0.0,0.0,0.0,0.0,0.0,0.0,0.0,0.0,0.0,0.0,0.0,0.0,0.0,0.0,0.0,0.0,0.0,0.0,0.0,0.0,0.0,0.0,0.0,0.0,0.0,0.0,0.0,0.0,0.0,0.0,0.0,0.0,0.0,0.0,0.0,0.0,0.0,0.0,0.0,0.0,0.0,0.0,0.0,0.0,0.0,0.0,0.0,0.0,0.0,0.0,0.0,0.0,0.0,0.0,0.0,0.0,0.0,0.0,0.0,0.0,0.0,0.0,0.0,0.0,0.0,0.0,0.0,0.0,0.0,0.0,0.0,0.0,0.0,0.0,0.0,0.0,0.0,0.0,0.0,0.0,0.0,0.0,0.0,0.0,0.0,0.0,0.0,0.0,0.0,0.0,0.0,0.0,0.0,0.0,0.0,0.0,0.0,0.0,0.0,0.0,0.0,0.0,0.0,0.0,0.0,0.0,0.0,0.0,0.0,0.0,0.0,0.0,0.0,0.0,0.0,0.0,0.0,0.0,0.0,0.0,0.0,0.0,0.0,0.0,0.0,0.0,0.0,0.0,0.0,0.0,0.0,0.0,0.0,0.0,0.0,0.0,0.0,0.0,0.0,0.0,0.0,0.0,0.0,0.0,0.0,0.0,0.0,0.0,0.0,0.0,0.0,0.0,0.0,0.0,0.0,0.0,0.0,0.0,0.0,0.0,0.0,0.0,0.0,0.0,0.0,0.0,0.0,0.0,0.0,0.0,0.0,0.0,0.0,0.0,0.0,0.0,0.0,0.0,0.0,0.0,0.0,0.0,0.0,0.0,0.0,0.0,0.0,0.0,0.0,0.0,0.0,0.0,0.0,0.0,0.0,0.0,0.0,0.0,0.0,0.0,0.0,0.0,0.0,0.0,0.0,0.0,0.0,0.0,0.0,0.0,0.0,0.0,0.0,0.0,0.0,0.0,0.0,0.0,0.0,0.0,0.0,0.0,0.0,0.0,0.0,0.0,0.0,0.0,0.0,0.0,0.0,0.0,0.0,0.0,0.0,0.0,0.0,0.0,0.0,0.0,0.0,0.0,0.0,0.0,0.0,0.0,0.0,0.0,0.0,0.0,0.0,0.0,0.0,0.0,0.0,0.0,0.0,0.0,0.0,0.0,0.0,0.0,0.0,0.0,0.0,0.0,0.0,0.0,0.0,0.0,0.0,0.0,0.0,0.0,0.0,0.0,0.0,0.0,0.0,0.0,0.0,0.0,0.0,0.0,0.0,0.0,0.0,0.0,0.0,0.0,0.0,0.0,0.0,0.0,0.0,0.0,0.0,0.0,0.0,0.0,0.0,0.0,0.0,0.0,0.0,0.0,0.0,0.0,0.0,0.0,0.0,0.0,0.0,0.0,0.0,0.0,0.0,0.0,0.0,0.0,0.0,0.0,0.0,0.0,0.0,0.0,0.0,0.0,0.0,0.0,0.0,0.0,0.0,0.0,0.0,0.0,0.0,0.0,0.0,0.0,0.0,0.0,0.0,0.0,0.0,0.0,0.0,0.0,0.0,0.0,0.0,0.0,0.0,0.0,0.0,0.0,0.0,0.0,0.0,0.0,0.0,0.0,0.0,0.0,0.0,0.0,0.0,0.0,0.0,0.0,0.0,0.0,0.0,0.0,0.0,0.0,0.0,0.0,0.0,0.0,0.0,0.0,0.0,0.0,0.0,0.0,0.0,0.0,0.0,0.0,0.0,0.0,0.0,0.0,0.0,0.0,0.0,0.0,0.0,0.0,0.0,0.0,0.0,0.0,0.0,0.0,0.0,0.0,0.0,0.0,0.0,0.0,0.0,0.0,0.0,0.0,0.0,0.0,0.0,0.0,0.0,0.0,0.0,0.0,0.0,0.0,0.0,0.0,0.0,0.0,0.0,0.0,0.0,0.0,0.0,0.0,0.0,0.0,0.0,0.0,0.0,0.0,0.0,0.0,0.0,0.0,0.0,0.0,0.0,0.0,0.0,0.0,0.0,0.0,0.0,0.0,0.0,0.0,0.0,0.0,0.0,0.0,0.0,0.0,0.0,0.0,0.0,0.0,0.0,0.0,0.0,0.0,0.0,0.0,0.0,0.0,0.0,0.0,0.0,0.0,0.0,0.0,0.0,0.0,0.0,0.0,0.0,0.0,0.0,0.0,0.0,0.0,0.0,0.0,0.0,0.0,0.0,0.0,0.0,0.0,0.0,0.0,0.0,0.0,0.0,0.0,0.0,0.0,0.0,0.0,0.0,0.0,0.0,0.0,0.0,0.0,0.0,0.0,0.0,0.0,0.0,0.0,0.0,0.0,0.0,0.0,0.0,0.0,0.0,0.0,0.0,0.0,0.0,0.0,0.0,0.0,0.0,0.0,0.0,0.0,0.0,0.0,0.0,0.0,0.0,0.0,0.0,0.0,0.0,0.0,0.0,0.0,0.0,0.0,0.0,0.0,0.0,0.0,0.0,0.0,0.0,0.0,0.0,0.0,0.0,0.0,0.0,0.0,0.0,0.0,0.0,0.0,0.0,0.0,0.0,0.0,0.0,0.0,0.0,0.0,0.0,0.0,0.0,0.0,0.0,0.0,0.0,0.0,0.0,0.0,0.0,0.0,0.0,0.0,0.0,0.0,0.0,0.0,0.0,0.0,0.0,0.0,0.0,0.0,0.0,0.0,0.0,0.0,0.0,0.0,0.0,0.0,0.0,0.0,0.0,0.0,0.0,0.0,0.0,0.0,0.0,0.0,0.0,0.0,0.0,0.0,0.0,0.0,0.0,0.0,0.0,0.0,0.0,0.0,0.0,0.0,0.0,0.0,0.0,0.0,0.0,0.0,0.0,0.0,0.0,0.0,0.0,0.0,0.0,0.0,0.0,0.0,0.0,0.0,0.0,0.0,0.0,0.0,0.0,0.0,0.0,0.0,0.0,0.0,0.0,0.0,0.0,0.0,0.0,0.0,0.0,0.0,0.0,0.0,0.0,0.0,0.0,0.0,0.0,0.0,0.0,0.0,0.0,0.0,0.0,0.0,0.0,0.0,0.0,0.0,0.0,0.0,0.0,0.0,0.0,0.0,0.0,0.0,0.0,0.0,0.0,0.0,0.0,0.0,0.0,0.0,0.0,0.0,0.0,0.0,0.0,0.0,0.0,0.0,0.0,0.0,0.0,0.0,0.0,0.0,0.0,0.0,0.0,0.0,0.0,0.0,0.0,0.0,0.0,0.0,0.0,0.0,0.0,0.0,0.0,0.0,0.0,0.0,0.0,0.0,0.0,0.0,0.0,0.0,0.0,0.0,0.0,0.0,0.0,0.0,0.0,0.0,0.0,0.0,0.0,0.0,0.0,0.0,0.0,0.0,0.0,0.0,0.0,0.0,0.0,0.0,0.0,0.0,0.0,0.0,0.0,0.0,0.0,0.0,0.0,0.0,0.0,0.0,0.0,0.0,0.0,0.0,0.0,0.0,0.0,0.0,0.0,0.0,0.0,0.0,0.0,0.0,0.0,0.0,0.0,0.0,0.0,0.0,0.0,0.0,0.0,0.0,0.0,0.0,0.0,0.0,0.0,0.0,0.0,0.0,0.0,0.0,0.0,0.0,0.0,0.0,0.0,0.0,0.0,0.0,0.0,0.0,0.0,0.0,0.0,0.0,0.0,0.0,0.0,0.0,0.0,0.0,0.0,0.0,0.0,0.0,0.0,0.0,0.0,0.0,0.0,0.0,0.0,0.0,0.0,0.0,0.0,0.0,0.0,0.0,0.0,0.0,0.0,0.0,0.0,0.0,0.0,0.0,0.0,0.0,0.0,0.0,0.0,0.0,0.0,0.0,0.0,0.0,0.0,0.0,0.0,0.0,0.0,0.0,0.0,0.0,0.0,0.0,0.0,0.0,0.0,0.0,0.0,0.0,0.0,0.0,0.0,0.0,0.0,0.0,0.0,0.0,0.0,0.0,0.0,0.0,0.0,0.0,0.0,0.0,0.0,0.0,0.0,0.0,0.0,0.0,0.0,0.0,0.0,0.0,0.0,0.0,0.0,0.0,0.0,0.0,0.0,0.0,0.0,0.0,0.0,0.0,0.0,0.0,0.0,0.0,0.0,0.0,0.0,0.0,0.0,0.0,0.0,0.0,0.0,0.0,0.0,0.0,0.0,0.0,0.0,0.0,0.0,0.0,0.0,0.0,0.0,0.0,0.0,0.0,0.0,0.0,0.0,0.0,0.0,0.0,0.0,0.0,0.0,0.0,0.0,0.0,0.0,0.0,0.0,0.0,0.0,0.0,0.0,0.0,0.0,0.0,0.0,0.0,0.0,0.0,0.0,0.0,0.0,0.0,0.0,0.0,0.0,0.0,0.0,0.0,0.0,0.0,0.0,0.0,0.0,0.0,0.0,0.0,0.0,0.0,0.0,0.0,0.0,0.0,0.0,0.0,0.0,0.0,0.0,0.0,0.0,0.0,0.0,0.0,0.0,0.0,0.0,0.0,0.0,0.0,0.0,0.0,0.0,0.0,0.0,0.0,0.0,0.0,0.0,0.0,0.0,0.0,0.0,0.0,0.0,0.0,0.0,0.0,0.0,0.0,0.0,0.0,0.0,0.0,0.0,0.0,0.0,0.0,0.0,0.0,0.0,0.0,0.0,0.0,0.0,0.0,0.0,0.0,0.0,0.0,0.0,0.0,0.0,0.0,0.0,0.0,0.0,0.0,0.0,0.0,0.0,0.0,0.0,0.0,0.0,0.0,0.0,0.0,0.0,0.0,0.0,0.0,0.0,0.0,0.0,0.0,0.0,0.0,0.0,0.0,0.0,0.0,0.0,0.0,0.0,0.0,0.0,0.0,0.0,0.0,0.0,0.0,0.0,0.0,0.0,0.0,0.0,0.0,0.0,0.0,0.0,0.0,0.0,0.0,0.0,0.0,0.0,0.0,0.0,0.0,0.0,0.0,0.0,0.0,0.0,0.0,0.0,0.0,0.0,0.0,0.0,0.0,0.0,0.0,0.0,0.0,0.0,0.0,0.0,0.0,0.0,0.0,0.0,0.0,0.0,0.0,0.0,0.0,0.0,0.0,0.0,0.0,0.0,0.0,0.0,0.0,0.0,0.0,0.0,0.0,0.0,0.0,0.0,0.0,0.0,0.0,0.0,0.0,0.0,0.0,0.0,0.0,0.0,0.0,0.0,0.0,0.0,0.0,0.0,0.0,0.0,0.0,0.0,0.0,0.0,0.0,0.0,0.0,0.0,0.0,0.0,0.0,0.0,0.0,0.0,0.0,0.0,0.0,0.0,0.0,0.0,0.0,0.0,0.0,0.0,0.0,0.0,0.0,0.0,0.0,0.0,0.0,0.0,0.0,0.0,0.0,0.0,0.0,0.0,0.0,0.0,0.0,0.0,0.0,0.0,0.0,0.0,0.0,0.0,0.0,0.0,0.0,0.0,0.0,0.0,0.0,0.0,0.0,0.0,0.0,0.0,0.0,0.0,0.0,0.0,0.0,0.0,0.0,0.0,0.0,0.0,0.0,0.0,0.0,0.0,0.0,0.0,0.0,0.0,0.0,0.0,0.0,0.0,0.0,0.0,0.0,0.0,0.0,0.0,0.0,0.0,0.0,0.0,0.0,0.0,0.0,0.0,-5.1005,0.0,0.0,0.0,0.0,0.0,0.0,0.0,0.0,0.0,0.0,0.0,0.0,0.0,0.0,0.0,0.0,0.0,0.0,0.0,0.0,0.0,0.0,0.0,0.0,0.0,0.0,0.0,0.0,0.0,0.0,0.0,0.0,0.0,0.0,0.0,0.0,0.0,0.0,0.0,0.0,0.0,0.0,0.0,0.0,0.0,0.0,0.0,0.0,0.0,0.0,0.0,0.0,0.0,0.0,0.0,0.0,0.0,0.0,0.0,0.0,0.0,0.0,0.0,0.0,0.0,0.0,0.0,0.0,0.0,0.0,0.0,0.0,0.0,0.0,0.0,0.0,0.0,0.0,0.0,0.0,0.0,0.0,0.0,0.0,0.0,0.0,0.0,0.0,0.0,0.0,0.0,0.0,0.0,0.0,0.0,0.0,0.0,0.0,0.0,0.0,0.0,0.0,0.0,0.0,0.0,0.0,0.0,0.0,0.0,0.0,0.0,0.0,0.0,0.0,0.0,0.0,-5.0892,0.0,0.0,0.0,0.0,0.0,0.0,0.0,0.0,0.0,0.0,0.0,0.0,0.0,0.0,0.0,0.0,0.0,0.0,0.0,0.0,0.0,0.0,0.0,0.0,0.0,0.0,0.0,0.0,0.0,0.0,0.0,0.0,0.0,0.0,0.0,0.0,0.0,0.0,0.0,0.0,0.0,0.0,0.0,0.0,0.0,0.0,0.0,0.0,0.0,0.0,0.0,0.0,0.0,0.0,0.0,0.0,0.0,0.0,0.0,0.0,0.0,0.0,0.0,0.0,0.0,0.0,0.0,0.0,0.0,0.0,0.0,0.0,0.0,0.0,0.0,0.0,0.0,0.0,0.0,0.0,0.0,0.0,0.0,0.0,0.0,0.0,0.0,0.0,0.0,0.0,0.0,0.0,0.0,0.0,0.0,0.0,0.0,0.0,0.0,0.0,0.0,0.0,0.0,0.0,0.0,0.0,0.0,0.0,-4.9868,-4.9868,-4.9868,-4.9868,-4.9392,-4.861,-4.9472,-4.9472,-4.8932,-5.0633,0.0,0.0,0.0,0.0,0.0,0.0,0.0,0.0,0.0,0.0,0.0,0.0,0.0,0.0,0.0,0.0,0.0,0.0,0.0,0.0,0.0,0.0,0.0,0.0,0.0,0.0,0.0,0.0,0.0,0.0,0.0,0.0,0.0,0.0,0.0,0.0,0.0,0.0,-3.8214,-3.8338,-3.9049,-4.0292,0.0,0.0,0.0,0.0,0.0,0.0,0.0,0.0,0.0,0.0,0.0,0.0,0.0,0.0,0.0,0.0,0.0,0.0,0.0,0.0,0.0,0.0,0.0,0.0,0.0,0.0,0.0,0.0,0.0,0.0,0.0,0.0,0.0,0.0,0.0,0.0,0.0,0.0,0.0,0.0,0.0,0.0,0.0,0.0,-4.3319,-4.3409,0.0,0.0,0.0,0.0,0.0,0.0,0.0,0.0,0.0,0.0,0.0,0.0,0.0,-4.9029,-4.9029,-4.8141,-4.7694,-4.7694,-4.7694,-4.7694,-4.7694,-4.7694,-4.7609,-4.7495,-4.7651,0.0,-4.8825,-4.9094,0.0,0.0,0.0,0.0,0.0,0.0,0.0,0.0,0.0,0.0,0.0,0.0,0.0,0.0,0.0,0.0,0.0,0.0,0.0,0.0,0.0,0.0,0.0,0.0,0.0,0.0,0.0,0.0,0.0,0.0,0.0,0.0,0.0,0.0,0.0,0.0,-3.6074,-3.5946,-3.6262,-3.6547,-3.6932,-3.7401,-3.8139,0.0,0.0,0.0,0.0,0.0,0.0,0.0,0.0,0.0,0.0,0.0,0.0,0.0,0.0,0.0,0.0,0.0,0.0,0.0,0.0,0.0,0.0,0.0,0.0,0.0,0.0,0.0,0.0,0.0,0.0,0.0,0.0,0.0,0.0,0.0,0.0,0.0,0.0,0.0,0.0,0.0,0.0,-4.3529,-4.3708,-4.4829,-4.5185,-4.5589,0.0,0.0,0.0,0.0,0.0,0.0,0.0,0.0,0.0,-4.8625,-4.8183,-4.7961,-4.7961,-4.7538,-4.7309,-4.7309,-4.7309,-4.7309,-4.7309,-4.7309,-4.7309,-4.7309,-4.7309,-4.7523,-4.7988,-4.8553,-4.8759,-4.8666,0.0,0.0,0.0,0.0,-4.6082,-4.5648,0.0,0.0,0.0,0.0,0.0,0.0,0.0,0.0,0.0,0.0,0.0,0.0,0.0,0.0,0.0,0.0,0.0,0.0,0.0,0.0,0.0,0.0,0.0,0.0,0.0,0.0,0.0,0.0,-3.3908,-3.3897,-3.4286,-3.4693,0.0,0.0,0.0,0.0,0.0,0.0,0.0,0.0,0.0,0.0,0.0,0.0,0.0,0.0,0.0,0.0,0.0,0.0,0.0,0.0,0.0,0.0,0.0,0.0,0.0,0.0,0.0,0.0,0.0,0.0,0.0,0.0,0.0,0.0,0.0,0.0,0.0,0.0,0.0,0.0,0.0,0.0,0.0,0.0,0.0,-4.3858,-4.4157,-4.5873,-4.5603,-4.5753,0.0,0.0,0.0,0.0,0.0,0.0,-4.7309,-4.7309,-4.7309,-4.7309,-4.7309,-4.7309,-4.7309,-4.7309,-4.7309,-4.7309,-4.7309,-4.7309,-4.7309,-4.7309,-4.7309,-4.7309,-4.7309,-4.7309,-4.7337,-4.8099,-4.7988,-4.7381,-4.8141,-4.7642,-4.6561,-4.6339,-4.5992,-4.5439,0.0,0.0,0.0,0.0,0.0,0.0,0.0,0.0,0.0,0.0,0.0,0.0,0.0,0.0,0.0,0.0,0.0,0.0,0.0,0.0,0.0,0.0,0.0,0.0,0.0,0.0,0.0,-3.1424,-3.255,0.0,0.0,0.0,0.0,0.0,0.0,0.0,0.0,0.0,0.0,0.0,0.0,0.0,0.0,0.0,0.0,0.0,0.0,0.0,0.0,0.0,0.0,0.0,0.0,0.0,0.0,0.0,0.0,0.0,0.0,0.0,0.0,0.0,0.0,0.0,0.0,0.0,0.0,0.0,0.0,0.0,0.0,0.0,0.0,0.0,0.0,0.0,0.0,0.0,0.0,-4.5259,-4.5319,0.0,0.0,0.0,0.0,-4.7309,-4.7309,-4.7309,-4.7309,-4.7309,-4.7309,-4.7309,-4.7309,-4.7309,-4.7309,-4.7309,-4.7309,-4.7309,-4.7309,-4.7309,-4.7309,-4.7309,-4.7309,-4.7309,-4.7309,-4.7309,-4.7294,-4.7337,-4.7337,-4.7309,-4.7337,-4.7322,-4.7174,-4.6503,-4.6264,-4.604,0.0,0.0,0.0,0.0,0.0,0.0,0.0,0.0,0.0,0.0,0.0,0.0,0.0,0.0,0.0,0.0,0.0,0.0,0.0,0.0,0.0,0.0,0.0,0.0,0.0,0.0,-3.0205,-3.0572,0.0,0.0,0.0,0.0,0.0,0.0,0.0,0.0,0.0,0.0,0.0,0.0,0.0,0.0,0.0,0.0,0.0,0.0,0.0,0.0,0.0,0.0,0.0,0.0,0.0,0.0,0.0,0.0,0.0,0.0,0.0,0.0,0.0,0.0,0.0,0.0,0.0,0.0,0.0,0.0,0.0,0.0,0.0,0.0,0.0,0.0,0.0,0.0,0.0,0.0,0.0,-4.4718,-4.5495,0.0,-4.689,-4.7174,-4.7309,-4.7309,-4.7309,-4.7309,-4.7309,-4.7309,-4.7309,-4.7309,-4.7309,-4.7309,-4.7309,-4.7309,-4.7309,-4.7309,-4.7309,-4.7309,-4.7309,-4.7309,-4.7309,-4.7309,-4.7309,-4.7309,-4.7309,-4.7309,-4.7309,-4.7309,-4.7309,-4.7055,-4.6651,-4.6369,-4.6037,-4.5589,0.0,0.0,0.0,0.0,0.0,0.0,0.0,0.0,0.0,0.0,0.0,0.0,0.0,0.0,0.0,0.0,0.0,0.0,0.0,0.0,0.0,0.0,0.0,0.0,0.0,0.0,0.0,0.0,0.0,0.0,0.0,0.0,0.0,0.0,0.0,0.0,0.0,0.0,0.0,0.0,0.0,0.0,-3.7266,0.0,0.0,0.0,0.0,0.0,0.0,0.0,0.0,0.0,0.0,0.0,0.0,0.0,0.0,0.0,0.0,0.0,0.0,0.0,0.0,0.0,0.0,0.0,0.0,0.0,0.0,0.0,0.0,0.0,0.0,0.0,0.0,0.0,0.0,0.0,-4.2937,-4.467,-4.5332,-4.6117,-4.7191,-4.7309,-4.7309,-4.7309,-4.7309,-4.7309,-4.7309,-4.7309,-4.7309,-4.7309,-4.7309,-4.7309,-4.7309,-4.7309,-4.7309,-4.7309,-4.7309,-4.7309,-4.7309,-4.7309,-4.7309,-4.7266,-4.6829,-4.6638,-4.6638,-4.6211,-4.6018,-4.6107,-4.6975,-4.6766,-4.6003,-4.6003,-4.5433,-4.4647,0.0,0.0,0.0,0.0,0.0,0.0,0.0,0.0,0.0,0.0,0.0,0.0,0.0,0.0,0.0,0.0,0.0,0.0,0.0,0.0,0.0,0.0,0.0,0.0,0.0,0.0,0.0,0.0,0.0,0.0,0.0,0.0,0.0,0.0,0.0,0.0,0.0,0.0,0.0,0.0,0.0,0.0,-3.6158,0.0,0.0,0.0,0.0,0.0,0.0,0.0,0.0,0.0,0.0,0.0,0.0,0.0,0.0,0.0,0.0,0.0,0.0,0.0,0.0,0.0,0.0,0.0,0.0,0.0,0.0,0.0,0.0,0.0,0.0,0.0,0.0,0.0,-4.1219,-4.1663,-4.2576,-4.4989,-4.4752,-4.5155,-4.7061,-4.7266,-4.7309,-4.7309,-4.7309,-4.7309,-4.7309,-4.7309,-4.7309,-4.7309,-4.7309,-4.7309,-4.7309,-4.7309,-4.7309,-4.7309,-4.7309,-4.7309,-4.7309,-4.7251,-4.7251,-4.7164,-4.5869,-4.5358,-4.5252,-4.4022,-4.3504,-4.374,-4.6211,-4.6447,-4.5358,-4.5358,-4.4549,-4.3421,0.0,0.0,0.0,0.0,0.0,0.0,0.0,0.0,0.0,0.0,0.0,0.0,0.0,0.0,0.0,0.0,0.0,0.0,0.0,0.0,0.0,0.0,0.0,0.0,0.0,0.0,0.0,0.0,0.0,0.0,0.0,0.0,0.0,0.0,0.0,0.0,0.0,0.0,0.0,0.0,0.0,0.0,-3.5129,0.0,0.0,0.0,0.0,0.0,0.0,0.0,0.0,0.0,0.0,0.0,0.0,0.0,0.0,0.0,0.0,0.0,0.0,0.0,0.0,0.0,0.0,0.0,0.0,0.0,0.0,0.0,0.0,0.0,0.0,0.0,0.0,-3.8248,-3.9475,-4.0462,-4.1321,-4.1964,-4.3895,-4.5351,-4.5854,-4.6785,-4.7309,-4.7309,-4.7309,-4.7309,-4.7309,-4.7309,-4.7309,-4.7309,-4.7309,-4.7309,-4.7309,-4.7309,-4.7309,-4.7309,-4.7309,-4.7309,-4.7266,-4.6344,-4.5928,-4.5824,-4.4595,-4.4022,-4.4022,-4.3646,-4.3504,-4.3551,-4.4256,-4.4303,-4.4022,-4.4022,-4.3787,-4.3476,0.0,0.0,0.0,0.0,0.0,0.0,0.0,0.0,0.0,0.0,0.0,0.0,0.0,0.0,0.0,0.0,0.0,0.0,0.0,0.0,0.0,0.0,0.0,0.0,0.0,0.0,0.0,0.0,0.0,0.0,0.0,0.0,0.0,0.0,0.0,0.0,0.0,0.0,0.0,0.0,0.0,0.0,-3.2519,-3.3058,-3.3585,-3.4173,-3.4734,-3.4911,-3.4974,-3.5462,0.0,0.0,0.0,0.0,0.0,0.0,0.0,0.0,0.0,0.0,0.0,0.0,0.0,0.0,0.0,0.0,0.0,0.0,0.0,0.0,0.0,0.0,0.0,0.0,-3.8216,-3.8489,-3.8852,-3.9514,-4.0265,-4.1027,-4.2726,-4.4022,-4.4549,-4.5252,-4.5928,-4.6447,-4.6491,-4.6726,-4.7266,-4.7309,-4.7309,-4.7309,-4.7309,-4.7309,-4.7309,-4.6785,-4.6491,-4.6491,-4.5973,-4.5734,-4.5689,-4.4918,-4.4595,-4.4549,-4.3266,-4.2689,-4.2641,-4.2119,-4.1936,0.0,0.0,0.0,0.0,0.0,-4.1936,-4.1936,0.0,0.0,0.0,0.0,0.0,0.0,0.0,0.0,0.0,0.0,0.0,0.0,0.0,0.0,0.0,0.0,0.0,0.0,0.0,0.0,0.0,0.0,0.0,0.0,0.0,0.0,0.0,0.0,0.0,0.0,0.0,0.0,0.0,0.0,0.0,0.0,0.0,0.0,0.0,0.0,0.0,0.0,-2.9498,-3.0586,-3.1,-3.1134,-3.2295,-3.2655,-3.2829,-3.3921,0.0,0.0,0.0,0.0,0.0,0.0,0.0,0.0,0.0,0.0,0.0,0.0,0.0,0.0,0.0,0.0,0.0,0.0,0.0,0.0,0.0,0.0,0.0,0.0,-3.863,-3.9007,-3.9007,-3.9007,-3.9575,-4.1204,-4.1505,-4.2035,-4.317,-4.3409,-4.3975,-4.5115,-4.5207,-4.5689,-4.6829,0.0,0.0,0.0,0.0,-4.6873,-4.6873,-4.5734,-4.5207,-4.5161,-4.4022,-4.3504,-4.3504,-4.3361,-4.3313,-4.3218,-4.1936,-4.1406,-4.1319,-4.0173,-3.9697,-3.9929,-4.2168,-4.2363,-4.1269,-4.0121,-3.9697,-3.9697,0.0,0.0,0.0,0.0,0.0,0.0,0.0,0.0,0.0,0.0,0.0,0.0,0.0,0.0,0.0,0.0,0.0,0.0,0.0,0.0,0.0,0.0,0.0,0.0,0.0,0.0,0.0,0.0,0.0,0.0,0.0,0.0,0.0,0.0,0.0,0.0,0.0,0.0,0.0,0.0,0.0,0.0,-2.9453,-2.9681,-2.9772,-2.9772,-3.0045,-3.0135,-3.0296,-3.1306,-3.1651,-3.1823,-3.2772,0.0,0.0,0.0,0.0,0.0,0.0,0.0,0.0,0.0,0.0,0.0,0.0,0.0,0.0,0.0,0.0,0.0,0.0,0.0,0.0,-3.9371,-3.9459,-3.9534,-3.9534,-3.9534,-3.9674,-4.0019,-4.0982,-4.169,-4.1936,-4.2882,-4.3598,-4.3834,-4.3882,-4.3975,-4.421,-4.421,-4.421,-4.421,-4.421,-4.421,-4.421,-4.3975,-4.3882,-4.3882,0.0,0.0,-4.3456,-4.2461,-4.1985,-4.1887,-4.0605,-4.0083,-4.0032,-3.9788,-3.9697,-3.9736,-4.0224,-4.0262,-4.0032,-3.9788,-3.9697,-3.9697,0.0,0.0,0.0,0.0,0.0,0.0,0.0,0.0,0.0,0.0,0.0,0.0,0.0,0.0,0.0,0.0,0.0,0.0,0.0,0.0,0.0,0.0,0.0,0.0,0.0,0.0,0.0,0.0,0.0,0.0,0.0,0.0,0.0,0.0,0.0,0.0,0.0,0.0,0.0,0.0,0.0,0.0,-2.7615,-2.8272,-2.8495,-2.8588,-2.9177,-2.9407,-2.9564,-3.055,-3.0886,-3.1054,-3.1978,-3.2794,-3.3353,0.0,0.0,0.0,0.0,0.0,0.0,0.0,0.0,0.0,0.0,0.0,0.0,0.0,0.0,-3.9283,0.0,0.0,-3.9697,-3.9697,-3.9697,-3.9697,-3.9697,-3.9697,-3.9697,-3.9697,-4.0262,-4.0642,-4.0642,-4.1219,-4.1838,-4.2509,-4.2544,-4.2834,-4.3456,-4.3504,-4.3504,-4.3504,-4.3504,-4.3504,-4.3504,-4.2882,-4.2544,-4.2558,-4.1887,-4.1604,-4.1604,-4.0932,-4.0642,-4.0605,-3.9981,-3.9697,-3.9697,-3.9697,-3.9697,-3.9697,-3.9697,-3.9697,-3.9697,-3.9697,-3.9697,-3.9697,0.0,0.0,0.0,0.0,0.0,0.0,0.0,0.0,0.0,0.0,0.0,0.0,0.0,0.0,0.0,0.0,0.0,0.0,0.0,0.0,0.0,0.0,0.0,0.0,0.0,0.0,0.0,0.0,0.0,0.0,0.0,0.0,0.0,0.0,0.0,0.0,0.0,0.0,0.0,0.0,0.0,0.0,-2.506,-2.634,-2.701,-2.7352,-2.8308,-2.8735,-2.8943,-2.9816,-3.0225,-3.0406,-3.1258,-3.1673,-3.1927,-3.1927,-3.2079,0.0,0.0,0.0,0.0,0.0,0.0,0.0,0.0,0.0,-3.9057,-3.8944,-3.9308,-3.9697,-3.9697,-3.9697,-3.9697,-3.9697,-3.9697,-3.9697,-3.9697,-3.9697,-3.9697,-3.9697,-3.9697,-3.9697,-3.9697,-3.9697,-4.0121,-4.1169,-4.1219,-4.169,-4.2689,-4.2738,-4.2738,-4.2738,-4.2738,-4.2738,-4.2738,-4.1739,-4.1219,-4.1219,-4.0173,-3.9697,-3.9697,-3.9697,-3.9697,-3.9697,-3.9697,-3.9697,-3.9697,-3.9697,-3.9697,-3.9697,-3.9697,-3.9697,-3.9697,-3.9697,-3.9697,-3.9697,0.0,0.0,0.0,0.0,0.0,0.0,0.0,0.0,0.0,0.0,0.0,0.0,0.0,0.0,0.0,0.0,0.0,0.0,0.0,0.0,0.0,0.0,0.0,0.0,0.0,0.0,0.0,0.0,0.0,0.0,0.0,0.0,0.0,0.0,0.0,0.0,0.0,0.0,0.0,0.0,0.0,0.0,-2.2307,-2.3624,-2.4894,-2.5917,-2.6062,-2.6358,-2.6814,-2.7291,-2.7708,-2.8125,-2.8602,-2.9555,-3.0514,-3.0514,0.0,-3.228,-3.228,-3.2431,-3.2605,-3.2812,-3.4509,-3.6021,0.0,0.0,-3.9471,-3.902,-3.9308,-3.9697,-3.9697,-3.9697,-3.9697,-3.9697,-3.9697,-3.9697,-3.9697,-3.9697,-3.9697,-3.9697,-3.9697,-3.9697,-3.9697,-3.9697,-3.9736,-3.989,-3.9929,-3.9981,-4.0121,-4.0121,-4.0121,-4.0121,-4.0121,-4.0121,-4.0121,-3.9981,-3.9929,-3.9929,-3.9788,-3.9697,-3.9697,-3.9697,-3.9697,-3.9697,-3.9697,-3.9697,-3.9697,-3.9697,-3.9697,-3.9697,-3.9697,-3.9697,-3.9697,-3.9697,-3.9697,-3.9697,0.0,0.0,0.0,0.0,0.0,0.0,0.0,0.0,0.0,0.0,0.0,0.0,0.0,0.0,0.0,0.0,0.0,0.0,0.0,0.0,0.0,0.0,0.0,0.0,0.0,0.0,0.0,0.0,0.0,0.0,0.0,0.0,0.0,0.0,0.0,0.0,0.0,0.0,0.0,0.0,0.0,0.0,-2.1752,-2.2307,-2.2868,-2.3592,-2.5118,-2.6016,0.0,0.0,-2.7305,-2.7796,-2.8164,-2.8698,-2.9154,-2.9154,-2.9513,0.0,-3.0916,-3.1122,-3.1457,0.0,-3.3975,-3.4791,-3.5182,-3.6249,-3.7311,-3.7964,-3.8254,-3.8687,-3.953,-3.9697,-3.9697,0.0,-3.9697,-3.9697,-3.9697,-3.9697,-3.9697,-3.9697,-3.9697,-3.9697,-3.9697,-3.9697,-3.9697,-3.9697,-3.9697,-3.9697,-3.9697,-3.9697,-3.9697,-3.9697,-3.9697,-3.9697,-3.9697,-3.9697,-3.9697,-3.9697,-3.9697,-3.9697,-3.9697,-3.9697,-3.9697,-3.9697,-3.9697,-3.9697,-3.9697,-3.9697,-3.9697,-3.9697,-3.9697,-3.9697,-3.9697,-3.9697,-3.9697,-3.9697,0.0,0.0,0.0,0.0,0.0,0.0,0.0,0.0,0.0,0.0,0.0,0.0,0.0,0.0,0.0,0.0,0.0,0.0,0.0,0.0,0.0,0.0,0.0,0.0,0.0,0.0,0.0,0.0,0.0,0.0,0.0,0.0,0.0,0.0,0.0,0.0,0.0,0.0,0.0,0.0,0.0,0.0,-2.0582,-2.099,-2.1143,-2.1515,-2.4325,-2.5616,0.0,0.0,-2.748,-2.7891,-2.8193,-2.8291,-2.8291,-2.8291,-2.8291,-2.8495,-2.946,-2.9847,0.0,-3.2019,-3.2962,-3.3613,-3.4318,-3.4913,-3.5617,-3.6649,-3.6865,-3.7358,-3.8804,-3.9077,-3.9245,-3.9633,-3.9697,-3.9697,-3.9697,-3.9697,-3.9697,-3.9697,-3.9697,-3.9697,-3.9697,-3.9697,-3.9697,-3.9697,-3.9697,-3.9697,-3.9697,-3.9697,-3.9697,-3.9697,-3.9697,-3.9697,-3.9697,-3.9697,-3.9697,-3.9697,-3.9697,-3.9697,-3.9697,-3.9697,-3.9697,-3.9697,-3.9245,-3.9077,-3.9077,-3.8635,-3.8489,-3.8489,-3.8489,-3.8489,-3.8489,-3.8489,-3.8752,-3.9025,0.0,0.0,0.0,0.0,0.0,0.0,0.0,0.0,0.0,0.0,0.0,0.0,0.0,0.0,0.0,0.0,0.0,0.0,0.0,0.0,0.0,0.0,0.0,0.0,0.0,0.0,0.0,0.0,0.0,0.0,0.0,0.0,0.0,0.0,0.0,0.0,0.0,0.0,0.0,0.0,0.0,0.0,-1.7891,-1.9169,-1.9679,-2.0078,-2.3235,0.0,0.0,0.0,-2.793,-2.8271,-2.8291,-2.8291,0.0,-2.8291,-2.8291,-2.8291,-2.8344,0.0,-2.8961,-2.9035,-3.074,-3.2475,-3.2496,-3.3955,-3.5288,-3.5354,-3.5343,-3.5836,-3.7305,-3.7571,-3.8019,-3.9465,-3.9697,-3.9697,-3.9697,-3.9697,-3.9697,-3.9697,-3.9697,-3.9697,0.0,-3.9697,-3.9697,-3.9697,-3.9697,-3.9697,-3.9697,-3.9697,-3.9697,-3.9697,-3.9697,-3.9697,-3.9697,-3.9697,-3.9697,-3.9697,-3.9697,-3.9697,-3.9697,-3.9697,-3.9697,-3.9633,-3.819,-3.7571,-3.7465,-3.5999,-3.5409,-3.5409,-3.5409,-3.5409,-3.5409,-3.5409,-3.6325,-3.7358,0.0,0.0,0.0,0.0,0.0,0.0,0.0,0.0,0.0,0.0,0.0,0.0,0.0,0.0,0.0,0.0,0.0,0.0,0.0,0.0,0.0,0.0,0.0,0.0,0.0,0.0,0.0,0.0,0.0,0.0,0.0,0.0,0.0,0.0,0.0,0.0,0.0,0.0,0.0,0.0,0.0,0.0,-1.7635,-1.8094,-1.8383,-1.8812,0.0,0.0,0.0,0.0,-2.7106,-2.8291,-2.8291,0.0,0.0,-2.8291,-2.8496,-2.8711,-2.8711,0.0,-2.9424,-2.9697,-3.0366,-3.1041,-3.1304,-3.1933,-3.2654,-3.3631,-3.3856,-3.4615,-3.7026,-3.6703,-3.6823,-3.931,-3.8856,-3.857,-3.9581,-3.9697,-3.9697,-3.9697,-3.9697,0.0,0.0,0.0,0.0,-3.9697,-3.9697,-3.9697,-3.9697,-3.9697,-3.9697,-3.9697,-3.9697,-3.9697,-3.9697,-3.9697,-3.9697,-3.9697,-3.8687,-3.7755,-3.678,-3.678,-3.678,-3.678,-3.6271,-3.6054,-3.5999,-3.5508,-3.5288,-3.5288,-3.5288,-3.5288,-3.5178,-3.4181,-3.4125,-3.467,0.0,0.0,0.0,0.0,0.0,0.0,0.0,0.0,0.0,0.0,0.0,0.0,0.0,0.0,0.0,0.0,0.0,0.0,0.0,0.0,0.0,0.0,0.0,0.0,0.0,0.0,0.0,0.0,0.0,0.0,0.0,0.0,0.0,0.0,0.0,0.0,0.0,0.0,0.0,0.0,0.0,0.0,-1.7582,-1.7582,-1.7776,0.0,0.0,0.0,0.0,0.0,0.0,0.0,-2.8121,-2.8398,-2.8516,-2.8516,-2.8818,-2.915,-2.915,-2.9463,-2.9863,-3.0127,-3.0322,-3.0518,-3.082,-3.0889,-3.116,-3.2092,-3.2311,-3.3021,-3.5485,-3.5167,-3.5288,-3.7701,-3.7755,-3.7636,-3.8084,-3.8582,-3.8699,-3.8202,-3.8582,-3.8908,0.0,0.0,0.0,-3.9697,-3.9697,-3.9697,-3.9697,-3.9697,-3.9697,-3.9697,-3.9193,-3.8908,-3.8908,-3.8372,-3.8149,-3.8096,-3.7145,-3.6217,-3.5288,-3.5288,-3.5288,-3.5288,-3.4736,-3.4515,-3.4459,-3.3979,-3.3698,-3.3698,-3.3698,-3.3698,-3.3596,-3.2644,-3.2311,-3.2462,0.0,0.0,0.0,0.0,0.0,0.0,0.0,0.0,0.0,0.0,0.0,0.0,0.0,0.0,0.0,0.0,0.0,0.0,0.0,0.0,0.0,0.0,0.0,0.0,0.0,0.0,0.0,0.0,0.0,0.0,0.0,0.0,0.0,0.0,0.0,0.0,0.0,0.0,0.0,0.0,0.0,0.0,-1.7582,-1.7602,0.0,0.0,0.0,0.0,0.0,0.0,0.0,0.0,-2.7872,-2.8603,-2.8926,-2.8945,-2.9258,-2.96,-2.96,-2.9912,-3.0234,-3.0234,-3.0566,-3.0889,-3.0889,-3.0889,-3.0889,-3.0889,-3.0889,-3.1325,0.0,0.0,-3.3519,-3.5068,-3.6433,-3.6811,-3.5508,-3.6487,-3.6865,0.0,0.0,0.0,0.0,0.0,0.0,-3.9465,0.0,-3.953,-3.9478,-3.9465,-3.9465,-3.9465,-3.8137,-3.7412,-3.7412,-3.5999,-3.5245,-3.5189,-3.5189,-3.5134,-3.5068,-3.5068,-3.5068,-3.5024,-3.3575,-3.2964,-3.2861,-3.1498,-3.0889,-3.0889,-3.0889,-3.0889,-3.0889,-3.0889,-3.0889,-3.082,0.0,0.0,0.0,0.0,0.0,0.0,0.0,0.0,0.0,0.0,0.0,0.0,0.0,0.0,0.0,0.0,0.0,0.0,0.0,0.0,0.0,0.0,0.0,0.0,0.0,0.0,0.0,0.0,0.0,0.0,0.0,0.0,0.0,0.0,0.0,0.0,0.0,0.0,0.0,0.0,0.0,0.0,-1.7609,0.0,0.0,0.0,0.0,0.0,0.0,0.0,0.0,0.0,0.0,-2.8838,-2.8984,-2.9307,-2.9707,-3.0039,-3.0039,-3.0371,-3.0713,-3.0713,-3.0801,-3.0889,-3.0889,-3.0889,-3.0889,-3.0889,-3.0889,-3.1325,0.0,0.0,0.0,-3.4902,-3.4681,0.0,-3.5178,-3.5617,0.0,-3.5343,0.0,-3.5836,-3.5836,-3.6228,0.0,0.0,-3.7423,-3.7583,-3.6499,-3.6445,-3.6445,-3.6445,-3.6065,-3.5836,-3.5836,-3.5508,-3.4736,-3.3687,-3.3687,-3.3088,-3.1998,-3.1998,-3.1998,-3.1998,-3.1604,-3.1441,-3.1441,-3.1054,-3.0889,-3.0889,-3.0889,-3.0889,-3.0889,-3.0889,-3.0889,-3.0781,0.0,0.0,0.0,0.0,0.0,0.0,0.0,0.0,0.0,0.0,0.0,0.0,0.0,0.0,0.0,0.0,0.0,0.0,0.0,0.0,0.0,0.0,0.0,0.0,0.0,0.0,0.0,0.0,0.0,0.0,0.0,0.0,0.0,0.0,0.0,0.0,0.0,0.0,0.0,0.0,0.0,0.0,0.0,0.0,0.0,0.0,0.0,0.0,0.0,0.0,0.0,-2.6582,-2.7603,-2.8663,-2.9531,-2.9775,0.0,-3.0508,-3.0508,-3.0693,-3.0889,-3.0889,-3.0889,-3.0889,-3.0889,-3.0889,-3.0889,-3.0889,-3.0889,0.0,-3.1988,-3.1441,0.0,0.0,0.0,0.0,-3.3371,-3.3923,-3.408,0.0,-3.3912,0.0,-3.4348,-3.4902,-3.5013,0.0,-3.5715,-3.6162,-3.5343,-3.5288,-3.5288,-3.5288,-3.4681,-3.4024,-3.3371,-3.3371,-3.2928,-3.215,-3.215,-3.171,-3.0889,-3.0889,-3.0889,-3.0889,0.0,-3.0889,-3.0889,-3.0889,-3.0889,-3.0889,-3.0889,-3.0889,-3.0889,-3.0889,-3.0889,-3.0762,0.0,0.0,0.0,0.0,0.0,0.0,0.0,0.0,0.0,0.0,0.0,0.0,0.0,0.0,0.0,0.0,0.0,0.0,0.0,0.0,0.0,0.0,0.0,0.0,0.0,0.0,0.0,0.0,0.0,0.0,0.0,0.0,0.0,0.0,0.0,0.0,0.0,0.0,0.0,0.0,0.0,0.0,0.0,0.0,0.0,0.0,0.0,0.0,0.0,0.0,-2.3448,-2.6155,-2.661,-2.8229,-2.9919,-3.0206,-3.0576,-3.0889,-3.0889,-3.0889,-3.0889,-3.0889,-3.0889,-3.0889,-3.0889,-3.0889,-3.0889,-3.0889,0.0,-3.0889,-3.0889,-3.0889,-3.0889,-3.0889,0.0,-3.2369,-3.1054,-3.1988,-3.2311,-3.1054,-3.2045,-3.2804,-3.2804,-3.3968,-3.4191,-3.2918,-3.3968,-3.4748,-3.4748,-3.4748,-3.4748,-3.4748,-3.3473,-3.2207,-3.0889,-3.0889,-3.0889,-3.0889,-3.0889,-3.0889,-3.0889,-3.0889,-3.0889,-3.0889,-3.0889,0.0,-3.0889,-3.0889,-3.0889,-3.0889,-3.0889,-3.0889,-3.0889,-3.0889,-3.0889,-3.0771,0.0,0.0,0.0,0.0,0.0,0.0,0.0,0.0,0.0,0.0,-0.8885,-0.8885,0.0,0.0,0.0,0.0,0.0,0.0,0.0,0.0,0.0,0.0,0.0,0.0,0.0,0.0,0.0,0.0,0.0,0.0,0.0,0.0,0.0,0.0,0.0,0.0,0.0,0.0,0.0,0.0,0.0,0.0,0.0,0.0,0.0,0.0,0.0,0.0,0.0,0.0,-2.1133,-2.3318,-2.6281,-2.7691,-2.8554,-3.0296,-3.083,-3.0889,-3.0889,-3.0889,-3.0889,-3.0889,-3.0889,-3.0889,-3.0889,-3.0889,0.0,0.0,-3.0889,-3.0889,-3.0889,-3.0889,-3.0889,-3.0889,-3.1112,-3.116,-3.0947,-3.1112,-3.116,0.0,-3.1112,-3.1276,-3.1276,-3.1498,0.0,0.0,-3.1498,-3.1662,-3.1662,-3.1662,-3.1662,-3.1662,-3.1383,-3.117,-3.0889,-3.0889,-3.0889,-3.0889,-3.0889,-3.0889,-3.0889,-3.0889,-3.0889,-3.0889,-3.0889,0.0,-3.0889,-3.0889,-3.0889,-3.0889,-3.0889,-3.0889,-3.0889,-3.0889,-3.0889,-3.081,0.0,0.0,0.0,0.0,0.0,0.0,0.0,0.0,-0.9754,-0.8992,-0.8885,-0.8885,-0.8885,-0.8885,0.0,0.0,0.0,0.0,0.0,0.0,0.0,0.0,0.0,0.0,0.0,0.0,0.0,0.0,0.0,0.0,0.0,0.0,0.0,0.0,0.0,0.0,0.0,0.0,0.0,0.0,0.0,0.0,0.0,0.0,0.0,0.0,0.0,0.0,0.0,0.0,-2.011,-2.1662,-2.5078,-2.6468,-2.7395,-3.009,-3.0274,-2.9776,-3.0645,-3.0889,-3.0889,-3.0889,-3.0889,-3.0889,-3.0889,0.0,0.0,0.0,-3.0889,-3.0889,-3.0889,-3.0889,0.0,-3.0889,-3.0889,-3.0889,-3.0889,-3.0889,0.0,-3.0889,-3.0889,-3.0889,0.0,-3.0889,-3.0889,-3.0889,-3.0889,-3.0889,-3.0889,-3.0889,-3.0889,-3.0889,-3.0889,-3.0889,-3.0889,-3.0889,-3.0889,-3.0889,-3.0889,-3.0889,-3.0889,-3.0889,-3.0889,-3.0889,-3.0889,0.0,-3.083,-2.9962,-2.9589,-2.953,-2.8673,-2.8367,-2.8367,-2.8367,-2.8367,-2.8304,0.0,0.0,0.0,0.0,0.0,0.0,0.0,-1.1864,-1.1055,-0.9592,-0.9372,-0.9265,-0.8937,-0.8885,-0.8885,0.0,0.0,0.0,0.0,0.0,0.0,0.0,0.0,0.0,0.0,0.0,0.0,0.0,0.0,0.0,0.0,0.0,0.0,0.0,0.0,0.0,0.0,0.0,0.0,0.0,0.0,0.0,0.0,0.0,0.0,0.0,0.0,0.0,0.0,0.0,-1.9753,-2.0698,-2.3681,-2.4982,-2.6106,-2.9412,-2.9403,-2.8792,-3.045,-3.0889,-3.0889,-3.0889,-3.0889,-3.0889,-3.0889,-3.0889,0.0,0.0,-3.0889,-3.0889,-3.0889,-3.0889,-3.0889,0.0,-3.0889,-3.0889,-3.0889,-3.0889,-3.0889,0.0,0.0,0.0,0.0,-3.0889,0.0,-3.0889,-3.0889,-3.0889,-3.0889,-3.0889,-3.0889,-3.0889,-3.0889,-3.0889,-3.0889,-3.0889,-3.0889,-3.0889,-3.0889,-3.0704,-3.0333,-3.0333,-3.0206,-2.9844,-2.9844,0.0,0.0,-2.8426,-2.7871,-2.7743,-2.6461,-2.5976,-2.5976,-2.5976,-2.5976,-2.5935,0.0,0.0,0.0,0.0,0.0,0.0,0.0,-1.4291,-1.2566,-1.1105,-1.0891,-1.0402,-0.9047,-0.8885,-0.8885,0.0,0.0,0.0,0.0,0.0,0.0,0.0,0.0,0.0,0.0,0.0,0.0,0.0,0.0,0.0,0.0,0.0,0.0,0.0,0.0,0.0,0.0,0.0,0.0,0.0,0.0,0.0,0.0,0.0,0.0,0.0,0.0,0.0,0.0,0.0,0.0,-2.053,-2.2356,-2.3339,-2.4425,-2.7692,0.0,0.0,-3.045,-3.0889,-3.0889,-3.0889,-3.0889,-3.0889,-3.0889,0.0,0.0,-3.0889,-3.0889,-3.0889,-3.0889,-3.0889,-3.0889,-3.0889,0.0,-3.0889,0.0,-3.0889,-3.0889,0.0,0.0,0.0,0.0,0.0,0.0,-3.0889,-3.0889,0.0,-3.0889,-3.0889,-3.0889,-3.0889,-3.0889,-3.0889,-3.0889,-3.0889,-3.0889,-3.0889,-3.0889,-3.0089,-2.8605,-2.8605,-2.7811,-2.647,-2.647,0.0,0.0,-2.628,-2.6219,-2.6227,-2.6037,-2.5976,-2.5976,-2.5976,-2.5976,-2.5976,0.0,0.0,0.0,0.0,0.0,0.0,-1.6226,-1.5399,-1.4288,-1.2635,-1.2403,-1.2186,-1.1592,-1.1538,-1.0836,0.0,0.0,0.0,0.0,0.0,0.0,0.0,0.0,0.0,0.0,0.0,0.0,0.0,0.0,0.0,0.0,0.0,0.0,0.0,0.0,0.0,0.0,0.0,0.0,0.0,0.0,0.0,0.0,0.0,0.0,0.0,0.0,0.0,0.0,0.0,0.0,0.0,-2.0944,-2.1474,0.0,0.0,-2.6953,-2.7073,-2.7751,-2.8673,-2.9403,-2.9403,-2.9403,-2.9658,-3.0645,0.0,-3.0889,-3.0889,-3.0889,-3.0889,-3.0889,-3.0889,-3.0889,0.0,0.0,0.0,-3.0889,0.0,0.0,0.0,-3.0889,0.0,0.0,0.0,-3.0889,-3.0889,-3.0889,0.0,-3.0889,-3.0889,-3.0889,-3.0889,-3.0889,-3.0392,-2.9403,-2.9403,-2.8911,-2.794,-2.794,-2.7632,-2.6953,-2.6953,-2.6591,-2.5976,-2.5976,0.0,0.0,-2.4955,-2.454,-2.4479,-2.3427,-2.3062,-2.3062,-2.3062,-2.3062,-2.3062,0.0,0.0,0.0,0.0,0.0,-1.8433,-1.6999,-1.6637,-1.5909,-1.4256,-1.3954,-1.375,-1.3372,-1.3318,-1.2457,-1.0406,0.0,0.0,0.0,0.0,0.0,0.0,0.0,0.0,0.0,0.0,0.0,-0.9533,-0.9533,0.0,0.0,0.0,0.0,0.0,0.0,0.0,0.0,0.0,0.0,0.0,0.0,0.0,0.0,0.0,0.0,0.0,0.0,0.0,0.0,0.0,0.0,0.0,0.0,0.0,0.0,0.0,-2.5314,-2.5375,-2.5855,-2.6832,-2.7692,-2.7692,-2.7692,-2.7991,0.0,0.0,-3.0147,-3.0147,-3.0577,-3.0889,-3.0889,-3.0889,-3.0889,0.0,0.0,-3.0889,-3.0889,-3.0889,0.0,0.0,0.0,-3.0704,0.0,-2.9717,-2.9471,-2.9471,-2.9471,0.0,-2.9471,-2.9471,-2.9658,-3.0147,-2.9717,-2.8852,-2.7683,-2.7692,-2.7134,-2.5976,-2.5976,-2.5733,-2.5314,-2.5314,-2.5008,-2.4517,-2.4517,0.0,0.0,-2.3318,-2.2834,-2.2709,-2.1544,-2.1109,-2.1109,-2.1109,-2.1109,-2.1109,0.0,0.0,0.0,0.0,0.0,0.0,0.0,-1.8362,-1.7482,-1.6078,-1.5576,-1.4824,-1.3426,-1.3318,-1.3264,-1.3264,0.0,0.0,0.0,0.0,0.0,0.0,0.0,0.0,0.0,0.0,-0.9588,-1.1055,-1.1055,-1.181,-1.3264,0.0,0.0,0.0,0.0,0.0,0.0,0.0,0.0,0.0,0.0,0.0,0.0,0.0,0.0,0.0,0.0,0.0,0.0,0.0,0.0,0.0,0.0,0.0,0.0,0.0,-2.3636,-2.3993,-2.5558,-2.6037,-2.6037,-2.6037,-2.6037,-2.6037,0.0,0.0,-2.8417,-2.8417,-2.9776,-3.0889,-3.0889,-3.0889,-3.0889,-3.0889,0.0,0.0,-3.0889,-3.0889,0.0,0.0,0.0,-3.0274,-2.8605,-2.7013,-2.6037,-2.6037,-2.6037,0.0,-2.6037,-2.6037,-2.6772,-2.8358,-2.6893,-2.6037,-2.6037,-2.6037,-2.6037,-2.5976,-2.5976,-2.52,-2.3636,-2.3636,-2.2709,-2.1172,0.0,0.0,0.0,-2.1109,-2.1109,-2.1109,-2.1109,-2.1109,-2.1109,-2.1109,-2.1109,-2.1109,0.0,0.0,0.0,0.0,0.0,0.0,0.0,-1.8764,-1.8404,-1.775,-1.7418,-1.7016,-1.6578,-1.6351,-1.6227,-1.6227,0.0,0.0,0.0,0.0,0.0,0.0,0.0,0.0,0.0,0.0,-1.2132,-1.262,-1.262,-1.2832,-1.3318,-1.4288,-1.4234,-1.3372,0.0,0.0,0.0,0.0,0.0,0.0,0.0,0.0,0.0,0.0,0.0,0.0,0.0,0.0,0.0,0.0,0.0,0.0,0.0,0.0,0.0,0.0,0.0,0.0,-2.282,-2.3497,-2.4355,-2.4355,-2.4355,-2.4655,-2.5741,-2.6401,-2.6772,-2.6772,-2.7202,-2.7572,-2.7572,-2.7572,-2.7572,-2.7572,-2.8486,0.0,0.0,0.0,0.0,-2.7692,-2.7572,-2.7323,0.0,0.0,-2.5976,-2.5976,-2.5976,0.0,-2.5976,-2.4955,-2.5085,-2.6712,-2.6288,-2.5497,-2.4355,-2.4355,-2.3799,-2.2632,-2.2632,-2.2396,-2.1908,-2.1908,-2.1601,0.0,0.0,0.0,0.0,-2.1109,-2.1109,-2.1109,-2.1109,-2.1109,-2.1109,-2.1109,-2.1109,-2.1109,0.0,0.0,0.0,0.0,0.0,0.0,0.0,-1.8998,-1.8858,-1.8677,-1.8397,-1.8115,-1.8002,-1.7876,-1.7709,-1.7595,0.0,0.0,0.0,0.0,0.0,0.0,0.0,0.0,0.0,-1.3318,-1.3534,-1.4073,-1.4073,-1.4395,-1.4936,-1.5904,-1.5899,-1.5144,-1.7105,0.0,0.0,0.0,0.0,0.0,0.0,0.0,-1.9424,0.0,0.0,0.0,0.0,0.0,0.0,0.0,0.0,0.0,0.0,0.0,0.0,0.0,-2.1846,0.0,0.0,-2.1846,-2.2654,-2.2654,-2.2654,-2.2889,-2.3915,-2.4648,-2.5077,-2.5077,-2.5558,-2.5976,-2.5976,-2.5976,-2.5976,-2.5976,-2.6832,0.0,0.0,0.0,0.0,-2.6106,0.0,0.0,0.0,-2.4525,-2.4155,-2.4155,-2.4155,0.0,-2.4155,-2.3193,-2.3139,-2.4093,-2.4155,-2.3675,-2.2654,-2.2654,-2.216,-2.1109,-2.1109,-2.1109,-2.1109,-2.1109,-2.1109,0.0,0.0,0.0,0.0,-2.1109,-2.1109,-2.1109,-2.1109,-2.1109,-2.1109,-2.1109,-2.1109,-2.1109,0.0,0.0,0.0,0.0,0.0,0.0,0.0,0.0,0.0,-1.8958,-1.8698,-1.8417,-1.8082,-1.8035,-1.7956,0.0,0.0,0.0,0.0,0.0,0.0,0.0,0.0,0.0,0.0,-1.3588,-1.4234,-1.5577,-1.5577,-1.6293,-1.7622,-1.7856,-1.8002,-1.8035,-1.837,0.0,0.0,0.0,0.0,0.0,-1.9259,-1.9424,0.0,0.0,0.0,0.0,0.0,0.0,0.0,0.0,0.0,0.0,0.0,0.0,0.0,0.0,0.0,0.0,0.0,-2.1109,0.0,-2.1109,-2.1109,-2.1109,-2.1109,-2.2278,0.0,-2.3387,-2.4594,-2.5672,-2.5672,-2.5672,-2.5672,-2.5672,-2.5733,-2.5794,0.0,-2.5672,0.0,0.0,-2.4355,0.0,-2.3387,-2.2034,-2.1109,-2.1109,0.0,0.0,-2.1109,-2.1109,-2.1109,-2.1109,-2.1109,-2.1109,-2.1109,-2.1109,-2.1109,-2.1109,-2.1109,-2.1109,-2.1109,-2.1109,-2.1109,0.0,0.0,0.0,0.0,-2.1109,-2.1109,-2.1109,-2.0976,-2.0912,-2.0912,-2.0786,-2.0716,-2.0716,0.0,0.0,0.0,0.0,0.0,0.0,0.0,0.0,0.0,0.0,-1.9005,-1.8798,-1.8724,-1.8524,-1.8263,0.0,0.0,0.0,0.0,0.0,0.0,0.0,0.0,0.0,0.0,-1.6605,-1.677,-1.7094,-1.7094,-1.7377,-1.7889,-1.7955,-1.8115,-1.839,-1.8464,0.0,0.0,0.0,0.0,0.0,-1.9397,-1.9424,0.0,0.0,0.0,0.0,-1.9424,-1.9424,0.0,0.0,0.0,0.0,0.0,0.0,0.0,0.0,-2.1109,-2.1109,-2.1109,0.0,-2.1109,-2.1109,-2.1109,-2.1109,0.0,-2.1418,-2.1664,-2.1664,0.0,-2.2271,-2.2271,-2.2271,-2.2271,-2.2271,-2.3318,-2.3745,-2.2452,0.0,0.0,-2.2271,-2.1908,-2.1664,-2.1664,-2.1355,-2.1109,-2.1109,0.0,-2.1109,-2.1109,-2.1109,-2.1109,-2.1109,-2.1109,-2.1109,-2.1109,-2.1109,-2.1109,-2.1109,-2.1109,-2.1109,-2.1109,-2.1109,-2.1109,0.0,0.0,0.0,-2.1109,-2.1109,-2.1109,-2.0982,-1.961,-1.9094,-1.896,-1.7602,-1.7146,-1.7146,0.0,0.0,0.0,0.0,0.0,0.0,0.0,0.0,0.0,0.0,0.0,0.0,0.0,0.0,0.0,0.0,0.0,0.0,0.0,0.0,0.0,0.0,0.0,0.0,-1.7582,-1.7582,-1.7582,-1.7582,-1.7582,-1.7742,-1.7995,-1.8135,-1.841,-1.8698,-1.8831,-1.8978,-1.9138,-1.9299,-1.9424,-1.9424,-1.9424,0.0,0.0,0.0,0.0,0.0,-1.9424,-1.9424,0.0,-1.9424,-1.9559,-1.9853,0.0,0.0,0.0,0.0,-2.1109,-2.1109,-2.1109,-2.1109,-2.1109,-2.1109,-2.1109,-2.1109,-2.1109,0.0,0.0,0.0,0.0,0.0,0.0,-2.1109,-2.1109,-2.1109,-2.1853,0.0,0.0,0.0,-2.1109,-2.1109,-2.1109,-2.1109,0.0,0.0,-2.1109,0.0,0.0,-2.1109,-2.1109,-2.1109,-2.1109,-2.1109,-2.1109,-2.1109,-2.1109,-2.1109,-2.1109,-2.1109,-2.1109,-2.1042,-2.0915,-2.1049,-2.1036,0.0,0.0,0.0,-2.1046,-2.0259,-1.9935,-1.9744,-1.7988,-1.7339,-1.7211,-1.6242,-1.5913,-1.5913,0.0,0.0,0.0,0.0,0.0,0.0,0.0,0.0,0.0,0.0,0.0,0.0,0.0,0.0,0.0,0.0,0.0,0.0,0.0,0.0,0.0,0.0,0.0,-1.7582,-1.7582,-1.7582,-1.7582,-1.7582,-1.7629,-1.7809,-1.8069,-1.8417,-1.8711,-1.8998,-1.9259,-1.9424,-1.9424,-1.9424,-1.9424,-1.9424,-1.9424,0.0,0.0,0.0,0.0,0.0,0.0,0.0,0.0,-1.9424,-1.9593,-1.9907,-2.0154,0.0,0.0,0.0,0.0,0.0,-2.1109,-2.1109,-2.1109,-2.1109,-2.1109,-2.1109,-2.1109,0.0,0.0,0.0,0.0,0.0,0.0,-2.1109,0.0,0.0,0.0,0.0,-2.1109,-2.1109,-2.1109,-2.1109,-2.1109,0.0,-2.1109,-2.1109,-2.1109,0.0,0.0,-2.1109,-2.1109,-2.1109,-2.1109,-2.1109,-2.0849,-2.0696,-2.065,-2.0916,-2.1042,-2.1042,-2.0995,-2.0717,-2.0299,-2.0536,-2.0328,-1.9927,0.0,0.0,-2.0138,-1.8686,-1.8116,-1.7923,-1.6172,-1.5529,-1.5464,-1.5204,-1.5139,-1.5139,0.0,0.0,0.0,0.0,0.0,0.0,0.0,0.0,0.0,0.0,0.0,0.0,0.0,0.0,0.0,0.0,0.0,0.0,0.0,0.0,0.0,0.0,-1.7722,-1.7582,-1.7582,-1.7582,-1.7582,-1.7582,-1.7849,-1.8075,-1.843,-1.8724,-1.9018,-1.9299,-1.9403,-1.9424,-1.9424,-1.9424,-1.9424,-1.9424,-1.9424,0.0,0.0,0.0,0.0,0.0,0.0,0.0,0.0,-1.9424,-1.9726,-2.0174,-2.0221,0.0,0.0,0.0,0.0,0.0,-2.1109,-2.1109,-2.1109,-2.1109,-2.1109,-2.1109,-2.1109,0.0,0.0,0.0,0.0,0.0,0.0,-2.1109,-2.1109,0.0,0.0,-2.1109,0.0,0.0,-2.1109,-2.1109,0.0,-2.1109,-2.1109,-2.1109,0.0,0.0,0.0,-2.1109,-2.1109,-2.1109,-2.1109,-2.1109,-1.968,-1.8852,-1.8749,-2.0093,-2.0742,-2.0742,-2.0488,-1.9649,-1.8355,-1.8397,-1.7652,-1.6323,0.0,-1.6519,-1.6535,-1.6353,-1.6302,-1.6108,-1.4362,-1.3713,-1.3517,-1.2022,-1.1505,-1.1505,0.0,0.0,0.0,0.0,0.0,0.0,0.0,0.0,0.0,0.0,0.0,0.0,0.0,0.0,0.0,0.0,0.0,0.0,0.0,0.0,0.0,-1.829,-1.815,-1.7996,-1.7836,-1.7836,-1.7916,-1.8076,-1.8217,-1.8437,-1.8731,-1.9025,-1.9239,-1.9424,-1.9424,-1.9424,-1.9424,-1.9424,-1.9424,-1.9424,0.0,0.0,0.0,0.0,0.0,0.0,0.0,0.0,0.0,0.0,-1.9753,-2.0173,-2.0173,0.0,0.0,0.0,0.0,0.0,-2.1109,-2.1109,-2.1109,-2.1109,-2.1109,-2.1109,-2.1109,0.0,0.0,0.0,0.0,0.0,0.0,0.0,-2.1109,-2.1109,0.0,-1.968,-1.968,-1.8896,-1.8314,0.0,0.0,-1.8314,-1.8314,-1.8314,0.0,0.0,0.0,0.0,-1.8314,-1.8314,-1.8314,-1.8314,-1.7538,-1.7026,-1.6913,-1.7474,-1.7789,-1.7857,-1.774,-1.7177,-1.637,-1.6501,-1.6121,-1.5222,0.0,-1.5701,-1.5658,-1.4854,-1.4488,-1.4293,-1.2606,-1.1894,-1.1828,-1.0979,-1.0721,-1.0721,0.0,0.0,0.0,0.0,0.0,0.0,0.0,0.0,0.0,0.0,0.0,0.0,0.0,0.0,0.0,0.0,0.0,0.0,0.0,0.0,-1.8664,-1.8597,-1.8591,-1.845,-1.8102,-1.8095,-1.8263,-1.849,-1.8557,-1.8738,-1.9032,-1.9259,-1.9424,-1.9424,-1.9424,-1.9406,-1.9466,-1.9466,-1.9506,-1.9566,0.0,0.0,0.0,0.0,0.0,0.0,0.0,0.0,0.0,0.0,0.0,0.0,0.0,0.0,0.0,-2.1109,-2.1109,-2.1109,-2.1109,-2.1109,-2.1109,-2.1109,0.0,-2.0982,-2.0589,0.0,0.0,0.0,0.0,0.0,0.0,-1.9871,0.0,-1.9871,-1.8768,-1.7859,-1.7859,-1.6754,-1.5913,-1.5913,-1.5913,-1.5913,-1.5913,0.0,0.0,0.0,0.0,0.0,-1.5913,-1.5913,-1.5913,-1.5913,-1.5529,-1.5203,-1.5062,-1.4461,-1.4548,-1.5371,-1.532,-1.4957,-1.4372,-1.46,-1.4401,-1.3784,-1.4254,-1.4433,-1.4325,-1.3162,-1.2672,-1.2545,-1.124,-1.0721,-1.0721,-1.0721,-1.0721,-1.0721,0.0,0.0,0.0,0.0,0.0,0.0,0.0,0.0,0.0,0.0,0.0,0.0,0.0,0.0,0.0,0.0,0.0,0.0,0.0,0.0,-1.9178,-1.8905,-1.8891,-1.8758,-1.8464,-1.8457,-1.847,-1.849,-1.8764,-1.9045,-1.9332,-1.9417,-1.9424,-1.9424,-1.9424,-1.9512,-1.9766,-1.9766,-1.992,-2.0147,-1.9873,0.0,0.0,0.0,0.0,0.0,0.0,0.0,0.0,0.0,0.0,0.0,0.0,0.0,-2.1109,-2.1109,-2.1109,-2.1109,-2.1109,-2.1109,-2.1109,-2.1109,-2.1109,0.0,-1.9094,-1.8704,0.0,0.0,0.0,0.0,0.0,-1.6237,-1.6237,-1.6237,-1.6172,-1.6108,-1.6108,0.0,-1.5913,-1.5913,-1.5913,-1.5913,-1.5913,0.0,0.0,0.0,0.0,0.0,-1.5913,-1.5913,-1.5913,-1.5913,-1.4358,-1.3345,-1.3111,-1.1474,-1.2132,-1.5014,-1.4806,-1.3863,-1.2414,-1.2427,-1.1587,-1.0214,-1.0535,-1.0672,-1.0693,-1.0861,-1.0916,-1.085,-1.0721,-1.0721,-1.0721,-1.0721,-1.0721,-1.0721,0.0,0.0,0.0,0.0,0.0,0.0,0.0,0.0,0.0,0.0,0.0,0.0,0.0,0.0,0.0,0.0,0.0,0.0,0.0,0.0,-1.9319,-1.9205,-1.9199,-1.9145,-1.9038,-1.8851,-1.8851,-1.9038,-1.9145,-1.9259,-1.9424,-1.9424,-1.9424,-1.9424,-1.9424,-1.9533,-1.98,-1.98,-1.9967,-2.016,-2.0114,-1.996,0.0,0.0,0.0,0.0,0.0,0.0,0.0,0.0,-1.9993,-2.0287,0.0,-2.0875,-2.1109,-2.1109,-2.0329,-1.9483,-1.9483,-1.8704,-1.7859,-1.7859,-1.7859,0.0,0.0,0.0,0.0,0.0,0.0,0.0,0.0,0.0,-1.5913,-1.5913,-1.5009,-1.4297,-1.4297,-1.3325,-1.2672,-1.2672,-1.2672,-1.2672,0.0,0.0,0.0,0.0,0.0,0.0,-1.2672,-1.2672,-1.2672,-1.2672,-1.2022,-1.1544,-1.1285,-1.0658,-1.0775,-1.1776,-1.1647,-1.1318,-1.0721,-1.0721,-1.0415,-0.9913,-1.0188,-1.0331,-1.0429,-1.0636,-1.0721,-1.0721,-1.0721,-1.0721,-1.0721,-1.0721,-1.0721,-1.0721,0.0,0.0,0.0,0.0,0.0,0.0,0.0,0.0,0.0,0.0,0.0,0.0,0.0,0.0,0.0,0.0,0.0,0.0,0.0,-1.9424,-1.9424,-1.9424,-1.9424,-1.9424,-1.9424,-1.9165,-1.9165,-1.9424,-1.9424,-1.9424,-1.9424,-1.9424,-1.9424,-1.9424,-1.9424,-1.9533,-1.98,-1.98,-2.002,-2.0368,-2.0267,-2.0167,0.0,0.0,0.0,0.0,0.0,0.0,0.0,0.0,-1.8588,0.0,0.0,0.0,0.0,0.0,-1.9419,-1.8378,-1.7859,-1.6824,-1.5913,-1.5913,0.0,0.0,0.0,0.0,0.0,0.0,0.0,0.0,0.0,0.0,0.0,0.0,-1.3259,-1.2479,-1.2479,-1.1439,-1.0721,-1.0721,-1.0721,-1.0721,0.0,0.0,0.0,0.0,0.0,0.0,0.0,-1.0721,-1.0721,-1.0721,-1.0721,-1.0578,-1.0283,-1.028,-1.0127,-0.9822,-0.9822,-0.9822,-0.9822,-0.9869,-0.9889,-0.9997,-1.0259,-1.0402,-1.0504,-1.0656,-1.0721,-1.0721,-1.0721,-1.0721,-1.0721,-1.0721,-1.0721,-1.0721,0.0,0.0,0.0,0.0,0.0,0.0,0.0,0.0,0.0,0.0,0.0,0.0,0.0,0.0,0.0,0.0,0.0,0.0,-1.9424,-1.9424,-1.9424,-1.9424,-1.9424,-1.9424,-1.9424,-1.9424,-1.9424,-1.9424,-1.9424,-1.9424,-1.9424,-1.9424,-1.9424,-1.9424,-1.9424,-1.9533,-1.98,-1.98,-2.0134,-2.0648,-2.0354,-2.0408,-2.0641,0.0,0.0,0.0,0.0,0.0,0.0,0.0,-1.5526,-1.5879,0.0,0.0,0.0,0.0,-1.8442,-1.8052,-1.6366,-1.5848,-1.5848,0.0,0.0,0.0,0.0,0.0,0.0,0.0,0.0,-1.0721,-1.0721,0.0,0.0,-1.0721,-1.0721,-1.0721,-1.0721,-1.0721,-1.0721,-1.0721,-1.0721,-1.0721,0.0,0.0,0.0,0.0,0.0,0.0,0.0,-1.0721,-1.0721,-1.0721,-1.0721,-1.0578,-1.0287,-1.0283,-1.0127,-0.9825,-0.9825,-0.9825,-0.9829,-0.992,-0.9987,-1.0007,-1.0365,-1.049,-1.0507,-1.0656,-1.0721,-1.0721,-1.0721,-1.0721,-1.0721,-1.0721,-1.0721,-1.0721,0.0,0.0,0.0,0.0,0.0,0.0,0.0,0.0,0.0,0.0,0.0,0.0,0.0,0.0,0.0,0.0,0.0,0.0,-1.9424,-1.9424,-1.9424,-1.9424,-1.9424,-1.9424,-1.9424,-1.9424,-1.9424,-1.9424,-1.9424,-1.9424,-1.9424,-1.9424,-1.9424,-1.9424,-1.9424,-1.9533,-1.98,-1.98,-2.002,-2.0374,-2.0494,-2.0474,-2.0252,0.0,0.0,0.0,0.0,0.0,0.0,0.0,0.0,0.0,0.0,0.0,0.0,-1.6689,-1.5789,-1.4749,-1.4232,-1.3193,0.0,-1.2215,0.0,0.0,0.0,0.0,0.0,0.0,0.0,-1.0721,-1.0721,0.0,0.0,-1.0721,-1.0721,-1.0721,-1.0721,-1.0721,-1.0721,-1.0721,-1.0721,0.0,0.0,0.0,0.0,0.0,0.0,0.0,0.0,-1.0721,-1.0721,-1.0721,-1.0721,-1.0626,-1.0429,-1.0429,-1.0334,-1.0144,-1.0144,-1.0086,-0.992,-0.9967,-1.0098,-1.0365,-1.0453,-1.0555,-1.0656,-1.07,-1.0721,-1.0721,-1.0721,-1.0721,-1.0721,-1.0721,-1.0721,-1.0518,0.0,0.0,0.0,0.0,0.0,0.0,0.0,0.0,0.0,0.0,0.0,0.0,0.0,0.0,0.0,0.0,0.0,0.0,0.0,0.0,-2.0033,-1.9424,-1.9424,-1.9424,-1.9424,-1.9424,-1.9424,-1.9424,-1.9424,-1.9424,-1.9424,-1.9424,-1.9424,-1.9424,-1.9424,-1.9466,-1.9626,-1.9626,-1.98,-2.0087,-2.0381,-2.0461,-2.025,0.0,0.0,0.0,0.0,0.0,0.0,0.0,0.0,0.0,0.0,0.0,0.0,-1.4879,-1.4101,-1.3128,-1.2479,-1.1501,0.0,-1.0721,-1.0721,-1.0721,-1.0721,0.0,0.0,0.0,0.0,-1.0721,-1.0721,-1.0721,0.0,-1.0721,-1.0721,-1.0721,-1.0721,-1.0721,-1.0721,-1.0721,-1.0721,0.0,0.0,0.0,0.0,0.0,0.0,0.0,0.0,-1.0721,-1.0721,-1.0721,-1.0721,-1.0646,-1.0493,-1.049,-1.0422,-1.028,-1.028,-1.0259,-1.0226,-1.0226,-1.0321,-1.0493,-1.0558,-1.0633,-1.0721,-1.0721,-1.0721,-1.0721,-1.0721,-1.0246,-0.9643,-0.9643,-0.9175,-0.8437,0.0,0.0,0.0,0.0,0.0,0.0,0.0,0.0,0.0,0.0,0.0,0.0,0.0,0.0,0.0,0.0,0.0,0.0,0.0,0.0,-2.0973,-1.9649,-1.9482,-1.9424,-1.9424,-1.9424,-1.9424,-1.9424,-1.9424,-1.9424,-1.9424,-1.9424,-1.9424,-1.9424,-1.9424,-1.9424,-1.9424,-1.9424,-1.9533,-1.9826,-2.0114,-2.0408,-2.0515,-1.8864,0.0,0.0,0.0,0.0,0.0,0.0,0.0,0.0,-1.2545,-1.3062,-1.3062,-1.3062,-1.3062,-1.2738,-1.1111,-1.0721,0.0,-1.0721,-1.0721,0.0,-1.0721,-1.0721,-1.0721,-1.0721,0.0,-1.0721,-1.0721,-1.0721,-1.0721,-1.0721,-1.0721,-1.0721,-1.0721,-1.0721,-1.0721,-1.0721,0.0,0.0,0.0,0.0,0.0,0.0,0.0,0.0,0.0,-1.0721,-1.0721,-1.0721,-1.0721,-1.0653,-1.0514,-1.0514,-1.0449,-1.0321,-1.0321,-1.0324,-1.0312,-1.0432,-1.05,-1.0521,-1.066,-1.0721,-1.0721,-1.0721,-1.0585,-1.0452,-1.0452,-0.9374,-0.7764,-0.7764,-0.6762,-0.5364,0.0,0.0,0.0,0.0,0.0,0.0,0.0,0.0,0.0,0.0,0.0,0.0,0.0,0.0,0.0,0.0,0.0,0.0,0.0,0.0,-2.1472,-2.1145,-2.0033,-1.9424,-1.9424,-1.9424,-1.9424,-1.9424,-1.9424,-1.9424,-1.9424,-1.9424,-1.9424,-1.9424,-1.9424,-1.9424,-1.9424,-1.9424,-1.9533,-1.9826,-2.0114,-2.0408,-2.0391,-1.7571,-1.6237,0.0,0.0,0.0,0.0,0.0,0.0,0.0,-1.1111,-1.124,-1.124,-1.124,-1.124,-1.1178,-1.0784,-1.0721,0.0,0.0,-1.0721,-1.0721,-1.0721,-1.0721,-1.0721,-1.0721,-1.0721,-1.0721,-1.0721,-1.0721,-1.0721,-1.0721,-1.0721,-1.0721,-1.0721,-1.0721,-1.0721,-1.0721,0.0,0.0,0.0,0.0,0.0,0.0,0.0,0.0,-1.0721,-1.0721,-1.0721,-1.0721,-1.0721,-1.0704,-1.067,-1.067,-1.0656,0.0,-1.0626,-0.9905,-0.859,-0.9882,-1.0558,-1.0673,-1.0707,-1.0721,-1.0721,-1.0721,-0.9845,-0.8568,-0.8568,-0.7498,-0.5964,-0.5964,-0.5696,-0.523,0.0,0.0,0.0,0.0,0.0,0.0,0.0,0.0,0.0,0.0,0.0,0.0,0.0,0.0,0.0,0.0,0.0,0.0,0.0,0.0,0.0,-2.1635,-2.0206,-1.9424,-1.9424,-1.9424,-1.9424,-1.9424,-1.9424,-1.9424,0.0,0.0,0.0,-1.9424,0.0,-1.9424,-1.9437,-1.9512,-1.9659,-1.984,-2.0274,-2.0541,-2.0322,-1.7123,-1.5913,-1.5459,-1.1956,0.0,0.0,0.0,0.0,0.0,0.0,0.0,-1.0721,-1.0721,-1.0721,-1.0721,-1.0721,0.0,0.0,-1.0721,0.0,-1.0721,-1.0721,-1.0047,-0.9374,-0.9374,-1.0114,-1.0721,-1.0721,-1.0721,-1.0721,-1.0721,-1.0721,-1.0721,-1.0721,-1.0721,-1.0721,-1.0721,0.0,0.0,0.0,0.0,0.0,0.0,0.0,-1.0721,-1.0721,-1.0721,-1.0316,-0.944,-0.9374,-0.9039,-0.8171,-0.8171,-0.8171,-0.8171,-0.8171,-0.7636,-0.6762,-0.7641,-0.8114,-0.8171,-0.8171,-0.8171,-0.8171,-0.8171,-0.7633,-0.6762,-0.6762,-0.5694,-0.4092,-0.4092,-0.3556,-0.2685,0.0,0.0,0.0,0.0,0.0,0.0,0.0,0.0,0.0,0.0,0.0,0.0,0.0,0.0,0.0,0.0,0.0,0.0,0.0,0.0,0.0,0.0,-2.0206,-1.9424,-1.9424,-1.9424,-1.9424,-1.9424,0.0,0.0,0.0,0.0,0.0,-1.9424,0.0,-1.9457,-1.9459,-1.97,-1.986,-1.9993,-2.0481,-2.0708,-2.0394,-1.7134,-1.5913,-1.5459,-1.1956,-1.0721,-1.0721,-1.0721,0.0,0.0,0.0,0.0,-1.0721,-1.0721,-1.0721,-1.0721,-1.0721,0.0,-1.018,-0.9848,-0.9782,0.0,-0.9782,-0.8637,-0.7564,-0.7564,-0.877,-0.9782,-0.9782,-0.9782,-0.9782,-0.9782,-0.9782,-0.9782,-0.9782,-0.9782,-0.9782,-0.9782,0.0,0.0,0.0,0.0,0.0,0.0,0.0,-0.9782,-0.9782,-0.9782,-0.9108,-0.7631,-0.7564,-0.6829,-0.5431,-0.5431,-0.5431,-0.5364,-0.5095,-0.4961,-0.4896,-0.4626,-0.4827,-0.5431,-0.5431,-0.5431,-0.5431,-0.5431,-0.5228,-0.4961,-0.4961,-0.3824,-0.2216,-0.2216,-0.1277,0.0,0.0,0.0,0.0,0.0,0.0,0.0,0.0,0.0,0.0,0.0,0.0,0.0,0.0,0.0,0.0,0.0,0.0,0.0,-2.9162,0.0,0.0,-2.1707,-2.0206,-1.9424,-1.9424,-1.9424,-1.9424,-1.9424,0.0,0.0,0.0,0.0,0.0,-1.9424,0.0,0.0,-1.9746,-1.978,-2.0094,-2.0568,-2.0641,-2.0828,-2.0663,-1.72,-1.5913,-1.5459,-1.1956,-1.0721,-1.0721,-1.0721,-1.0721,0.0,0.0,0.0,-1.0721,-1.0721,-1.0721,-1.0721,0.0,0.0,-0.7966,0.0,-0.6099,-0.6099,0.0,0.0,-0.5763,0.0,-0.5965,-0.6099,-0.6099,-0.6099,-0.6099,-0.6099,-0.6099,-0.6099,-0.6099,-0.6099,-0.6099,-0.6099,0.0,0.0,0.0,0.0,0.0,0.0,-0.6099,-0.6099,-0.6099,-0.6099,-0.5964,-0.5763,-0.5763,-0.5629,-0.5431,-0.5431,-0.5431,-0.5364,-0.3824,-0.3087,-0.3021,-0.1411,-0.2417,-0.5431,-0.5431,-0.5431,-0.5431,-0.5431,-0.4492,-0.3087,-0.3087,-0.1948,-0.0336,-0.0336,-0.0202,0.0,0.0,0.0,0.0,0.0,0.0,0.0,0.0,0.0,0.0,0.0,0.0,0.0,0.0,0.0,0.0,-2.9551,-2.9626,-2.9626,-2.9626,-2.7156,-2.4981,-2.3285,-2.1583,-2.0256,-1.9424,-1.9424,-1.9424,0.0,0.0,0.0,0.0,-1.9424,-1.9424,0.0,0.0,0.0,0.0,-2.0154,-2.0441,-2.0688,-2.0855,-2.0995,-2.0849,-1.8314,-1.6759,-1.5589,-1.3062,-1.1501,-1.0721,-1.0721,-1.0721,-1.0721,-1.0721,0.0,0.0,0.0,-1.0721,-1.0452,-0.944,-0.79,-0.6364,0.0,-0.5431,-0.5431,-0.5431,0.0,-0.389,-0.389,-0.3087,-0.3021,-0.5029,-0.5431,-0.5431,-0.5431,-0.5431,-0.5431,-0.5431,-0.5431,-0.5431,-0.5431,0.0,0.0,0.0,0.0,0.0,0.0,-0.5431,-0.5431,-0.5431,-0.5431,-0.4961,-0.3891,-0.389,-0.3422,-0.2417,-0.235,-0.235,-0.235,-0.1545,-0.121,-0.1143,-0.0336,-0.0874,-0.235,-0.235,-0.235,-0.235,-0.235,-0.1881,-0.121,-0.121,-0.0673,0.0,0.0,0.0,0.0,0.0,0.0,0.0,0.0,0.0,0.0,0.0,0.0,0.0,0.0,0.0,0.0,0.0,0.0,0.0,0.0,-2.9902,-2.9853,-2.9736,-2.8042,-2.6293,-2.4546,-2.2749,-2.1003,-1.9424,-1.9424,0.0,0.0,0.0,0.0,-1.9424,-1.9424,-1.9464,0.0,-1.97,-1.984,0.0,0.0,0.0,0.0,0.0,-2.1109,-2.0912,-1.9158,-1.7404,-1.5654,-1.3905,-1.2153,-1.0721,-1.0721,-1.0721,-1.0721,-1.0721,-1.0721,0.0,0.0,0.0,0.0,0.0,0.0,-0.4626,-0.4158,-0.4024,-0.4024,0.0,0.0,-0.2015,0.0,-0.0941,-0.0807,-0.3556,-0.4024,-0.4024,-0.4024,-0.4024,-0.4024,-0.4024,-0.4024,-0.4024,0.0,0.0,0.0,0.0,0.0,0.0,0.0,-0.4024,-0.4024,-0.4024,-0.4024,-0.3422,-0.2082,-0.2015,-0.1344,0.0,0.0,0.0,0.0,0.0,0.0,0.0,0.0,0.0,0.0,0.0,0.0,0.0,0.0,0.0,0.0,0.0,0.0,0.0,0.0,0.0,0.0,0.0,0.0,0.0,0.0,0.0,0.0,0.0,0.0,0.0,0.0,0.0,0.0,-3.0117,-3.0166,-3.0342,-3.0781,-3.082,-3.0635,-3.0195,-2.879,-2.6916,-2.4628,-2.3025,0.0,-1.943,-1.9424,0.0,0.0,0.0,0.0,-1.9424,-1.9424,-1.9512,-1.978,-1.9793,-1.9953,-2.0227,0.0,0.0,0.0,0.0,0.0,0.0,-1.9158,-1.7404,-1.5654,-1.3905,-1.2153,-1.0721,-1.0721,-1.0721,-1.0721,-1.0721,-1.0721,-1.0382,0.0,0.0,0.0,0.0,-0.2886,0.0,-0.074,-0.0269,0.0,0.0,0.0,-0.0135,-0.0135,-0.0067,-0.0067,-0.0269,-0.0269,-0.0269,-0.0269,-0.0269,-0.0269,-0.0269,-0.0269,-0.0269,0.0,0.0,0.0,0.0,0.0,0.0,0.0,-0.0269,-0.0269,-0.0269,-0.0269,-0.0269,-0.0135,-0.0135,-0.0067,0.0,0.0,0.0,0.0,0.0,0.0,0.0,0.0,0.0,0.0,0.0,0.0,0.0,0.0,0.0,0.0,0.0,0.0,0.0,0.0,0.0,0.0,0.0,0.0,0.0,0.0,0.0,0.0,0.0,0.0,0.0,0.0,0.0,0.0,0.0,-3.0644,-3.0713,-3.0879,-3.0889,-3.082,-3.0654,-2.9882,-2.8168,-2.5311,-2.421,-2.2424,-1.9705,-1.9459,0.0,0.0,0.0,-1.9424,-1.9424,-1.9424,-1.9519,-1.9806,-1.9993,-2.0241,-2.0535,-2.0828,0.0,0.0,0.0,0.0,0.0,0.0,0.0,0.0,0.0,0.0,-1.0721,-1.0721,-1.0721,-1.0721,-1.0721,-1.0721,-1.0316,-0.8501,-0.596,0.0,0.0,0.0,0.0,-0.0135,0.0,0.0,0.0,0.0,0.0,0.0,0.0,0.0,0.0,0.0,0.0,0.0,0.0,0.0,0.0,0.0,0.0,0.0,0.0,0.0,0.0,0.0,0.0,0.0,0.0,0.0,0.0,0.0,0.0,0.0,0.0,0.0,0.0,0.0,0.0,0.0,0.0,0.0,0.0,0.0,0.0,0.0,0.0,0.0,0.0,0.0,0.0,0.0,0.0,0.0,0.0,0.0,0.0,0.0,0.0,0.0,0.0,0.0,0.0,0.0,0.0,0.0,0.0,0.0,0.0,0.0,0.0,0.0,-3.0889,-3.0889,-3.0889,-3.0889,-3.0889,-3.0605,-2.8986,-2.5753,-2.5102,-2.3232,-1.9859,0.0,0.0,0.0,0.0,0.0,0.0,-1.9424,-1.9573,-1.9953,-2.0147,-2.0401,0.0,0.0,0.0,-2.1109,0.0,0.0,-2.0976,0.0,0.0,0.0,0.0,0.0,-1.0721,-1.0721,-1.0721,-1.0721,-1.0721,-0.9915,-0.8706,0.0,0.0,0.0,-0.1814,0.0,0.0,0.0,0.0,0.0,0.0,0.0,0.0,0.0,0.0,0.0,0.0,0.0,0.0,0.0,0.0,0.0,0.0,0.0,0.0,0.0,0.0,0.0,0.0,0.0,0.0,0.0,0.0,0.0,0.0,0.0,0.0,0.0,0.0,0.0,0.0,0.0,0.0,0.0,0.0,0.0,0.0,0.0,0.0,0.0,0.0,0.0,0.0,0.0,0.0,0.0,0.0,0.0,0.0,0.0,0.0,0.0,0.0,0.0,0.0,0.0,0.0,0.0,0.0,0.0,0.0,0.0,0.0,0.0,0.0,0.0,0.0,-3.0889,-3.0889,-3.0889,-3.0889,-3.0889,-2.9303,-2.5779,-2.5559,-2.3691,-1.9886,0.0,0.0,0.0,0.0,0.0,0.0,0.0,-1.9686,-2.0173,-2.0241,-2.0408,-2.0708,0.0,-2.1109,-2.1109,0.0,-2.1109,-2.1109,0.0,0.0,0.0,-1.5784,-1.3582,0.0,-1.0721,0.0,0.0,0.0,0.0,0.0,0.0,0.0,0.0,0.0,0.0,0.0,0.0,0.0,0.0,0.0,0.0,0.0,0.0,0.0,0.0,0.0,0.0,0.0,0.0,0.0,0.0,0.0,0.0,0.0,0.0,0.0,0.0,0.0,0.0,0.0,0.0,0.0,0.0,0.0,0.0,0.0,0.0,0.0,0.0,0.0,0.0,0.0,0.0,0.0,0.0,0.0,0.0,0.0,0.0,0.0,0.0,0.0,0.0,0.0,0.0,0.0,0.0,0.0,0.0,0.0,0.0,0.0,0.0,0.0,0.0,0.0,0.0,0.0,0.0,0.0,0.0,0.0,0.0,-3.0889,-3.0889,-3.0889,-3.0889,-3.0889,-3.0889,-3.0889,-3.0889,-2.9425,-2.6017,-2.5631,-2.38,-2.0181,0.0,0.0,0.0,0.0,0.0,0.0,0.0,0.0,0.0,-2.0454,-2.0715,-2.0995,-2.1076,0.0,-2.1109,-2.1109,-2.1109,0.0,0.0,0.0,0.0,0.0,-1.1501,-1.0721,0.0,-1.0721,-1.0721,0.0,0.0,0.0,0.0,0.0,0.0,0.0,0.0,0.0,0.0,0.0,0.0,0.0,0.0,0.0,0.0,0.0,0.0,0.0,0.0,0.0,0.0,0.0,0.0,0.0,0.0,0.0,0.0,0.0,0.0,0.0,0.0,0.0,0.0,0.0,0.0,0.0,0.0,0.0,0.0,0.0,0.0,0.0,0.0,0.0,0.0,0.0,0.0,0.0,0.0,0.0,0.0,0.0,0.0,0.0,0.0,0.0,0.0,0.0,0.0,0.0,0.0,0.0,0.0,0.0,0.0,0.0,0.0,0.0,0.0,0.0,0.0,0.0,0.0,0.0,0.0,0.0,0.0,-3.0889,-3.0889,-3.0889,-3.0889,-3.0889,-3.0889,-2.9412,-2.6158,-2.583,-2.3995,-2.0301,0.0,0.0,0.0,0.0,0.0,0.0,0.0,0.0,0.0,0.0,0.0,0.0,0.0,0.0,0.0,-2.1109,0.0,0.0,-1.8058,-1.6496,0.0,0.0,0.0,-1.0721,-1.0721,-1.0721,0.0,0.0,0.0,0.0,0.0,0.0,0.0,0.0,0.0,0.0,0.0,0.0,0.0,0.0,0.0,0.0,0.0,0.0,0.0,0.0,0.0,0.0,0.0,0.0,0.0,0.0,0.0,0.0,0.0,0.0,0.0,0.0,0.0,0.0,0.0,0.0,0.0,0.0,0.0,0.0,0.0,0.0,0.0,0.0,0.0,0.0,0.0,0.0,0.0,0.0,0.0,0.0,0.0,0.0,0.0,0.0,0.0,0.0,0.0,0.0,0.0,0.0,0.0,0.0,0.0,0.0,0.0,0.0,0.0,0.0,0.0,0.0,0.0,0.0,0.0,0.0,0.0,0.0,0.0,0.0,0.0,-3.0889,-3.0889,-3.0889,-3.0889,-2.9412,-2.6158,-2.5976,-2.4205,-2.0301,0.0,0.0,0.0,0.0,0.0,0.0,0.0,0.0,0.0,0.0,0.0,0.0,0.0,0.0,-2.1109,-2.1109,-2.1109,0.0,0.0,-1.7275,-1.5659,-1.3713,-1.2025,-1.0721,-1.0721,-1.0721,0.0,0.0,0.0,0.0,0.0,-0.2953,0.0,0.0,0.0,0.0,0.0,0.0,0.0,0.0,0.0135,0.0269,0.0,0.0471,0.0605,0.0605,0.0605,0.0605,0.0605,0.0404,0.0202,0.0,0.0,0.0,0.0,0.0,0.0,0.0,0.0,0.0,0.0,0.0,0.0,0.0,0.0,0.0,0.0,0.0,0.0,0.0,0.0,0.0,0.0,0.0,0.0,0.0,0.0,0.0,0.0,0.0,0.0,0.0,0.0,0.0,0.0,0.0,0.0,0.0,0.0,0.0,0.0,-2.8291,0.0,0.0,0.0,0.0,0.0,0.0,0.0,0.0,0.0,0.0,0.0,0.0,0.0,0.0,0.0,-3.0889,-3.0889,-3.0889,-3.0889,-2.9412,-2.6158,-2.5976,-2.4205,-2.0301,-2.0414,0.0,0.0,0.0,0.0,0.0,0.0,0.0,0.0,0.0,0.0,0.0,0.0,0.0,-2.1109,-2.1109,0.0,-2.0779,-1.7602,-1.6172,-1.5459,-1.2347,-1.0979,-1.0721,-1.0721,-1.0721,-1.0721,0.0,0.0,0.0,-0.583,0.0,0.0,0.0,0.0,0.0,0.0,0.0,0.0,0.0,0.1143,0.2149,0.0,0.3355,0.436,0.436,0.436,0.436,0.436,0.3154,0.168,0.0202,0.0,0.0,0.0,0.0,0.0,0.0,0.0,0.0,0.0,0.0,0.0,0.0,0.0,0.0,0.0,0.0,0.0,0.0,0.0,0.0,0.0,0.0,0.0,0.0,0.0,0.0,0.0,0.0,0.0,0.0,0.0,0.0,0.0,0.0,0.0,0.0,0.0,0.0,0.0,-2.8291,0.0,0.0,0.0,0.0,0.0,0.0,0.0,0.0,0.0,0.0,0.0,0.0,0.0,0.0,0.0,0.0,0.0,0.0,0.0,-2.8545,-2.6098,-2.5253,-2.345,-2.0522,-2.0601,0.0,0.0,0.0,0.0,0.0,0.0,0.0,0.0,0.0,0.0,0.0,0.0,-2.1109,-2.1109,-2.1109,0.0,-2.0716,-1.7211,-1.5913,-1.5459,-1.1956,-1.0721,-1.0721,-1.0721,-1.0721,0.0,0.0,-0.944,-0.7631,0.0,-0.4091,-0.2283,0.0,0.0,0.0,0.0,0.0,0.0,0.0,0.2082,0.2953,0.389,0.4762,0.5431,0.5431,0.5431,0.5431,0.5431,0.4628,0.3756,0.2819,0.1143,0.0,0.0,0.0,0.0,0.0,0.0,0.0,0.0,0.0,0.0,0.0,0.0,0.0,0.0,0.0,0.0,0.0,0.0,0.0,0.0,0.0,0.0,0.0,0.0,0.0,0.0,0.0,0.0,0.0,0.0,0.0,0.0,0.0,0.0,0.0,0.0,0.0,0.0,-2.8291,0.0,0.0,0.0,0.0,0.0,0.0,0.0,0.0,0.0,0.0,0.0,0.0,0.0,0.0,0.0,0.0,0.0,0.0,0.0,0.0,-2.5619,-2.4294,-2.2689,-2.0743,-2.0728,-2.0615,0.0,0.0,0.0,0.0,0.0,0.0,0.0,0.0,0.0,0.0,0.0,0.0,-2.1046,0.0,-2.0786,-2.0716,-1.7211,-1.5913,-1.5459,-1.1956,-1.0721,-1.0721,-1.0721,-1.0721,-1.0721,-1.0721,-0.9709,0.0,0.0,0.0,0.0,0.0,0.0,0.0,0.0,0.0,0.0404,0.0,0.0,0.0,0.5095,0.5965,0.6433,0.0,0.0,0.0,0.0,0.0,0.0,0.0,0.3082,0.0,0.1008,0.0,0.0,0.0538,0.0538,0.0404,0.0,0.0336,0.0336,0.0,0.0,0.0,0.0,0.0,0.0,0.0,0.0,0.0,0.0,0.0,0.0,0.0,0.0,0.0,0.0,0.0336,0.0538,0.0538,0.0874,0.1008,0.0941,0.0269,0.0202,0.0471,0.0135,0.0202,0.0538,-2.8291,-2.8594,0.0,0.0,0.0,0.0,0.0,0.0,0.0,0.0,0.0,0.0,0.0,0.0,0.0,0.0,0.0,0.0,-2.8783,0.0,0.0,0.0,-2.3698,-2.2689,-2.0743,-2.0929,-2.0915,0.0,0.0,0.0,0.0,0.0,0.0,0.0,-2.1109,0.0,0.0,0.0,-2.1109,0.0,-1.9413,-1.9737,0.0,-1.7211,-1.5913,-1.5459,-1.1956,-1.0721,-1.0721,0.0,-1.0721,-1.0721,0.0,-1.0585,-0.9712,-0.6366,0.0,0.0,0.0,0.0,0.0,0.0,0.0,0.0,0.0,0.0,0.5163,0.5364,0.0,0.0,0.0,0.0,0.0,0.0,0.0,0.0,0.7575,0.5918,0.4762,0.4762,0.3355,0.0,0.0,0.2417,0.1747,0.0135,0.1478,0.168,0.0067,0.0,0.0,0.0,0.0,0.0,0.0,0.0,0.0,0.0,0.0,0.0,0.0,0.0,0.0,0.0067,0.168,0.2417,0.2551,0.4158,0.4762,0.4492,0.1277,0.1009,0.2216,0.0605,0.1008,0.2417,-2.834,-2.8633,0.0,0.0,0.0,0.0,0.0,0.0,0.0,0.0,0.0,0.0,0.0,0.0,0.0,0.0,0.0,-3.0206,0.0,0.0,0.0,0.0,-2.2654,-2.179,-2.0929,-2.1049,-2.1049,-2.0929,-2.1049,0.0,0.0,0.0,0.0,0.0,-2.0062,0.0,-1.961,0.0,-1.961,0.0,0.0,0.0,0.0,-1.5719,-1.3779,-1.2672,-1.1244,-1.0721,-1.0721,0.0,-1.0721,0.0,0.0,0.0,0.0,0.0,0.0,0.0,0.0,0.0,0.0,0.0,0.0,0.0,0.1344,0.0,0.4426,0.0,0.0,0.0,0.0,0.0,0.0,0.0,1.0006,0.0,0.0,0.0,0.7702,0.0,0.0,0.0,0.0,0.0,0.0,0.0,0.3221,0.3958,0.3154,0.2149,0.1545,0.1545,0.0538,0.0,0.0,0.0,0.0,0.0,0.1075,0.1545,0.1613,0.2685,0.3154,0.3154,0.3958,0.4292,0.4359,0.5095,0.5431,0.523,0.3756,0.3623,0.4158,0.3422,0.3623,0.4292,-2.8701,0.0,0.0,0.0,0.0,0.0,-3.084,-3.0889,-3.0889,0.0,0.0,0.0,-3.0889,-3.0889,0.0,0.0,-3.0889,-3.002,0.0,0.0,-2.5077,0.0,0.0,0.0,0.0,-2.1109,-2.1109,0.0,0.0,0.0,0.0,0.0,0.0,0.0,0.0,-1.7795,-1.7795,0.0,-1.7795,-1.7731,-1.7275,-1.6824,-1.6113,-1.4101,-1.2219,-1.0721,-1.0721,-1.0721,-1.0721,-1.0721,-1.0721,0.0,-1.0721,0.0,0.0,0.0,0.0,0.0,-0.3355,0.0,0.0,0.0,0.0,0.0,0.0,0.0,0.0,0.0,0.0,0.0,0.0,0.0,0.0,0.0,0.0,1.0707,0.0,1.0694,0.0,0.0,0.0,0.0,0.0,0.0,0.0,0.3556,0.5093,0.5897,0.5431,0.4158,0.3422,0.3422,0.2149,0.1478,0.1478,0.1478,0.1478,0.1478,0.2819,0.3422,0.3489,0.4827,0.5431,0.5431,0.5897,0.6097,0.6164,0.6633,0.6833,0.6833,0.6833,0.6851,0.6803,0.5772,0.5711,0.6199,-2.9587,-2.9863,0.0,0.0,0.0,0.0,-3.0889,-3.0889,-3.0889,-3.0889,0.0,0.0,0.0,0.0,0.0,0.0,0.0,-2.954,-2.6288,0.0,-2.4586,0.0,0.0,-2.1109,0.0,0.0,0.0,0.0,0.0,0.0,0.0,0.0,0.0,0.0,0.0,-1.5978,-1.5978,-1.5978,-1.5978,-1.5854,-1.4166,-1.2479,-1.1111,0.0,-1.2219,-1.0721,-1.0721,0.0,0.0,-1.0721,-1.0721,0.0,0.0,0.0,0.0,0.0,0.0,0.0,0.0,0.0,0.0,-0.0471,0.0,0.0,0.0,0.0,0.3221,0.0,0.0,0.0,0.0,0.0,0.0,0.0,0.0,0.0,0.0,0.0,0.0,0.0,0.0,0.0,0.0,0.0,0.7162,0.5429,0.6962,0.7162,0.5498,0.5362,0.5297,0.5297,0.523,0.5228,0.5228,0.5228,0.5228,0.5228,0.5297,0.5297,0.5297,0.5364,0.5431,0.5498,0.7162,0.7897,0.803,0.9779,1.0518,1.0518,1.0518,1.0608,1.0306,0.6734,0.6623,0.8199,0.0,0.0,0.0,0.0,0.0,-3.0889,-3.0889,-3.0889,-3.0889,0.0,-3.0889,0.0,0.0,-3.0889,-3.0889,0.0,0.0,-2.8298,-2.6158,-2.5016,0.0,0.0,0.0,-2.1109,0.0,0.0,0.0,0.0,0.0,0.0,0.0,0.0,0.0,0.0,0.0,-1.4166,0.0,0.0,0.0,0.0,0.0,-1.2285,-1.0784,0.0,-1.124,-1.0721,-1.0721,-1.0721,0.0,-1.0721,-1.0721,-1.0721,-1.0721,-1.0721,-1.0585,-0.9978,-0.8969,0.0,0.0,0.0,-0.2551,-0.1948,0.0,0.0,0.0,0.0,0.0,0.0,0.0,0.0,0.0,0.0,0.0,0.0,0.0,0.0,0.0,0.0,0.0,0.0,0.0,0.0,0.0,0.0,0.0,0.7231,0.877,0.951,0.8909,0.7767,0.7096,0.7096,0.603,0.5431,0.5431,0.5431,0.5431,0.5431,0.6564,0.7096,0.7165,0.8371,0.8909,0.8909,0.951,0.9779,0.9851,1.0558,1.0803,1.088,1.0975,1.1043,1.0933,0.9555,0.952,1.0254,-3.0449,0.0,0.0,0.0,0.0,-3.0889,-3.0889,-3.0889,0.0,0.0,-3.0889,0.0,-3.0889,0.0,-3.002,0.0,-2.8486,-2.6832,-2.5261,-2.4178,0.0,-2.1172,-2.1109,-2.1109,0.0,0.0,0.0,0.0,0.0,-1.961,0.0,0.0,0.0,0.0,0.0,-1.2347,-1.2347,-1.2347,-1.2347,0.0,0.0,-1.1699,0.0,0.0,-1.0721,-1.0721,0.0,-1.0721,-1.0721,-1.0721,-1.0721,-1.0721,-1.0721,-1.0721,-1.0721,-1.0721,-0.9845,-0.8837,-0.8166,-0.5893,0.0,-0.2887,-0.1344,0.0,0.0,0.0,0.0,0.0,0.0,0.0,0.0,0.0,0.0,0.0,0.0,0.0,0.0,1.0721,0.0,0.0,0.0,0.0,0.0,0.0,1.025,0.9036,1.0047,1.0721,0.0,0.0,0.8969,0.8969,0.7902,0.73,0.73,0.73,0.73,0.7303,0.8435,0.8969,0.8969,1.018,1.0721,1.0724,1.0778,1.0802,1.0812,1.0965,1.1026,1.1033,1.1128,1.1196,1.1226,1.1077,1.1118,1.1253,-3.0889,0.0,0.0,0.0,-3.083,0.0,0.0,0.0,-3.0762,0.0,-3.0704,-3.0645,-3.0645,-2.9216,-2.8298,-2.8298,-2.6832,-2.5253,-2.3698,-2.3512,0.0,0.0,-2.1109,-2.1109,-2.1109,0.0,0.0,0.0,0.0,0.0,0.0,0.0,0.0,0.0,-1.1439,0.0,-1.0721,-1.0721,-1.0721,-1.0721,-1.0721,-1.0721,-1.0721,-1.0721,-1.0721,-1.0721,-1.0721,-1.0721,-1.0721,-1.0721,-1.0721,-1.0721,-1.0721,-1.0721,-1.0721,-1.0721,-1.0721,-1.0316,-0.8568,-0.6765,-0.4961,-0.3288,0.0,0.0,0.0,0.0,0.0471,0.0,0.0,0.0,0.0,0.0,0.0,0.0,0.0,0.0,0.0,0.0,0.0,0.0,0.0,0.0,0.0,1.0721,1.0721,1.0721,1.0721,0.0,0.0,0.0,1.0721,1.0721,1.0721,1.0721,1.0721,1.0721,1.0721,1.0721,1.0721,1.0721,1.0721,1.0721,1.0724,1.0741,1.0816,1.0884,1.09,1.1114,1.1241,1.1244,1.1251,1.1274,1.1385,1.124,1.1277,1.1423,-3.0889,-3.0889,-3.0518,0.0,-3.0079,-3.0889,0.0,0.0,0.0,0.0,-2.7991,-2.7263,-2.7263,-2.6893,-2.6651,-2.6651,-2.5138,0.0,0.0,0.0,0.0,-2.1109,-2.1109,-2.1109,-2.1109,-2.1109,-2.0456,-1.9158,0.0,0.0,-1.4619,0.0,0.0,0.0,0.0,0.0,-1.0721,-1.0721,-1.0721,-1.0721,-1.0721,-1.0721,0.0,0.0,-1.0721,-1.0721,-1.0721,-1.0721,-1.0721,-1.0721,-1.0721,-1.0721,-1.0721,-1.0721,-1.0721,-1.0721,-1.0721,-1.0585,-1.0114,-0.7769,-0.5297,-0.4827,-0.2351,0.0,0.0,0.0,0.0,0.0,0.0,0.0,0.0,0.0,0.0,0.0,0.0,0.0,0.0,0.0,0.0,1.0721,0.0,0.0,1.0721,1.0721,1.0721,1.0721,1.0721,0.0,0.0,0.0,0.0,1.0721,1.0721,1.0721,1.0721,1.0721,1.0721,1.0721,1.0721,1.0721,1.0721,1.0721,1.0782,1.0826,1.0863,1.1009,1.1121,1.127,1.1335,1.1345,1.1457,1.1528,1.1555,1.1518,1.1528,1.1565,-3.0889,0.0,0.0,-2.8545,0.0,0.0,-2.8733,-2.9166,0.0,-2.7563,-2.7194,0.0,-2.6098,-2.5375,-2.4955,-2.4955,-2.3435,0.0,-2.2529,0.0,0.0,-2.1109,-2.1109,-2.1109,-2.1109,-2.1109,0.0,-1.8506,0.0,0.0,-1.3255,0.0,0.0,0.0,0.0,-1.0721,-1.0721,-1.0721,-1.0721,-1.0721,-1.0721,0.0,0.0,-1.0721,-1.0721,-1.0721,-1.0721,-1.0721,-1.0721,-1.0721,-1.0721,-1.0721,-1.0721,-1.0721,-1.0721,-1.0721,-1.0721,-1.0721,-1.0721,-0.8105,-0.5431,-0.5431,-0.2685,0.0,0.0,0.0,0.0,0.0,0.0,0.0,0.0,0.0,0.0,0.0,0.0,0.0,0.0,0.0,0.0,0.0,1.0721,0.0,1.0721,1.0721,1.0721,1.0721,1.0721,0.0,0.0,0.0,0.0,1.0721,1.0721,1.0721,1.0721,1.0721,1.0721,1.0721,1.0721,1.0755,1.0819,1.0819,1.09,1.1046,1.1114,1.1189,1.1274,1.1426,1.1491,1.1501,1.1586,1.1619,1.1619,1.1619,1.1619,1.1619,-3.0645,0.0,0.0,0.0,0.0,0.0,0.0,-2.794,0.0,-2.6045,0.0,-2.6893,-2.5489,-2.4108,-2.3263,-2.3263,0.0,-2.1109,-2.1109,-2.1109,-2.1109,-2.1109,-2.1109,-2.1109,-2.1109,-2.1109,-2.0132,0.0,0.0,0.0,0.0,0.0,0.0,0.0,0.0,0.0,0.0,-1.0721,-1.0721,-1.0721,-1.0721,-1.0721,-1.0721,-1.0721,-1.0721,-1.0721,-1.0721,-1.0721,-1.0721,-1.0721,-1.0721,-1.0721,-1.0721,-1.0721,-1.0721,-1.0721,-1.0721,-1.0651,-1.0382,-0.7902,-0.5362,-0.5095,-0.2484,0.0,0.0,0.0,0.0,0.0,0.0,0.0,0.0,0.0,0.0,0.0,0.0,0.0,0.0,0.0,0.0,0.0,0.0,0.0,1.0721,1.0721,1.0721,1.0721,0.0,0.0,0.0,0.0,0.0,1.0721,1.0721,1.0721,1.0721,0.0,1.0731,1.0751,1.0751,1.0829,1.0911,1.0911,1.1056,1.1199,1.1335,1.1402,1.1433,1.1565,1.1619,1.1619,1.1619,1.1619,1.1619,1.1619,1.1619,1.1619,-2.9098,0.0,0.0,0.0,0.0,-2.5069,-2.2389,-2.3621,-2.4671,-2.4124,-2.3069,-2.2271,-2.1964,-2.172,-2.1544,-2.1544,-2.1299,0.0,0.0,0.0,0.0,-2.1109,-2.1109,-2.1109,-2.1109,-2.1109,-1.9546,0.0,0.0,0.0,0.0,0.0,0.0,0.0,0.0,0.0,-1.0721,-1.0721,0.0,-1.0721,-1.0721,-1.0721,-1.0721,-1.0721,-1.0721,-1.0721,-1.0721,-1.0721,-1.0721,-1.0721,-1.0721,-1.0721,-1.0721,-1.0721,-1.0721,-1.0721,-1.0721,-1.0382,-0.8903,-0.6965,-0.5029,-0.3556,-0.1545,0.0,0.0,0.0,0.0,0.0,0.0,0.0,0.0,0.0,0.0,0.0,0.0,0.0,0.0,0.0,0.0,0.0,0.0,1.0721,0.0,1.0721,1.0721,0.0,0.0,0.0,0.0,0.0,0.0,0.0,1.0721,0.0,0.0,0.0,1.0782,1.084,1.084,1.0985,1.1124,1.1124,1.1209,1.1352,1.1379,1.1463,1.1582,1.1609,1.1619,1.1619,1.1619,1.1619,1.1619,1.1619,1.1619,1.1619,0.0,0.0,0.0,0.0,0.0,0.0,0.0,-2.179,-2.2278,-2.2278,-2.2341,-2.2097,-2.1172,-2.1109,-2.1109,-2.1109,-2.1109,-2.1109,-2.1109,-2.1109,-2.1109,-2.1109,-2.1109,-2.0652,-1.9744,-1.9737,-1.8052,-1.4553,0.0,0.0,0.0,0.0,0.0,0.0,0.0,-1.0721,0.0,0.0,0.0,-1.0721,-1.0721,-1.0721,-1.0721,-1.0721,-1.0721,-1.0721,-1.0721,-1.0721,-1.0721,-1.0721,-1.0721,-1.0721,-1.0721,-1.0721,-1.0518,-0.9573,-0.9305,-0.8903,-0.7165,-0.536,-0.3757,-0.2886,-0.1344,0.0,0.0,0.0,0.0,0.0,0.0,0.0,0.0,0.1478,0.0,0.0,0.0,0.0,0.0,0.0,0.0,0.0,0.0,0.0,0.0,0.0,0.0,0.0,0.0,0.0,0.0,0.0,0.0,0.0,0.0,0.0,0.0,0.0,0.0,1.0884,1.1023,1.1138,1.128,1.128,1.1365,1.1508,1.1508,1.1552,1.1619,1.1619,1.1619,1.1619,1.1619,1.1619,1.1619,1.1619,1.1619,1.1619,0.0,-2.4479,0.0,0.0,-2.1971,0.0,-2.1109,-2.1109,-2.1109,-2.1109,-2.2278,-2.2591,-2.1235,-2.1109,-2.1109,-2.1109,-2.1109,-2.1109,-2.1109,-2.1109,-2.0912,-2.0583,-2.0526,-1.9744,-1.7988,-1.7923,-1.6431,0.0,0.0,0.0,0.0,0.0,0.0,0.0,0.0,0.0,0.0,0.0,-1.0721,-1.0721,-1.0721,-1.0721,-1.0651,-1.025,-1.0114,-1.0047,-0.9712,-0.9579,-0.9579,-0.9579,-0.9845,-1.0114,-1.0114,-0.9845,-0.931,-0.79,-0.7429,-0.7096,-0.5295,-0.3757,-0.2618,-0.2216,-0.1075,0.0,0.0,0.0,0.0,0.0,0.0,0.0,0.0,0.1143,0.0,0.0,0.0,0.0,0.0,0.0,0.0,0.0,0.0,0.0,1.0721,0.0,0.0,0.0,0.0,0.0,1.0721,0.0,0.0,0.0,0.0,1.0768,1.0768,0.0,1.1009,1.1043,1.1158,1.129,1.144,1.144,1.1504,1.1619,1.1619,1.1619,1.1619,1.1619,1.1619,1.1619,1.1619,1.1619,1.1619,1.1619,1.1619,1.1619,0.0,0.0,0.0,0.0,0.0,0.0,-2.1109,-2.1109,-2.1109,-2.1109,-2.1235,-2.1292,-2.1109,-2.1109,-2.1109,-2.1109,-2.1109,-2.1109,-2.1109,-2.1109,-2.0392,-1.8832,-1.8762,-1.7923,-1.6172,-1.6108,-1.5204,0.0,0.0,-1.2413,0.0,0.0,0.0,0.0,0.0,0.0,0.0,-1.0721,-1.0721,-1.0721,-1.0721,-1.0721,-1.0518,-0.8903,-0.8233,-0.8033,-0.6431,-0.5897,-0.5897,-0.5897,-0.6965,-0.8233,-0.8233,-0.7165,-0.5832,-0.5698,-0.5629,-0.5228,-0.3422,-0.2819,-0.2283,-0.0673,-0.0135,0.0,0.0,0.0,0.0,0.0,0.0,0.0,0.0,0.0135,0.0269,0.0,0.0,0.0,0.0,0.0,0.8701,1.0452,0.0,0.0,0.0,1.0721,0.0,0.0,1.0721,0.0,0.0,0.0,0.0,1.0721,0.0,1.086,1.086,1.107,1.1212,1.1352,1.1362,1.145,1.1599,1.1599,1.1606,1.1619,1.1619,1.1619,1.1619,1.1619,1.1619,1.1619,1.1619,1.1619,1.1619,1.1619,1.1619,1.1619,0.0,0.0,0.0,0.0,0.0,0.0,0.0,-2.1109,-2.1109,-2.1109,-2.1109,-2.1109,-2.1109,-2.1109,-2.1109,-2.1109,-2.1109,-2.1109,-2.1109,-2.0132,-1.9221,-1.8506,-1.7468,-1.6108,-1.4362,-1.4362,-1.3517,0.0,0.0,0.0,0.0,0.0,0.0,0.0,0.0,-1.0721,-1.0721,-1.0721,-1.0721,-1.0588,-0.9507,-0.9105,-0.8903,-0.7098,-0.6431,-0.6364,-0.5629,-0.5431,-0.5431,-0.5431,-0.583,-0.6431,-0.6431,-0.5964,-0.5163,-0.4092,-0.3757,-0.3355,-0.1545,-0.1075,-0.0874,-0.0202,0.0,0.0,0.0,0.0,0.0,0.0,0.0,0.0,0.0,0.0,0.0,0.0,0.0,0.0,0.0,0.0,0.0,0.0,0.0,1.0721,0.0,0.0,0.0,0.0,0.0,0.0,0.0,0.0,0.0,1.0786,0.0,1.0989,1.1077,1.1226,1.1331,1.1392,1.1484,1.1558,1.1619,1.1619,1.1619,1.1619,1.1619,1.1619,1.1619,1.1619,1.1619,1.1619,1.1619,1.1619,1.1619,1.1619,1.1619,1.1619,-2.1109,0.0,-2.1109,0.0,-2.1109,-2.1109,-2.1109,-2.1109,-2.1109,-2.1109,-2.0652,-2.0519,-2.1046,-2.1109,-2.0912,-2.0392,-2.0329,-2.0132,-1.961,-1.8442,-1.7538,-1.7017,-1.5784,0.0,-1.2545,-1.2545,-1.196,-1.0721,-1.0721,0.0,0.0,0.0,0.0,0.0,-1.0721,-1.0382,-0.9911,-0.9911,-0.9643,-0.9042,-0.7767,-0.7231,-0.7031,-0.5295,-0.4626,-0.4559,-0.4024,-0.3824,-0.3824,-0.3824,-0.3824,-0.3891,-0.4426,-0.4226,-0.3556,-0.2283,-0.1881,-0.1613,-0.0336,0.0,0.0,0.0,0.0,0.0,0.0,0.0,0.0,0.0,0.0,0.0,0.0,0.0,0.0,0.0,0.0,0.0,0.0,0.0,0.0,0.0,0.9576,1.0721,1.0721,1.0721,0.0,0.0,0.0,0.0,0.0,0.0,0.0,0.0,0.0,0.0,0.0,1.1382,1.1457,1.146,1.1569,1.1619,1.1619,1.1619,1.1619,1.1619,1.1619,1.1619,1.1619,1.1619,1.1619,1.1619,1.1619,1.1619,1.1619,1.1619,1.1619,1.1619,-2.1109,-2.1109,-2.1109,-2.1109,-2.1109,-2.1109,-2.1109,-2.1109,-2.1109,-2.1109,-1.961,-1.9221,-2.0912,-2.1109,-2.0392,-1.8704,-1.8506,-1.7795,-1.6108,-1.5913,-1.5139,0.0,0.0,-1.2545,-1.0784,-1.0721,-1.0717,-1.0721,0.0,0.0,-1.0721,0.0,-1.0721,-1.0721,-1.0721,-0.9709,-0.803,-0.803,-0.7031,-0.5429,-0.5431,-0.5431,-0.5228,-0.3422,-0.2752,-0.2484,-0.074,-0.0067,-0.0067,-0.0067,-0.0067,-0.0404,-0.2149,-0.1478,-0.0067,-0.0067,0.0,0.0,0.0,0.0,0.0,0.0,0.0,0.0,0.0,0.0,0.0,0.0,0.0,0.0,0.0,0.0,0.0,0.0,0.0,0.0,0.0,0.0,0.0,0.0,0.9576,1.0721,1.0721,1.0721,0.0,0.0,0.0,0.0,0.0,0.0,0.0,1.088,1.1233,0.0,1.1389,1.1541,1.1616,1.1616,1.1616,1.1619,1.1619,1.1619,1.1619,1.1619,1.1619,1.1619,1.1619,1.1619,1.1619,1.1619,1.1619,1.1619,1.1619,1.1619,1.1619,1.1619,-2.1109,-2.1109,-2.1109,-2.1109,-2.0132,-1.9355,-1.9355,-1.8314,-1.7532,-1.7532,-1.7082,-1.6953,-1.7468,-1.7532,-1.7339,0.0,-1.6759,-1.6496,0.0,-1.4814,-1.3905,-1.332,-1.2153,-1.124,-1.0721,-1.0721,-1.0721,-1.0721,0.0,0.0,0.0,-1.0721,-1.0721,-1.0651,-0.944,-0.8568,-0.7897,-0.6765,-0.5897,-0.5297,-0.4025,-0.3556,-0.3355,-0.1545,-0.0874,-0.0807,-0.0202,0.0,0.0,0.0,0.0,-0.0067,-0.0673,-0.0471,0.0,0.0,0.0,0.0,0.0,0.0,0.0,0.0,0.0,0.0,0.0,0.0,0.0,0.0,0.0,0.0,0.0,0.0,0.0,0.0,0.0,0.0,0.0,0.0,0.0,0.0,0.9157,1.1023,1.1023,1.1023,0.0,0.0,0.0,0.0,0.0,0.0,0.0,0.0,1.1341,0.0,1.1545,1.1596,1.1619,1.1619,1.1619,1.1619,1.1619,1.1619,1.1619,1.1619,1.1619,1.1619,1.1619,1.1619,1.1619,1.1619,1.1619,1.1619,1.1619,1.1619,1.1619,1.1633,-2.1109,-2.0589,-2.0132,-2.0132,-1.8704,-1.7532,-1.7532,-1.6625,-1.5913,-1.5913,-1.5329,-1.4944,-1.4944,-1.4362,0.0,-1.4879,-1.4944,-1.4619,-1.397,-1.2935,-1.2347,-1.2347,-1.1306,-1.0721,-1.0721,-1.0721,0.0,-1.0721,-1.0721,-1.0721,-1.0721,-1.0721,-1.0316,-0.9643,-0.8499,-0.7229,-0.596,-0.4826,-0.4024,-0.3288,-0.2149,-0.168,-0.1545,-0.0404,0.0,0.0,0.0,0.0,0.0,0.0,0.0,0.0,0.0,0.0,0.0,0.0,0.0,0.0,0.0,0.0,0.0,0.0,0.0,0.0,0.0,0.0,0.0,0.0,0.0,0.0,0.0,0.0,0.0,0.0,0.0,0.0,0.0,0.0,0.0,0.0,0.0,0.0,0.0,1.1231,1.1189,0.0,0.0,0.0,0.0,0.0,0.0,1.1389,1.1447,0.0,1.1616,1.1619,1.1619,1.1619,1.1619,1.1619,1.1619,1.1619,1.1619,1.1619,1.1619,1.1619,1.1619,1.1619,1.1619,1.1619,1.1619,1.1619,1.1626,1.1681,1.1697,1.1721,-2.0912,-1.961,-1.8442,0.0,-1.6888,0.0,-1.5719,-1.5594,-1.5529,-1.5529,-1.4101,-1.3128,-1.3128,-1.1699,-1.1372,-1.3001,0.0,0.0,0.0,-1.0721,-1.0721,-1.0721,-1.0721,-1.0721,-1.0721,-1.0721,-1.0721,-1.0721,-1.0721,-1.0651,-1.0518,-1.0518,-0.9576,-0.7831,-0.7695,-0.5826,-0.2685,-0.2551,-0.1545,0.0,0.0,0.0,0.0,0.0,0.0,0.0,0.0,0.0,0.0,0.0,0.0,0.0,0.0,0.0,0.0,0.0,0.0,0.0,0.0,0.0,0.0,0.0,0.0,0.0,0.0,0.0,0.0,0.0,0.0,0.0,0.0,0.0,0.0,0.0,0.0,0.007,0.0211,0.0,0.0,0.0,0.0,0.0,0.0,1.1265,1.1253,0.0,0.0,0.0,0.0,0.0,1.1406,1.1406,1.1545,1.1619,1.1619,1.1619,1.1619,1.1619,1.1619,1.1619,1.1619,1.1619,1.1619,1.1619,1.1619,1.1619,1.1619,1.1619,1.1619,1.1619,1.1619,1.1626,1.165,1.1782,1.1837,1.1867,0.0,0.0,-1.8052,-1.6759,-1.5074,-1.3905,-1.3905,-1.2804,-1.196,-1.196,-1.1567,-1.1306,-1.1306,-1.0982,-1.085,-1.1306,-1.1306,-1.1111,-1.0721,-1.0721,-1.0721,-1.0721,-1.0721,-1.0721,-1.0721,-1.0721,-1.0721,-1.0721,-1.0721,-0.9978,-0.8634,-0.8634,-0.77,-0.5964,-0.4558,-0.3488,-0.2618,-0.121,-0.0404,0.0,0.0,0.0,0.0,0.0,0.0,0.0,0.0,0.0,0.0,0.0,0.0,0.0,0.0,0.0,0.0,0.0,0.0,0.0,0.0,0.0,0.0,0.0,0.0,0.0,0.0,0.0,0.0,0.0,0.0,0.0,0.0,0.0,0.0,0.0,0.0,0.0506,0.2019,0.4247,0.0,0.0,1.0066,1.1511,1.1511,1.1511,1.1528,0.0,0.0,0.0,0.0,1.1586,1.1565,1.1565,1.1599,1.1619,1.1619,1.1619,1.1619,1.1619,1.1619,1.1619,1.1619,1.1619,1.1619,1.1619,1.1619,1.1619,1.1619,1.1619,1.1619,1.1619,1.1619,1.1687,1.1786,1.182,1.1904,1.203,-1.7644,-1.6689,-1.5848,-1.4879,-1.3259,-1.2088,-1.2088,-1.1306,-1.0721,-1.0721,-1.0721,-1.0721,-1.0721,-1.0721,-1.0721,-1.0721,-1.0721,-1.0721,-1.0721,-1.0721,-1.0721,-1.0721,-1.0721,-1.0721,-1.0721,-1.0721,-1.0316,-0.944,-0.944,-0.8571,-0.6831,-0.6831,-0.5895,-0.4091,-0.3154,-0.2216,-0.1411,-0.0404,0.0,0.0,0.0,0.0,0.0,0.0,0.0,0.0,0.0,0.0,0.0,0.0,0.0,0.0,0.0,0.0,0.0,0.0,0.0,0.0,0.0,0.0,0.0,0.0,0.0,0.0,0.0,0.0,0.0,0.0,0.0,0.0,0.0,0.0,0.0,0.0,0.0729,0.1674,0.2763,0.5372,0.0,0.8557,1.0449,1.1619,1.1619,1.1619,1.1619,1.1619,1.1619,0.0,1.1619,1.1619,1.1619,1.1619,1.1619,1.1619,1.1619,1.1619,1.1619,1.1619,1.1619,1.1619,1.1619,1.1619,1.1619,1.1619,1.1619,1.1619,1.1619,1.1619,1.1619,1.1626,1.1691,1.1765,1.1847,1.1989,1.2094,1.2186,-1.5808,-1.4297,-1.3193,-1.2931,-1.1699,-1.0721,-1.0721,-1.0721,-1.0721,-1.0721,-1.0721,-1.0721,-1.0721,-1.0721,-1.0721,-1.0721,-1.0721,-1.0721,-1.0721,-1.0721,-1.0721,-1.0721,-1.0721,-1.0721,-1.0721,-1.0449,-0.944,-0.7631,-0.7631,-0.6696,-0.4961,-0.4961,-0.4024,-0.2283,-0.2283,-0.1411,0.0,0.0,0.0,0.0,0.0,0.0,0.0,0.0,0.0,0.0,0.0,0.0,0.0,0.0,0.0,0.0,0.0,0.0,0.0,0.0,0.0,0.0,0.0,0.0,0.0,0.0,0.0,0.0,0.0,0.0,0.0,0.0,0.0,0.0,0.0,0.0,0.0,0.0,0.1602,0.298,0.3271,0.0,0.8776,0.9139,1.0596,1.1619,1.1619,1.1619,1.1619,1.1619,1.1619,1.1619,1.1619,1.1619,1.1619,1.1619,1.1619,1.1619,1.1619,1.1619,1.1619,1.1619,1.1619,1.1619,1.1619,1.1619,1.1619,1.1619,1.1619,1.1619,1.1619,1.1643,1.165,1.1664,1.1809,1.1881,1.1932,1.2193,1.2305,1.2338,-1.3996,-1.3517,-1.2869,-1.1372,-1.085,-1.0721,-1.0721,-1.0721,-1.0721,-1.0721,-1.0721,-1.0721,-1.0721,-1.0721,-1.0721,-1.0721,-1.0721,-1.0721,-1.0721,-1.0721,-1.0721,-1.0721,-1.0721,-1.0721,-1.0721,-0.9172,-0.7564,-0.583,-0.583,-0.4894,-0.3087,-0.3087,-0.2149,-0.0404,-0.0404,-0.0269,0.0,0.0,0.0,0.0,0.0,0.0,0.0,0.0,0.0,0.0,0.0,0.0,0.0,0.0,0.0,0.0,0.0,0.0,0.0,0.0,0.0,0.0,0.0,0.0,0.0,0.0,0.0,0.0,0.0,0.0,0.0,0.0,0.0,0.0,0.0,0.0,0.0,0.0,0.1602,0.3489,0.5084,0.0,0.9285,1.0959,1.14,1.1619,1.1619,1.1619,1.1619,1.1619,1.1619,1.1619,1.1619,1.1619,1.1619,1.1619,1.1619,1.1619,1.1619,1.1619,1.1619,1.1619,1.1619,1.1619,1.1619,1.1619,1.1619,1.1619,1.1619,1.1619,1.163,1.1748,1.1796,1.1813,1.1965,1.2104,1.2227,1.2274,1.2366,1.2471,-1.211,-1.1829,-1.1633,-1.085,-1.0721,-1.0721,-1.0721,-1.0721,-1.0721,-1.0721,-1.0721,-1.0721,-1.0721,-1.0721,-1.0721,-1.0721,-1.0721,-1.0316,-0.9305,-1.018,-1.0721,-1.0721,-0.9775,-0.8839,-0.7838,-0.7031,-0.5694,-0.3958,-0.3958,-0.3021,-0.1277,-0.1277,-0.0807,0.0,0.0,0.0,0.0,0.0,0.0,0.0,0.0,0.0,0.0,0.0,0.0,0.0,0.0,0.0,0.0,0.0,0.0,0.0,0.0,0.0,0.0,0.0,0.0,0.0,0.0,0.0,0.0,0.0,0.0,0.0,0.0,0.0,0.0,0.0,0.0,0.0,0.0,0.0,0.0365,0.1384,0.3199,0.0,0.0,0.9069,1.0596,1.1472,1.1619,1.1619,1.1619,1.1619,1.1619,1.1619,1.1619,1.1619,1.1619,1.1619,1.1619,1.1619,1.1619,1.1619,1.1619,1.1619,1.1619,1.1619,1.1619,1.1619,1.1619,1.1619,1.1619,1.1619,1.1619,1.1664,1.1738,1.1803,1.1881,1.1972,1.2125,1.223,1.2298,1.2376,1.2444,1.2501,-1.0718,-1.0616,-1.0721,-1.0721,-1.0721,-1.0721,-1.0721,-1.0721,-1.0721,-1.0721,-1.0721,-1.0721,-1.0721,-1.0721,-1.0518,-1.0114,-1.0047,-0.9308,-0.7498,-0.8704,-0.9446,-0.9446,-0.8166,-0.6562,-0.4827,-0.4762,-0.389,-0.2082,-0.2082,-0.1344,0.0,0.0,0.0,0.0,0.0,0.0,0.0,0.0,0.0,0.0,0.0,0.0,0.0,0.0,0.0,0.0,0.0,0.0,0.0,0.0,0.0,0.0,0.0,0.0,0.0,0.0,0.0,0.0,0.0,0.0,0.0,0.0,0.0,0.0,0.0,0.0,0.0,0.0,0.0,0.0,0.0,0.0365,0.1166,0.2691,0.0,0.0,0.0,1.0377,1.1619,1.1619,1.1619,1.1619,1.1619,1.1619,1.1619,1.1619,1.1619,1.1619,1.1619,1.1619,1.1619,1.1619,1.1619,1.1619,1.1619,1.1619,1.1619,1.1619,1.1619,1.1619,1.1619,1.1619,1.1636,1.167,1.167,1.1748,1.1887,1.1921,1.201,1.2132,1.2281,1.2338,1.2352,1.2461,1.2501,1.2501,-1.0528,-1.0616,-1.0721,-1.0721,-1.0721,-1.0721,-1.0721,-1.0721,-1.0721,-1.0721,-1.0721,-1.0721,-1.0721,-1.0721,-1.0044,-0.8366,-0.8233,-0.7431,-0.5698,-0.5698,-0.5763,-0.5763,-0.5629,-0.476,-0.2953,-0.2887,-0.2015,-0.0202,-0.0202,-0.0135,0.0,0.0,0.0,0.0,0.0,0.0,0.0,0.0,0.0,0.0,0.0,0.0,0.0,0.0,0.0,0.0,0.0,0.0,0.0,0.0,0.0,0.0,0.0,0.0,0.0,0.0,0.0,0.0,0.0,0.0,0.0,0.0,0.0,0.0,0.0,0.0,0.0,0.0,0.0,0.0,0.0,0.1456,0.2763,0.2908,0.0,0.0,0.8701,1.0377,1.1619,1.1619,1.1619,1.1619,1.1619,1.1619,1.1619,1.1619,1.1619,1.1619,1.1619,1.1619,1.1619,1.1619,1.1619,1.1619,1.1619,1.1619,1.1619,1.1619,1.1619,1.1619,1.1619,1.1619,1.1691,1.1816,1.1816,1.1901,1.2057,1.2199,1.2264,1.2288,1.243,1.2484,1.2488,1.2498,1.2501,1.2501,-1.0331,-1.0477,-1.0609,-1.0704,-1.0721,-1.0721,-1.0721,-1.0721,-1.0721,-1.0721,-0.9709,-0.9036,-0.9036,-0.8035,-0.7167,-0.6431,-0.6364,-0.5628,-0.3823,-0.3756,-0.3756,-0.3756,-0.3756,-0.2887,-0.1075,-0.1008,-0.0673,0.0,0.0,0.0,0.0,0.0,0.0,0.0,0.0,0.0,0.0,0.0,0.0,0.0,0.0,0.0,0.0,0.0,0.0,0.0,0.0,0.0,0.0,0.0,0.0,0.0,0.0,0.0,0.0,0.0,0.0,0.0,0.0,0.0,0.0,0.0,0.0,0.0,0.0,0.0,0.0,0.0,0.0947,0.182,0.182,0.3416,0.5084,0.6311,0.0,0.9139,1.0305,1.1106,1.1619,1.1619,1.1619,1.1619,1.1619,1.1619,1.1619,1.1619,1.1619,1.1619,1.1619,1.1619,1.1619,1.1619,1.1619,1.1619,1.1619,1.1619,1.1619,1.1619,1.1619,1.1619,1.1623,1.1711,1.1779,1.1837,1.1932,1.206,1.2206,1.2267,1.2342,1.2427,1.2481,1.2501,1.2501,1.2501,1.2501,1.2501,-1.0249,-1.0395,-1.0538,-1.0694,-1.0721,-1.0721,-1.0721,-1.025,-0.9845,-0.9845,-0.8302,-0.7162,-0.7162,-0.6097,-0.5163,-0.4626,-0.4559,-0.3757,-0.1948,-0.1881,-0.1881,-0.1881,-0.1881,-0.1277,0.0,0.0,0.0,0.0,0.0,0.0,0.0,0.0,0.0,0.0,0.0,0.0,0.0,0.0,0.0,0.0,0.0,0.0,0.0,0.0,0.0,0.0,0.0,0.0,0.0,0.0,0.0,0.0,0.0,0.0,0.0,0.0,0.0404,0.0874,0.0874,0.1277,0.1413,0.0271,0.0,0.014,0.0775,0.0933,0.1093,0.1675,0.2909,0.3778,0.3778,0.5372,0.7183,0.8485,0.9211,1.0086,1.14,1.1619,1.1619,1.1619,1.1619,1.1619,1.1619,1.1619,1.1619,1.1619,1.1619,1.1619,1.1619,1.1619,1.1619,1.1619,1.1619,1.1619,1.1619,1.1619,1.1619,1.1619,1.1619,1.1643,1.1691,1.1786,1.1884,1.1982,1.2088,1.222,1.2355,1.2355,1.2413,1.2501,1.2501,1.2501,1.2501,1.2501,1.2501,1.2501,-1.0249,-1.0392,-1.0538,-1.0627,-1.0654,-1.0654,-1.0651,-0.9105,-0.7964,-0.7964,-0.6431,-0.5364,-0.5364,-0.5364,-0.4628,-0.2819,-0.2685,-0.1948,-0.0135,0.0,0.0,0.0,0.0,0.0,0.0,0.0,0.0,0.0,0.0,0.0,0.0,0.0,0.0,0.0,0.0,0.0,0.0,0.0,0.0,0.0,0.0,0.0,0.0,0.0,0.0,0.0,0.0,0.0,0.0,0.0,0.0,0.0,0.0067,0.0067,0.0067,0.0067,0.1344,0.2752,0.2752,0.4024,0.4508,0.0958,0.0069,0.0563,0.2488,0.2952,0.3489,0.5373,0.581,0.581,0.581,0.7399,0.8703,0.8703,1.0305,1.1619,1.1619,1.1619,1.1619,1.1619,1.1619,1.1619,1.1619,1.1619,1.1619,1.1619,1.1619,1.1619,1.1619,1.1619,1.1619,1.1619,1.1619,1.1619,1.1619,1.1619,1.1619,1.1619,1.1619,1.1694,1.183,1.1833,1.1999,1.2291,1.2291,1.2372,1.2501,1.2501,1.2501,1.2501,1.2501,1.2501,1.2501,1.2501,1.2501,1.2501,-1.0229,-1.0314,-1.0029,-0.8999,-0.8837,-0.8368,-0.7167,-0.6498,-0.6164,-0.6164,-0.4625,-0.3489,-0.3489,-0.235,-0.1411,-0.0874,-0.0807,-0.0605,-0.0067,0.0,0.0,0.0,0.0,0.0,0.0,0.0,0.0,0.0,0.0,0.0,0.0,0.0,0.0,0.0,0.0,0.0,0.0,0.0,0.0,0.0,0.0,0.0,0.0,0.0,0.0,0.0,0.0,0.0,0.0,0.0,0.0874,0.2149,0.3422,0.3757,0.3757,0.3757,0.4158,0.4626,0.4626,0.4961,0.518,0.416,0.3941,0.4135,0.4756,0.4964,0.5084,0.5665,0.6894,0.7835,0.7835,0.9432,1.0743,1.0743,1.1253,1.1619,1.1619,1.1619,1.1619,1.1619,1.1619,1.1619,1.1619,1.1619,1.1619,1.1619,1.1619,1.1619,1.1619,1.1619,1.1619,1.1619,1.1619,1.1619,1.1619,1.1619,1.1619,1.1619,1.1721,1.1789,1.1837,1.2054,1.2203,1.2294,1.2396,1.2464,1.2501,1.2501,1.2501,1.2501,1.2501,1.2501,1.2501,1.2501,1.2501,1.2501,-0.9186,-0.8695,-0.7953,-0.7142,-0.7005,-0.6631,-0.5563,-0.4762,-0.4359,-0.4359,-0.2752,-0.1613,-0.1613,-0.0673,0.0,0.0,0.0,0.0,0.0,0.0,0.0,0.0,0.0,0.0,0.0,0.0,0.0,0.0,0.0,0.0,0.0,0.0,0.0,0.0,0.0,0.0,0.0,0.0,0.0,0.0,0.0,0.0,0.0067,0.0807,0.1075,0.1143,0.1881,0.2149,0.2149,0.2149,0.2887,0.3958,0.5029,0.5431,0.5431,0.5431,0.5897,0.6431,0.6431,0.6967,0.7536,0.7747,0.6725,0.5819,0.6713,0.6927,0.7185,0.791,0.8997,0.9867,0.9867,1.0815,1.1619,1.1619,1.1619,1.1619,1.1619,1.1619,1.1619,1.1619,1.1619,1.1619,1.1619,1.1619,1.1619,1.1619,1.1619,1.1619,1.1619,1.1619,1.1619,1.1619,1.1619,1.1647,1.1701,1.1701,1.1701,1.1704,1.1853,1.1952,1.2016,1.2206,1.2322,1.2379,1.2464,1.2501,1.2501,1.2501,1.2501,1.2501,1.2501,1.2501,1.2501,1.2501,1.2501,1.2501,-0.7321,-0.6161,-0.5095,-0.5171,-0.518,-0.5095,-0.4961,-0.3489,-0.2484,-0.2484,-0.1008,0.0,0.0,0.0,0.0,0.0,0.0,0.0,0.0,0.0,0.0,0.0,0.0,0.0,0.0,0.0,0.0,0.0,0.0,0.0,0.0,0.0,0.0,0.0,0.0,0.0,0.0,0.0202,0.0269,0.0269,0.0404,0.0471,0.0673,0.2283,0.2953,0.3154,0.4827,0.5431,0.5431,0.5564,0.5629,0.5629,0.5832,0.5899,0.5899,0.5899,0.6965,0.8233,0.8233,0.944,1.0792,1.1087,0.8647,0.6601,0.8509,0.8992,0.943,1.1253,1.1619,1.1619,1.1619,1.1619,1.1619,1.1619,1.1619,1.1619,1.1619,1.1619,1.1619,1.1619,1.1619,1.1619,1.1619,1.1619,1.1619,1.1619,1.1619,1.1619,1.1619,1.1619,1.1619,1.1619,1.1633,1.1701,1.183,1.1857,1.1864,1.1853,1.201,1.2155,1.2291,1.2301,1.2379,1.2501,1.2501,1.2501,1.2501,1.2501,1.2501,1.2501,1.2501,1.2501,1.2501,1.2501,1.2501,1.2501,-0.5634,-0.5336,-0.4709,-0.3473,-0.3258,-0.2819,-0.1411,-0.0807,-0.0605,-0.0605,-0.0269,0.0,0.0,0.0,0.0,0.0,0.0,0.0,0.0,0.0,0.0,0.0,0.0,0.0,0.0,0.0,0.0,0.0,0.0,0.0,0.0,0.0,0.0,0.0,0.0,0.0,0.0067,0.1545,0.2082,0.2216,0.369,0.4226,0.4292,0.4693,0.4827,0.4894,0.523,0.5431,0.5631,0.6965,0.7431,0.7698,0.9108,0.9579,0.9579,0.9579,0.9845,1.0114,1.0114,1.0382,1.0792,1.1087,1.0602,1.0183,1.0824,1.0962,1.1109,1.1476,1.1619,1.1619,1.1619,1.1619,1.1619,1.1619,1.1619,1.1619,1.1619,1.1619,1.1619,1.1619,1.1619,1.1619,1.1619,1.1619,1.1619,1.1619,1.1619,1.1619,1.1619,1.1619,1.1619,1.1619,1.1728,1.1799,1.183,1.2071,1.2128,1.2013,1.2169,1.2257,1.2294,1.2406,1.2474,1.2501,1.2501,1.2501,1.2501,1.2501,1.2501,1.2501,1.2501,1.2501,1.2501,1.2501,1.2501,1.2501,-0.385,-0.3231,-0.2386,-0.1561,-0.1392,-0.1075,-0.0135,0.0,0.0,0.0,0.0,0.0,0.0,0.0,0.0,0.0,0.0,0.0,0.0,0.0,0.0,0.0,0.0,0.0,0.0,0.0874,0.0874,0.0,0.0874,0.0874,0.0,0.0874,0.0807,0.0067,0.0874,0.1277,0.1411,0.3221,0.3957,0.4092,0.5029,0.5431,0.5498,0.6297,0.6631,0.6765,0.7636,0.7905,0.8038,0.8972,0.9305,0.944,1.0382,1.0721,1.0721,1.0721,1.0721,1.0721,1.0721,1.0721,1.0792,1.1087,1.1231,1.1243,1.1548,1.1619,1.1619,1.1619,1.1619,1.1619,1.1619,1.1619,1.1619,1.1619,1.1619,1.1619,1.1619,1.1619,1.1619,1.1619,1.1619,1.1619,1.1619,1.1619,1.1619,1.1619,1.1619,1.1619,1.1619,1.1619,1.165,1.1718,1.1792,1.1901,1.2047,1.221,1.2284,1.2274,1.2352,1.2389,1.2393,1.2467,1.2501,1.2501,1.2501,1.2501,1.2501,1.2501,1.2501,1.2501,1.2501,1.2501,1.2501,1.2501,1.2501,1.2501,-0.2094,-0.0948,0.0,0.0,0.0,0.0,0.0,0.0,0.0,0.0,0.0,0.0,0.0,0.0,0.0,0.0,0.0,0.0,0.0,0.0,0.0,0.0,0.0269,0.0471,0.0471,0.2216,0.2283,0.0471,0.1948,0.2082,0.0941,0.2149,0.2082,0.1009,0.2484,0.3154,0.3288,0.5095,0.583,0.5897,0.6164,0.6299,0.6433,0.79,0.8435,0.8634,1.018,1.0721,1.0721,1.0721,1.0721,1.0721,1.0721,1.0721,1.0721,1.0721,1.0721,1.0721,1.0721,1.0721,1.0792,1.1087,1.1231,1.1243,1.1548,1.1619,1.1619,1.1619,1.1619,1.1619,1.1619,1.1619,1.1619,1.1619,1.1619,1.1619,1.1619,1.1619,1.1619,1.1619,1.1619,1.1619,1.1619,1.1619,1.1619,1.1619,1.1619,1.1619,1.1619,1.1643,1.1708,1.1826,1.1881,1.2033,1.2288,1.2315,1.2386,1.2501,1.2501,1.2501,1.2501,1.2501,1.2501,1.2501,1.2501,1.2501,1.2501,1.2501,1.2501,1.2501,1.2501,1.2501,1.2501,1.2501,1.2501,1.2501,-0.0308,-0.0127,0.0,0.0,0.0,0.0,0.0,0.0,0.0,0.0,0.0,0.0,0.0,0.0,0.0,0.0,0.0,0.0,0.0,0.0,0.0,0.0,0.1478,0.2351,0.2351,0.4092,0.4158,0.2351,0.2551,0.3355,0.4628,0.3288,0.3422,0.4693,0.4896,0.5029,0.5162,0.6896,0.7631,0.7764,0.9374,0.9981,0.9981,1.025,1.0316,1.0382,1.0588,1.0721,1.0721,1.0721,1.0721,1.0721,1.0721,1.0721,1.0721,1.0721,1.0721,1.0721,1.0721,1.0721,1.0792,1.1087,1.1231,1.1243,1.1548,1.1619,1.1619,1.1619,1.1619,1.1619,1.1619,1.1619,1.1619,1.1619,1.1619,1.1619,1.1619,1.1619,1.1619,1.1619,1.1619,1.1619,1.1619,1.1619,1.1619,1.1619,1.1619,1.1619,1.1619,1.1735,1.1813,1.183,1.2088,1.2247,1.2291,1.2413,1.2481,1.2501,1.2501,1.2501,1.2501,1.2501,1.2501,1.2501,1.2501,1.2501,1.2501,1.2501,1.2501,1.2501,1.2501,1.2501,1.2501,1.2501,1.2501,1.2501,0.0,0.0,0.0,0.0,0.0,0.0,0.0,0.0,0.0,0.0,0.0,0.0,0.0,0.0,0.0,0.0,0.0,0.0,0.0,0.0941,0.1478,0.1478,0.3221,0.4226,0.4226,0.5962,0.6429,0.5693,0.5693,0.5561,0.5431,0.5561,0.5561,0.5431,0.6431,0.6829,0.6965,0.877,0.9507,0.9573,1.0382,1.0721,1.0721,1.0721,1.0721,1.0721,1.0721,1.0721,1.0721,1.0721,1.0721,1.0721,1.0721,1.0721,1.0721,1.0721,1.0721,1.0721,1.0721,1.0721,1.0792,1.1087,1.1231,1.1243,1.1548,1.1619,1.1619,1.1619,1.1619,1.1619,1.1619,1.1619,1.1619,1.1619,1.1619,1.1619,1.1619,1.1619,1.1619,1.1619,1.1619,1.1619,1.1619,1.1619,1.1619,1.1619,1.1619,1.1653,1.1735,1.1796,1.1911,1.2081,1.222,1.2328,1.241,1.2471,1.2501,1.2501,1.2501,1.2501,1.2501,1.2501,1.2501,1.2501,1.2501,1.2501,1.2501,1.2501,1.2501,1.2501,1.2501,1.2501,1.2501,1.2501,1.2501,1.2501]},{"header":{"parameterUnit":"m.s-1","parameterCategory":1,"la1":30.6,"la2":28.766,"lo1":-90.7593,"lo2":-88.6598,"dy":0.0162,"dx":0.0183,"nx":116,"ny":114,"refTime":"2023-08-17T12:00:00:Z","depth":0,"parameterNumber":3,"parameterNumberName":"V-component_of_WINDS"},"data":[0.0,0.0,0.0,0.0,0.0,0.0,0.0,0.0,0.0,0.0,0.0,0.0,0.0,0.0,0.0,0.0,0.0,0.0,0.0,0.0,0.0,0.0,0.0,0.0,0.0,0.0,0.0,0.0,0.0,0.0,0.0,0.0,0.0,0.0,0.0,0.0,0.0,0.0,0.0,0.0,0.0,0.0,0.0,0.0,0.0,0.0,0.0,0.0,0.0,0.0,0.0,0.0,0.0,0.0,0.0,0.0,0.0,0.0,0.0,0.0,0.0,0.0,0.0,0.0,0.0,0.0,0.0,0.0,0.0,0.0,0.0,0.0,0.0,0.0,0.0,0.0,0.0,0.0,0.0,0.0,0.0,0.0,0.0,0.0,0.0,0.0,0.0,0.0,0.0,0.0,0.0,0.0,0.0,0.0,0.0,0.0,0.0,0.0,0.0,0.0,0.0,0.0,0.0,0.0,0.0,0.0,0.0,0.0,0.0,0.0,0.0,0.0,0.0,0.0,0.0,0.0,0.0,0.0,0.0,0.0,0.0,0.0,0.0,0.0,0.0,0.0,0.0,0.0,0.0,0.0,0.0,0.0,0.0,0.0,0.0,0.0,0.0,0.0,0.0,0.0,0.0,0.0,0.0,0.0,0.0,0.0,0.0,0.0,0.0,0.0,0.0,0.0,0.0,0.0,0.0,0.0,0.0,0.0,0.0,0.0,0.0,0.0,0.0,0.0,0.0,0.0,0.0,0.0,0.0,0.0,0.0,0.0,0.0,0.0,0.0,0.0,0.0,0.0,0.0,0.0,0.0,0.0,0.0,0.0,0.0,0.0,0.0,0.0,0.0,0.0,0.0,0.0,0.0,0.0,0.0,0.0,0.0,0.0,0.0,0.0,0.0,0.0,0.0,0.0,0.0,0.0,0.0,0.0,0.0,0.0,0.0,0.0,0.0,0.0,0.0,0.0,0.0,0.0,0.0,0.0,0.0,0.0,0.0,0.0,0.0,0.0,0.0,0.0,0.0,0.0,0.0,0.0,0.0,0.0,0.0,0.0,0.0,0.0,0.0,0.0,0.0,0.0,0.0,0.0,0.0,0.0,0.0,0.0,0.0,0.0,0.0,0.0,0.0,0.0,0.0,0.0,0.0,0.0,0.0,0.0,0.0,0.0,0.0,0.0,0.0,0.0,0.0,0.0,0.0,0.0,0.0,0.0,0.0,0.0,0.0,0.0,0.0,0.0,0.0,0.0,0.0,0.0,0.0,0.0,0.0,0.0,0.0,0.0,0.0,0.0,0.0,0.0,0.0,0.0,0.0,0.0,0.0,0.0,0.0,0.0,0.0,0.0,0.0,0.0,0.0,0.0,0.0,0.0,0.0,0.0,0.0,0.0,0.0,0.0,0.0,0.0,0.0,0.0,0.0,0.0,0.0,0.0,0.0,0.0,0.0,0.0,0.0,0.0,0.0,0.0,0.0,0.0,0.0,0.0,0.0,0.0,0.0,0.0,0.0,0.0,0.0,0.0,0.0,0.0,0.0,0.0,0.0,0.0,0.0,0.0,0.0,0.0,0.0,0.0,0.0,0.0,0.0,0.0,0.0,0.0,0.0,0.0,0.0,0.0,0.0,0.0,0.0,0.0,0.0,0.0,0.0,0.0,0.0,0.0,0.0,0.0,0.0,0.0,0.0,0.0,0.0,0.0,0.0,0.0,0.0,0.0,0.0,0.0,0.0,0.0,0.0,0.0,0.0,0.0,0.0,0.0,0.0,0.0,0.0,0.0,0.0,0.0,0.0,0.0,0.0,0.0,0.0,0.0,0.0,0.0,0.0,0.0,0.0,0.0,0.0,0.0,0.0,0.0,0.0,0.0,0.0,0.0,0.0,0.0,0.0,0.0,0.0,0.0,0.0,0.0,0.0,0.0,0.0,0.0,0.0,0.0,0.0,0.0,0.0,0.0,0.0,0.0,0.0,0.0,0.0,0.0,0.0,0.0,0.0,0.0,0.0,0.0,0.0,0.0,0.0,0.0,0.0,0.0,0.0,0.0,0.0,0.0,0.0,0.0,0.0,0.0,0.0,0.0,0.0,0.0,0.0,0.0,0.0,0.0,0.0,0.0,0.0,0.0,0.0,0.0,0.0,0.0,0.0,0.0,0.0,0.0,0.0,0.0,0.0,0.0,0.0,0.0,0.0,0.0,0.0,0.0,0.0,0.0,0.0,0.0,0.0,0.0,0.0,0.0,0.0,0.0,0.0,0.0,0.0,0.0,0.0,0.0,0.0,0.0,0.0,0.0,0.0,0.0,0.0,0.0,0.0,0.0,0.0,0.0,0.0,0.0,0.0,0.0,0.0,0.0,0.0,0.0,0.0,0.0,0.0,0.0,0.0,0.0,0.0,0.0,0.0,0.0,0.0,0.0,0.0,0.0,0.0,0.0,0.0,0.0,0.0,0.0,0.0,0.0,0.0,0.0,0.0,0.0,0.0,0.0,0.0,0.0,0.0,0.0,0.0,0.0,0.0,0.0,0.0,0.0,0.0,0.0,0.0,0.0,0.0,0.0,0.0,0.0,0.0,0.0,0.0,0.0,0.0,0.0,0.0,0.0,0.0,0.0,0.0,0.0,0.0,0.0,0.0,0.0,0.0,0.0,0.0,0.0,0.0,0.0,0.0,0.0,0.0,0.0,0.0,0.0,0.0,0.0,0.0,0.0,0.0,0.0,0.0,0.0,0.0,0.0,0.0,0.0,0.0,0.0,0.0,0.0,0.0,0.0,0.0,0.0,0.0,0.0,0.0,0.0,0.0,0.0,0.0,0.0,0.0,0.0,0.0,0.0,0.0,0.0,0.0,0.0,0.0,0.0,0.0,0.0,0.0,0.0,0.0,0.0,0.0,0.0,0.0,0.0,0.0,0.0,0.0,0.0,0.0,0.0,0.0,0.0,0.0,0.0,0.0,0.0,0.0,0.0,0.0,0.0,0.0,0.0,0.0,0.0,0.0,0.0,0.0,0.0,0.0,0.0,0.0,0.0,0.0,0.0,0.0,0.0,0.0,0.0,0.0,0.0,0.0,0.0,0.0,0.0,0.0,0.0,0.0,0.0,0.0,0.0,0.0,0.0,0.0,0.0,0.0,0.0,0.0,0.0,0.0,0.0,0.0,0.0,0.0,0.0,0.0,0.0,0.0,0.0,0.0,0.0,0.0,0.0,0.0,0.0,0.0,0.0,0.0,0.0,0.0,0.0,0.0,0.0,0.0,0.0,0.0,0.0,0.0,0.0,0.0,0.0,0.0,0.0,0.0,0.0,0.0,0.0,0.0,0.0,0.0,0.0,0.0,0.0,0.0,0.0,0.0,0.0,0.0,0.0,0.0,0.0,0.0,0.0,0.0,0.0,0.0,0.0,0.0,0.0,0.0,0.0,0.0,0.0,0.0,0.0,0.0,0.0,0.0,0.0,0.0,0.0,0.0,0.0,0.0,0.0,0.0,0.0,0.0,0.0,0.0,0.0,0.0,0.0,0.0,0.0,0.0,0.0,0.0,0.0,0.0,0.0,0.0,0.0,0.0,0.0,0.0,0.0,0.0,0.0,0.0,0.0,0.0,0.0,0.0,0.0,0.0,0.0,0.0,0.0,0.0,0.0,0.0,0.0,0.0,0.0,0.0,0.0,0.0,0.0,0.0,0.0,0.0,0.0,0.0,0.0,0.0,0.0,0.0,0.0,0.0,0.0,0.0,0.0,0.0,0.0,0.0,0.0,0.0,0.0,0.0,0.0,0.0,0.0,0.0,0.0,0.0,0.0,0.0,0.0,0.0,0.0,0.0,0.0,0.0,0.0,0.0,0.0,0.0,0.0,0.0,0.0,0.0,0.0,0.0,0.0,0.0,0.0,0.0,0.0,0.0,0.0,0.0,0.0,0.0,0.0,0.0,0.0,0.0,0.0,0.0,0.0,0.0,0.0,0.0,0.0,0.0,0.0,0.0,0.0,0.0,0.0,0.0,0.0,0.0,0.0,0.0,0.0,0.0,0.0,0.0,0.0,0.0,0.0,0.0,0.0,0.0,0.0,0.0,0.0,0.0,0.0,0.0,0.0,0.0,0.0,0.0,0.0,0.0,0.0,0.0,0.0,0.0,0.0,0.0,0.0,0.0,0.0,0.0,0.0,0.0,0.0,0.0,0.0,0.0,0.0,0.0,0.0,0.0,0.0,0.0,0.0,0.0,0.0,0.0,0.0,0.0,0.0,0.0,0.0,0.0,0.0,0.0,0.0,0.0,0.0,0.0,0.0,0.0,0.0,0.0,0.0,0.0,0.0,0.0,0.0,0.0,0.0,0.0,0.0,0.0,0.0,0.0,0.0,0.0,0.0,0.0,0.0,0.0,0.0,0.0,0.0,0.0,0.0,0.0,0.0,0.0,0.0,0.0,0.0,0.0,0.0,0.0,0.0,0.0,0.0,0.0,0.0,0.0,0.0,0.0,0.0,0.0,0.0,0.0,0.0,0.0,0.0,0.0,0.0,0.0,0.0,0.0,0.0,0.0,0.0,0.0,0.0,0.0,0.0,0.0,0.0,0.0,0.0,0.0,0.0,0.0,0.0,0.0,0.0,0.0,0.0,0.0,0.0,0.0,0.0,0.0,0.0,0.0,0.0,0.0,0.0,0.0,0.0,0.0,0.0,0.0,0.0,0.0,0.0,0.0,0.0,0.0,0.0,0.0,0.0,0.0,0.0,0.0,0.0,0.0,0.0,0.0,0.0,0.0,0.0,0.0,0.0,0.0,0.0,0.0,0.0,0.0,0.0,0.0,0.0,0.0,0.0,0.0,0.0,0.0,0.0,0.0,0.0,0.0,0.0,0.0,0.0,0.0,0.0,0.0,0.0,0.0,0.0,0.0,0.0,0.0,0.0,0.0,0.0,0.0,0.0,0.0,0.0,0.0,0.0,0.0,0.0,0.0,0.0,0.0,0.0,0.0,0.0,0.0,0.0,0.0,0.0,0.0,0.0,0.0,0.0,0.0,0.0,0.0,0.0,0.0,0.0,0.0,0.0,0.0,0.0,0.0,0.0,0.0,0.0,0.0,0.0,0.0,0.0,0.0,0.0,0.0,0.0,0.0,0.0,0.0,0.0,0.0,0.0,0.0,0.0,0.0,0.0,0.0,0.0,0.0,0.0,0.0,0.0,0.0,0.0,0.0,0.0,0.0,0.0,0.0,0.0,0.0,0.0,0.0,0.0,0.0,0.0,0.0,0.0,0.0,0.0,0.0,0.0,0.0,0.0,0.0,0.0,0.0,0.0,0.0,0.0,0.0,0.0,0.0,0.0,0.0,0.0,0.0,0.0,0.0,0.0,0.0,0.0,0.0,0.0,0.0,0.0,0.0,0.0,0.0,0.0,0.0,0.0,0.0,0.0,0.0,0.0,0.0,0.0,0.0,0.0,0.0,0.0,0.0,0.0,0.0,0.0,0.0,0.0,0.0,0.0,0.0,0.0,0.0,0.0,0.0,0.0,0.0,0.0,0.0,0.0,0.0,0.0,0.0,0.0,0.0,0.0,0.0,0.0,0.0,0.0,0.0,0.0,0.0,0.0,0.0,0.0,0.0,0.0,0.0,0.0,0.0,0.0,0.0,0.0,0.0,0.0,0.0,0.0,0.0,0.0,0.0,0.0,0.0,0.0,0.0,0.0,0.0,0.0,0.0,0.0,0.0,0.0,0.0,0.0,0.0,0.0,0.0,0.0,0.0,0.0,0.0,0.0,0.0,0.0,0.0,0.0,0.0,0.0,0.0,0.0,0.0,0.0,0.0,0.0,0.0,0.0,0.0,0.0,0.0,0.0,0.0,0.0,0.0,0.0,0.0,0.0,0.0,0.0,0.0,0.0,0.0,0.0,0.0,0.0,0.0,0.0,0.0,0.0,0.0,0.0,0.0,0.0,0.0,0.0,0.0,0.0,0.0,0.0,0.0,0.0,0.0,0.0,0.0,0.0,0.0,0.0,0.0,0.0,0.0,0.0,0.0,0.0,0.0,0.0,0.0,0.0,0.0,0.0,0.0,0.0,0.0,0.0,0.0,0.0,0.0,0.0,0.0,0.0,0.0,0.0,0.0,0.0,0.0,0.0,3.4403,0.0,0.0,0.0,0.0,0.0,0.0,0.0,0.0,0.0,0.0,0.0,0.0,0.0,0.0,0.0,0.0,0.0,0.0,0.0,0.0,0.0,0.0,0.0,0.0,0.0,0.0,0.0,0.0,0.0,0.0,0.0,0.0,0.0,0.0,0.0,0.0,0.0,0.0,0.0,0.0,0.0,0.0,0.0,0.0,0.0,0.0,0.0,0.0,0.0,0.0,0.0,0.0,0.0,0.0,0.0,0.0,0.0,0.0,0.0,0.0,0.0,0.0,0.0,0.0,0.0,0.0,0.0,0.0,0.0,0.0,0.0,0.0,0.0,0.0,0.0,0.0,0.0,0.0,0.0,0.0,0.0,0.0,0.0,0.0,0.0,0.0,0.0,0.0,0.0,0.0,0.0,0.0,0.0,0.0,0.0,0.0,0.0,0.0,0.0,0.0,0.0,0.0,0.0,0.0,0.0,0.0,0.0,0.0,0.0,0.0,0.0,0.0,0.0,0.0,0.0,0.0,3.457,0.0,0.0,0.0,0.0,0.0,0.0,0.0,0.0,0.0,0.0,0.0,0.0,0.0,0.0,0.0,0.0,0.0,0.0,0.0,0.0,0.0,0.0,0.0,0.0,0.0,0.0,0.0,0.0,0.0,0.0,0.0,0.0,0.0,0.0,0.0,0.0,0.0,0.0,0.0,0.0,0.0,0.0,0.0,0.0,0.0,0.0,0.0,0.0,0.0,0.0,0.0,0.0,0.0,0.0,0.0,0.0,0.0,0.0,0.0,0.0,0.0,0.0,0.0,0.0,0.0,0.0,0.0,0.0,0.0,0.0,0.0,0.0,0.0,0.0,0.0,0.0,0.0,0.0,0.0,0.0,0.0,0.0,0.0,0.0,0.0,0.0,0.0,0.0,0.0,0.0,0.0,0.0,0.0,0.0,0.0,0.0,0.0,0.0,0.0,0.0,0.0,0.0,0.0,0.0,0.0,0.0,0.0,0.0,3.6065,3.6065,3.6065,3.6065,3.6715,3.7808,3.6607,3.6607,3.7293,3.488,0.0,0.0,0.0,0.0,0.0,0.0,0.0,0.0,0.0,0.0,0.0,0.0,0.0,0.0,0.0,0.0,0.0,0.0,0.0,0.0,0.0,0.0,0.0,0.0,0.0,0.0,0.0,0.0,0.0,0.0,0.0,0.0,0.0,0.0,0.0,0.0,0.0,0.0,3.7882,3.7757,3.7219,3.6279,0.0,0.0,0.0,0.0,0.0,0.0,0.0,0.0,0.0,0.0,0.0,0.0,0.0,0.0,0.0,0.0,0.0,0.0,0.0,0.0,0.0,0.0,0.0,0.0,0.0,0.0,0.0,0.0,0.0,0.0,0.0,0.0,0.0,0.0,0.0,0.0,0.0,0.0,0.0,0.0,0.0,0.0,0.0,0.0,3.643,3.6505,0.0,0.0,0.0,0.0,0.0,0.0,0.0,0.0,0.0,0.0,0.0,0.0,0.0,3.7198,3.7198,3.8465,3.9141,3.9141,3.9141,3.9141,3.9141,3.9141,3.9245,3.9413,3.9193,0.0,3.7465,3.7079,0.0,0.0,0.0,0.0,0.0,0.0,0.0,0.0,0.0,0.0,0.0,0.0,0.0,0.0,0.0,0.0,0.0,0.0,0.0,0.0,0.0,0.0,0.0,0.0,0.0,0.0,0.0,0.0,0.0,0.0,0.0,0.0,0.0,0.0,0.0,0.0,3.9025,3.9487,3.9834,3.8851,3.8161,3.7646,3.6192,0.0,0.0,0.0,0.0,0.0,0.0,0.0,0.0,0.0,0.0,0.0,0.0,0.0,0.0,0.0,0.0,0.0,0.0,0.0,0.0,0.0,0.0,0.0,0.0,0.0,0.0,0.0,0.0,0.0,0.0,0.0,0.0,0.0,0.0,0.0,0.0,0.0,0.0,0.0,0.0,0.0,0.0,3.6606,3.6757,3.77,3.7914,3.8253,0.0,0.0,0.0,0.0,0.0,0.0,0.0,0.0,0.0,3.782,3.8413,3.8752,3.8752,3.9362,3.9697,3.9697,3.9697,3.9697,3.9697,3.9697,3.9697,3.9697,3.9697,3.9349,3.8687,3.7849,3.7583,3.7767,0.0,0.0,0.0,0.0,3.8668,3.8304,0.0,0.0,0.0,0.0,0.0,0.0,0.0,0.0,0.0,0.0,0.0,0.0,0.0,0.0,0.0,0.0,0.0,0.0,0.0,0.0,0.0,0.0,0.0,0.0,0.0,0.0,0.0,0.0,3.9876,4.0397,4.0861,3.956,0.0,0.0,0.0,0.0,0.0,0.0,0.0,0.0,0.0,0.0,0.0,0.0,0.0,0.0,0.0,0.0,0.0,0.0,0.0,0.0,0.0,0.0,0.0,0.0,0.0,0.0,0.0,0.0,0.0,0.0,0.0,0.0,0.0,0.0,0.0,0.0,0.0,0.0,0.0,0.0,0.0,0.0,0.0,0.0,0.0,3.6883,3.7134,3.8492,3.8266,3.8391,0.0,0.0,0.0,0.0,0.0,0.0,3.9697,3.9697,3.9697,3.9697,3.9697,3.9697,3.9697,3.9697,3.9697,3.9697,3.9697,3.9697,3.9697,3.9697,3.9697,3.9697,3.9697,3.9697,3.9633,3.8518,3.8687,3.9581,3.8465,3.8494,3.9069,3.8969,3.8592,3.8128,0.0,0.0,0.0,0.0,0.0,0.0,0.0,0.0,0.0,0.0,0.0,0.0,0.0,0.0,0.0,0.0,0.0,0.0,0.0,0.0,0.0,0.0,0.0,0.0,0.0,0.0,0.0,4.0585,3.9839,0.0,0.0,0.0,0.0,0.0,0.0,0.0,0.0,0.0,0.0,0.0,0.0,0.0,0.0,0.0,0.0,0.0,0.0,0.0,0.0,0.0,0.0,0.0,0.0,0.0,0.0,0.0,0.0,0.0,0.0,0.0,0.0,0.0,0.0,0.0,0.0,0.0,0.0,0.0,0.0,0.0,0.0,0.0,0.0,0.0,0.0,0.0,0.0,0.0,0.0,3.7977,3.8027,0.0,0.0,0.0,0.0,3.9697,3.9697,3.9697,3.9697,3.9697,3.9697,3.9697,3.9697,3.9697,3.9697,3.9697,3.9697,3.9697,3.9697,3.9697,3.9697,3.9697,3.9697,3.9697,3.9697,3.9697,3.9685,3.9633,3.9633,3.9697,3.9633,3.962,3.9584,3.9108,3.8906,3.8718,0.0,0.0,0.0,0.0,0.0,0.0,0.0,0.0,0.0,0.0,0.0,0.0,0.0,0.0,0.0,0.0,0.0,0.0,0.0,0.0,0.0,0.0,0.0,0.0,0.0,0.0,4.1765,4.2175,0.0,0.0,0.0,0.0,0.0,0.0,0.0,0.0,0.0,0.0,0.0,0.0,0.0,0.0,0.0,0.0,0.0,0.0,0.0,0.0,0.0,0.0,0.0,0.0,0.0,0.0,0.0,0.0,0.0,0.0,0.0,0.0,0.0,0.0,0.0,0.0,0.0,0.0,0.0,0.0,0.0,0.0,0.0,0.0,0.0,0.0,0.0,0.0,0.0,0.0,0.0,3.9563,3.9028,0.0,3.9346,3.9584,3.9697,3.9697,3.9697,3.9697,3.9697,3.9697,3.9697,3.9697,3.9697,3.9697,3.9697,3.9697,3.9697,3.9697,3.9697,3.9697,3.9697,3.9697,3.9697,3.9697,3.9697,3.9697,3.9697,3.9697,3.9697,3.9697,3.9697,3.9484,3.9145,3.8994,3.863,3.8253,0.0,0.0,0.0,0.0,0.0,0.0,0.0,0.0,0.0,0.0,0.0,0.0,0.0,0.0,0.0,0.0,0.0,0.0,0.0,0.0,0.0,0.0,0.0,0.0,0.0,0.0,0.0,0.0,0.0,0.0,0.0,0.0,0.0,0.0,0.0,0.0,0.0,0.0,0.0,0.0,0.0,0.0,3.521,0.0,0.0,0.0,0.0,0.0,0.0,0.0,0.0,0.0,0.0,0.0,0.0,0.0,0.0,0.0,0.0,0.0,0.0,0.0,0.0,0.0,0.0,0.0,0.0,0.0,0.0,0.0,0.0,0.0,0.0,0.0,0.0,0.0,0.0,0.0,4.0127,4.0843,4.0107,3.9562,3.9686,3.9697,3.9697,3.9697,3.9697,3.9697,3.9697,3.9697,3.9697,3.9697,3.9697,3.9697,3.9697,3.9697,3.9697,3.9697,3.9697,3.9697,3.9697,3.9697,3.9697,3.9749,4.0173,4.0364,4.0364,4.0794,4.0982,4.0882,4.0032,3.9765,3.9814,3.9814,3.9844,3.9849,0.0,0.0,0.0,0.0,0.0,0.0,0.0,0.0,0.0,0.0,0.0,0.0,0.0,0.0,0.0,0.0,0.0,0.0,0.0,0.0,0.0,0.0,0.0,0.0,0.0,0.0,0.0,0.0,0.0,0.0,0.0,0.0,0.0,0.0,0.0,0.0,0.0,0.0,0.0,0.0,0.0,0.0,3.6237,0.0,0.0,0.0,0.0,0.0,0.0,0.0,0.0,0.0,0.0,0.0,0.0,0.0,0.0,0.0,0.0,0.0,0.0,0.0,0.0,0.0,0.0,0.0,0.0,0.0,0.0,0.0,0.0,0.0,0.0,0.0,0.0,0.0,4.1945,4.1754,4.1748,4.1679,4.1187,4.0569,3.984,3.9749,3.9697,3.9697,3.9697,3.9697,3.9697,3.9697,3.9697,3.9697,3.9697,3.9697,3.9697,3.9697,3.9697,3.9697,3.9697,3.9697,3.9697,3.9736,3.9736,3.9839,4.1119,4.1654,4.1739,4.2978,4.3504,4.3266,4.0794,4.0554,4.1654,4.1654,4.2461,4.3421,0.0,0.0,0.0,0.0,0.0,0.0,0.0,0.0,0.0,0.0,0.0,0.0,0.0,0.0,0.0,0.0,0.0,0.0,0.0,0.0,0.0,0.0,0.0,0.0,0.0,0.0,0.0,0.0,0.0,0.0,0.0,0.0,0.0,0.0,0.0,0.0,0.0,0.0,0.0,0.0,0.0,0.0,3.7343,0.0,0.0,0.0,0.0,0.0,0.0,0.0,0.0,0.0,0.0,0.0,0.0,0.0,0.0,0.0,0.0,0.0,0.0,0.0,0.0,0.0,0.0,0.0,0.0,0.0,0.0,0.0,0.0,0.0,0.0,0.0,0.0,4.4388,4.2611,4.3106,4.3638,4.3645,4.2296,4.1284,4.1106,4.0224,3.9697,3.9697,3.9697,3.9697,3.9697,3.9697,3.9697,3.9697,3.9697,3.9697,3.9697,3.9697,3.9697,3.9697,3.9697,3.9697,3.9749,4.0642,4.1082,4.1169,4.2412,4.2978,4.2978,4.3361,4.3504,4.3456,4.2738,4.2689,4.2978,4.2978,4.3218,4.3476,0.0,0.0,0.0,0.0,0.0,0.0,0.0,0.0,0.0,0.0,0.0,0.0,0.0,0.0,0.0,0.0,0.0,0.0,0.0,0.0,0.0,0.0,0.0,0.0,0.0,0.0,0.0,0.0,0.0,0.0,0.0,0.0,0.0,0.0,0.0,0.0,0.0,0.0,0.0,0.0,0.0,0.0,3.9536,3.9137,3.8635,3.8036,3.7658,3.752,3.7835,3.9819,0.0,0.0,0.0,0.0,0.0,0.0,0.0,0.0,0.0,0.0,0.0,0.0,0.0,0.0,0.0,0.0,0.0,0.0,0.0,0.0,0.0,0.0,0.0,0.0,4.5544,4.5364,4.4303,4.4761,4.5113,4.4872,4.3859,4.2978,4.2461,4.1739,4.1082,4.0554,4.0503,4.0262,3.9749,3.9697,3.9697,3.9697,3.9697,3.9697,3.9697,4.0224,4.0503,4.0503,4.1032,4.1269,4.1319,4.207,4.2412,4.2461,4.374,4.4303,4.4349,4.4872,4.507,0.0,0.0,0.0,0.0,0.0,4.507,4.507,0.0,0.0,0.0,0.0,0.0,0.0,0.0,0.0,0.0,0.0,0.0,0.0,0.0,0.0,0.0,0.0,0.0,0.0,0.0,0.0,0.0,0.0,0.0,0.0,0.0,0.0,0.0,0.0,0.0,0.0,0.0,0.0,0.0,0.0,0.0,0.0,0.0,0.0,0.0,0.0,0.0,0.0,4.1933,4.1147,4.086,4.0758,3.997,3.9702,3.9913,4.124,0.0,0.0,0.0,0.0,0.0,0.0,0.0,0.0,0.0,0.0,0.0,0.0,0.0,0.0,0.0,0.0,0.0,0.0,0.0,0.0,0.0,0.0,0.0,0.0,4.6037,4.6384,4.6384,4.6384,4.6235,4.5661,4.5494,4.4978,4.3834,4.3598,4.3026,4.1887,4.1789,4.1319,4.0173,0.0,0.0,0.0,0.0,4.0121,4.0121,4.1269,4.1789,4.1838,4.2978,4.3504,4.3504,4.3646,4.3693,4.3787,4.507,4.5584,4.5689,4.6829,4.7309,4.7062,4.4826,4.4642,4.5734,4.6873,4.7309,4.7309,0.0,0.0,0.0,0.0,0.0,0.0,0.0,0.0,0.0,0.0,0.0,0.0,0.0,0.0,0.0,0.0,0.0,0.0,0.0,0.0,0.0,0.0,0.0,0.0,0.0,0.0,0.0,0.0,0.0,0.0,0.0,0.0,0.0,0.0,0.0,0.0,0.0,0.0,0.0,0.0,0.0,0.0,4.1965,4.1804,4.1739,4.1739,4.1543,4.1478,4.1699,4.309,4.3564,4.3801,4.5211,0.0,0.0,0.0,0.0,0.0,0.0,0.0,0.0,0.0,0.0,0.0,0.0,0.0,0.0,0.0,0.0,0.0,0.0,0.0,0.0,4.692,4.7025,4.7115,4.7115,4.7115,4.7073,4.696,4.6018,4.5298,4.507,4.4116,4.3409,4.317,4.3122,4.3026,4.2786,4.2786,4.2786,4.2786,4.2786,4.2786,4.2786,4.3026,4.3122,4.3122,0.0,0.0,4.3551,4.4549,4.5024,4.5115,4.6403,4.6931,4.6975,4.7207,4.7309,4.7251,4.6785,4.6726,4.6975,4.7207,4.7309,4.7309,0.0,0.0,0.0,0.0,0.0,0.0,0.0,0.0,0.0,0.0,0.0,0.0,0.0,0.0,0.0,0.0,0.0,0.0,0.0,0.0,0.0,0.0,0.0,0.0,0.0,0.0,0.0,0.0,0.0,0.0,0.0,0.0,0.0,0.0,0.0,0.0,0.0,0.0,0.0,0.0,0.0,0.0,4.3243,4.2816,4.2645,4.2583,4.2157,4.1997,4.2221,4.3629,4.4109,4.4349,4.5776,4.5869,4.5488,0.0,0.0,0.0,0.0,0.0,0.0,0.0,0.0,0.0,0.0,0.0,0.0,0.0,0.0,4.6815,0.0,0.0,4.7309,4.7309,4.7309,4.7309,4.7309,4.7309,4.7309,4.7309,4.6726,4.6344,4.6344,4.5779,4.5161,4.4503,4.4442,4.4163,4.3551,4.3504,4.3504,4.3504,4.3504,4.3504,4.3504,4.4116,4.4442,4.4456,4.5115,4.5403,4.5403,4.6062,4.6344,4.6403,4.7019,4.7309,4.7309,4.7309,4.7309,4.7309,4.7309,4.7309,4.7309,4.7309,4.7309,4.7309,0.0,0.0,0.0,0.0,0.0,0.0,0.0,0.0,0.0,0.0,0.0,0.0,0.0,0.0,0.0,0.0,0.0,0.0,0.0,0.0,0.0,0.0,0.0,0.0,0.0,0.0,0.0,0.0,0.0,0.0,0.0,0.0,0.0,0.0,0.0,0.0,0.0,0.0,0.0,0.0,0.0,0.0,4.4862,4.4054,4.3647,4.3456,4.2769,4.2601,4.2909,4.4204,4.4706,4.5079,4.6342,4.6627,4.6454,4.6454,4.6349,0.0,0.0,0.0,0.0,0.0,0.0,0.0,0.0,0.0,4.6444,4.6309,4.6845,4.7309,4.7309,4.7309,4.7309,4.7309,4.7309,4.7309,4.7309,4.7309,4.7309,4.7309,4.7309,4.7309,4.7309,4.7309,4.6873,4.5824,4.5779,4.5298,4.4303,4.4256,4.4256,4.4256,4.4256,4.4256,4.4256,4.5252,4.5779,4.5779,4.6829,4.7309,4.7309,4.7309,4.7309,4.7309,4.7309,4.7309,4.7309,4.7309,4.7309,4.7309,4.7309,4.7309,4.7309,4.7309,4.7309,4.7309,0.0,0.0,0.0,0.0,0.0,0.0,0.0,0.0,0.0,0.0,0.0,0.0,0.0,0.0,0.0,0.0,0.0,0.0,0.0,0.0,0.0,0.0,0.0,0.0,0.0,0.0,0.0,0.0,0.0,0.0,0.0,0.0,0.0,0.0,0.0,0.0,0.0,0.0,0.0,0.0,0.0,0.0,4.6119,4.5502,4.491,4.444,4.4355,4.4747,4.5408,4.6215,4.6922,4.7628,4.8435,4.8112,4.744,4.744,0.0,4.6208,4.6208,4.6103,4.6028,4.6001,4.6213,4.6313,0.0,0.0,4.704,4.6399,4.6845,4.7309,4.7309,4.7309,4.7309,4.7309,4.7309,4.7309,4.7309,4.7309,4.7309,4.7309,4.7309,4.7309,4.7309,4.7309,4.7251,4.7121,4.7062,4.7019,4.6873,4.6873,4.6873,4.6873,4.6873,4.6873,4.6873,4.7019,4.7062,4.7062,4.7207,4.7309,4.7309,4.7309,4.7309,4.7309,4.7309,4.7309,4.7309,4.7309,4.7309,4.7309,4.7309,4.7309,4.7309,4.7309,4.7309,4.7309,0.0,0.0,0.0,0.0,0.0,0.0,0.0,0.0,0.0,0.0,0.0,0.0,0.0,0.0,0.0,0.0,0.0,0.0,0.0,0.0,0.0,0.0,0.0,0.0,0.0,0.0,0.0,0.0,0.0,0.0,0.0,0.0,0.0,0.0,0.0,0.0,0.0,0.0,0.0,0.0,0.0,0.0,4.6383,4.6119,4.5865,4.5563,4.4852,4.506,0.0,0.0,4.7293,4.8024,4.8781,4.8719,4.8401,4.8401,4.8161,0.0,4.7155,4.702,4.7079,0.0,4.7522,4.7776,4.8313,4.8765,4.8845,4.7941,4.7985,4.7988,4.7424,4.7309,4.7309,0.0,4.7309,4.7309,4.7309,4.7309,4.7309,4.7309,4.7309,4.7309,4.7309,4.7309,4.7309,4.7309,4.7309,4.7309,4.7309,4.7309,4.7309,4.7309,4.7309,4.7309,4.7309,4.7309,4.7309,4.7309,4.7309,4.7309,4.7309,4.7309,4.7309,4.7309,4.7309,4.7309,4.7309,4.7309,4.7309,4.7309,4.7309,4.7309,4.7309,4.7309,4.7309,4.7309,0.0,0.0,0.0,0.0,0.0,0.0,0.0,0.0,0.0,0.0,0.0,0.0,0.0,0.0,0.0,0.0,0.0,0.0,0.0,0.0,0.0,0.0,0.0,0.0,0.0,0.0,0.0,0.0,0.0,0.0,0.0,0.0,0.0,0.0,0.0,0.0,0.0,0.0,0.0,0.0,0.0,0.0,4.6914,4.6733,4.6664,4.6537,4.5508,4.5625,0.0,0.0,4.7597,4.8308,4.8832,4.9001,4.9001,4.9001,4.9001,4.8861,4.8193,4.8115,0.0,4.8721,4.8868,4.9252,5.0284,5.0444,5.0165,4.9416,4.9256,4.8907,4.7919,4.7722,4.7609,4.7337,4.7309,4.7309,4.7309,4.7309,4.7309,4.7309,4.7309,4.7309,4.7309,4.7309,4.7309,4.7309,4.7309,4.7309,4.7309,4.7309,4.7309,4.7309,4.7309,4.7309,4.7309,4.7309,4.7309,4.7309,4.7309,4.7309,4.7309,4.7309,4.7309,4.7309,4.7609,4.7722,4.7722,4.803,4.8172,4.8172,4.8172,4.8172,4.8172,4.8172,4.7961,4.7764,0.0,0.0,0.0,0.0,0.0,0.0,0.0,0.0,0.0,0.0,0.0,0.0,0.0,0.0,0.0,0.0,0.0,0.0,0.0,0.0,0.0,0.0,0.0,0.0,0.0,0.0,0.0,0.0,0.0,0.0,0.0,0.0,0.0,0.0,0.0,0.0,0.0,0.0,0.0,0.0,0.0,0.0,4.8172,4.7593,4.7363,4.7302,4.673,0.0,0.0,0.0,4.8376,4.8968,4.9001,4.9001,0.0,4.9001,4.9001,4.9001,4.897,0.0,5.0035,5.0038,5.0409,5.073,5.0763,5.0577,5.0397,5.0374,5.0358,5.0009,4.8948,4.8743,4.8444,4.7452,4.7309,4.7309,4.7309,4.7309,4.7309,4.7309,4.7309,4.7309,0.0,4.7309,4.7309,4.7309,4.7309,4.7309,4.7309,4.7309,4.7309,4.7309,4.7309,4.7309,4.7309,4.7309,4.7309,4.7309,4.7309,4.7309,4.7309,4.7309,4.7309,4.7337,4.8335,4.8743,4.8825,4.9891,5.0336,5.0336,5.0336,5.0336,5.0336,5.0336,4.9655,4.8907,0.0,0.0,0.0,0.0,0.0,0.0,0.0,0.0,0.0,0.0,0.0,0.0,0.0,0.0,0.0,0.0,0.0,0.0,0.0,0.0,0.0,0.0,0.0,0.0,0.0,0.0,0.0,0.0,0.0,0.0,0.0,0.0,0.0,0.0,0.0,0.0,0.0,0.0,0.0,0.0,0.0,0.0,4.8287,4.8075,4.8362,4.8846,0.0,0.0,0.0,0.0,4.8775,4.9001,4.9001,0.0,0.0,4.9001,4.9357,4.9729,4.9729,0.0,5.0963,5.1437,5.168,5.1916,5.2487,5.2495,5.2258,5.1541,5.1394,5.0838,4.9135,4.9376,4.9311,4.7581,4.7876,4.8057,4.7381,4.7309,4.7309,4.7309,4.7309,0.0,0.0,0.0,0.0,4.7309,4.7309,4.7309,4.7309,4.7309,4.7309,4.7309,4.7309,4.7309,4.7309,4.7309,4.7309,4.7309,4.7988,4.8651,4.9367,4.9367,4.9367,4.9367,4.9694,4.9852,4.9891,5.0242,5.0397,5.0397,5.0397,5.0397,5.0474,5.1155,5.1192,5.0801,0.0,0.0,0.0,0.0,0.0,0.0,0.0,0.0,0.0,0.0,0.0,0.0,0.0,0.0,0.0,0.0,0.0,0.0,0.0,0.0,0.0,0.0,0.0,0.0,0.0,0.0,0.0,0.0,0.0,0.0,0.0,0.0,0.0,0.0,0.0,0.0,0.0,0.0,0.0,0.0,0.0,0.0,4.8306,4.8306,4.8838,0.0,0.0,0.0,0.0,0.0,0.0,0.0,4.9077,4.9187,4.939,4.939,4.9915,5.049,5.049,5.1031,5.1725,5.2181,5.252,5.2858,5.3382,5.3501,5.3298,5.2627,5.247,5.1957,5.0211,5.0458,5.0397,4.8692,4.8651,4.8718,4.8418,4.8072,4.8003,4.835,4.8072,4.7834,0.0,0.0,0.0,4.7309,4.7309,4.7309,4.7309,4.7309,4.7309,4.7309,4.7651,4.7834,4.7834,4.824,4.8392,4.8434,4.9069,4.9734,5.0397,5.0397,5.0397,5.0397,5.0779,5.093,5.0968,5.1336,5.1521,5.1521,5.1521,5.1521,5.161,5.2241,5.247,5.2331,0.0,0.0,0.0,0.0,0.0,0.0,0.0,0.0,0.0,0.0,0.0,0.0,0.0,0.0,0.0,0.0,0.0,0.0,0.0,0.0,0.0,0.0,0.0,0.0,0.0,0.0,0.0,0.0,0.0,0.0,0.0,0.0,0.0,0.0,0.0,0.0,0.0,0.0,0.0,0.0,0.0,0.0,4.8306,4.8361,0.0,0.0,0.0,0.0,0.0,0.0,0.0,0.0,4.9263,4.9543,5.0101,5.0135,5.0676,5.1268,5.1268,5.1809,5.2367,5.2367,5.2942,5.3501,5.3501,5.3501,5.3501,5.3501,5.3501,5.3179,0.0,0.0,5.1614,5.055,4.9575,4.9296,5.0242,4.9536,4.9256,0.0,0.0,0.0,0.0,0.0,0.0,4.7452,0.0,4.7424,4.7467,4.7452,4.7452,4.7452,4.8377,4.8866,4.8866,4.9891,5.0451,5.049,5.049,5.0528,5.055,5.055,5.055,5.0605,5.1578,5.1993,5.2082,5.3076,5.3501,5.3501,5.3501,5.3501,5.3501,5.3501,5.3501,5.3382,0.0,0.0,0.0,0.0,0.0,0.0,0.0,0.0,0.0,0.0,0.0,0.0,0.0,0.0,0.0,0.0,0.0,0.0,0.0,0.0,0.0,0.0,0.0,0.0,0.0,0.0,0.0,0.0,0.0,0.0,0.0,0.0,0.0,0.0,0.0,0.0,0.0,0.0,0.0,0.0,0.0,0.0,4.8379,0.0,0.0,0.0,0.0,0.0,0.0,0.0,0.0,0.0,0.0,4.9949,5.0202,5.076,5.1454,5.2029,5.2029,5.2604,5.3196,5.3196,5.3348,5.3501,5.3501,5.3501,5.3501,5.3501,5.3501,5.3179,0.0,0.0,0.0,5.0665,5.0817,0.0,5.0474,5.0165,0.0,5.0358,0.0,5.0009,5.0009,4.975,0.0,0.0,4.8882,4.8759,4.9551,4.9591,4.9591,4.9591,4.9868,5.0009,5.0009,5.0242,5.0779,5.1504,5.1504,5.1938,5.2731,5.2731,5.2731,5.2731,5.299,5.311,5.311,5.3382,5.3501,5.3501,5.3501,5.3501,5.3501,5.3501,5.3501,5.3315,0.0,0.0,0.0,0.0,0.0,0.0,0.0,0.0,0.0,0.0,0.0,0.0,0.0,0.0,0.0,0.0,0.0,0.0,0.0,0.0,0.0,0.0,0.0,0.0,0.0,0.0,0.0,0.0,0.0,0.0,0.0,0.0,0.0,0.0,0.0,0.0,0.0,0.0,0.0,0.0,0.0,0.0,0.0,0.0,0.0,0.0,0.0,0.0,0.0,0.0,0.0,5.0524,5.0575,5.0791,5.115,5.1572,0.0,5.2841,5.2841,5.3162,5.3501,5.3501,5.3501,5.3501,5.3501,5.3501,5.3501,5.3501,5.3501,0.0,5.2714,5.311,0.0,0.0,0.0,0.0,5.1756,5.1373,5.1245,0.0,5.1357,0.0,5.1043,5.0665,5.0589,0.0,5.0071,4.9773,5.0358,5.0397,5.0397,5.0397,5.0817,5.1283,5.1756,5.1756,5.2062,5.2592,5.2592,5.2904,5.3501,5.3501,5.3501,5.3501,0.0,5.3501,5.3501,5.3501,5.3501,5.3501,5.3501,5.3501,5.3501,5.3501,5.3501,5.3281,0.0,0.0,0.0,0.0,0.0,0.0,0.0,0.0,0.0,0.0,0.0,0.0,0.0,0.0,0.0,0.0,0.0,0.0,0.0,0.0,0.0,0.0,0.0,0.0,0.0,0.0,0.0,0.0,0.0,0.0,0.0,0.0,0.0,0.0,0.0,0.0,0.0,0.0,0.0,0.0,0.0,0.0,0.0,0.0,0.0,0.0,0.0,0.0,0.0,0.0,5.1902,5.147,5.139,5.1857,5.2481,5.2451,5.2959,5.3501,5.3501,5.3501,5.3501,5.3501,5.3501,5.3501,5.3501,5.3501,5.3501,5.3501,0.0,5.3501,5.3501,5.3501,5.3501,5.3501,0.0,5.2435,5.3382,5.2714,5.247,5.3382,5.2679,5.2117,5.2117,5.132,5.1171,5.2046,5.132,5.0795,5.0795,5.0795,5.0795,5.0795,5.1667,5.2557,5.3501,5.3501,5.3501,5.3501,5.3501,5.3501,5.3501,5.3501,5.3501,5.3501,5.3501,0.0,5.3501,5.3501,5.3501,5.3501,5.3501,5.3501,5.3501,5.3501,5.3501,5.3298,0.0,0.0,0.0,0.0,0.0,0.0,0.0,0.0,0.0,0.0,5.0712,5.0712,0.0,0.0,0.0,0.0,0.0,0.0,0.0,0.0,0.0,0.0,0.0,0.0,0.0,0.0,0.0,0.0,0.0,0.0,0.0,0.0,0.0,0.0,0.0,0.0,0.0,0.0,0.0,0.0,0.0,0.0,0.0,0.0,0.0,0.0,0.0,0.0,0.0,0.0,5.2971,5.2837,5.2282,5.2632,5.328,5.3277,5.3399,5.3501,5.3501,5.3501,5.3501,5.3501,5.3501,5.3501,5.3501,5.3501,0.0,0.0,5.3501,5.3501,5.3501,5.3501,5.3501,5.3501,5.3348,5.3298,5.3467,5.3348,5.3298,0.0,5.3348,5.323,5.323,5.3076,0.0,0.0,5.3076,5.2956,5.2956,5.2956,5.2956,5.2956,5.3144,5.3314,5.3501,5.3501,5.3501,5.3501,5.3501,5.3501,5.3501,5.3501,5.3501,5.3501,5.3501,0.0,5.3501,5.3501,5.3501,5.3501,5.3501,5.3501,5.3501,5.3501,5.3501,5.3365,0.0,0.0,0.0,0.0,0.0,0.0,0.0,0.0,5.0472,5.0673,5.0712,5.0712,5.0712,5.0712,0.0,0.0,0.0,0.0,0.0,0.0,0.0,0.0,0.0,0.0,0.0,0.0,0.0,0.0,0.0,0.0,0.0,0.0,0.0,0.0,0.0,0.0,0.0,0.0,0.0,0.0,0.0,0.0,0.0,0.0,0.0,0.0,0.0,0.0,0.0,0.0,5.3785,5.4295,5.3172,5.3672,5.4498,5.373,5.3783,5.3994,5.3618,5.3501,5.3501,5.3501,5.3501,5.3501,5.3501,0.0,0.0,0.0,5.3501,5.3501,5.3501,5.3501,0.0,5.3501,5.3501,5.3501,5.3501,5.3501,0.0,5.3501,5.3501,5.3501,0.0,5.3501,5.3501,5.3501,5.3501,5.3501,5.3501,5.3501,5.3501,5.3501,5.3501,5.3501,5.3501,5.3501,5.3501,5.3501,5.3501,5.3501,5.3501,5.3501,5.3501,5.3501,5.3501,0.0,5.3534,5.3913,5.4074,5.4106,5.4499,5.4637,5.4637,5.4637,5.4637,5.4516,0.0,0.0,0.0,0.0,0.0,0.0,0.0,5.0139,5.0123,5.0523,5.0565,5.0604,5.0683,5.0712,5.0712,0.0,0.0,0.0,0.0,0.0,0.0,0.0,0.0,0.0,0.0,0.0,0.0,0.0,0.0,0.0,0.0,0.0,0.0,0.0,0.0,0.0,0.0,0.0,0.0,0.0,0.0,0.0,0.0,0.0,0.0,0.0,0.0,0.0,0.0,0.0,5.4271,5.5359,5.3979,5.4659,5.5667,5.4171,5.4154,5.4437,5.3684,5.3501,5.3501,5.3501,5.3501,5.3501,5.3501,5.3501,0.0,0.0,5.3501,5.3501,5.3501,5.3501,5.3501,0.0,5.3501,5.3501,5.3501,5.3501,5.3501,0.0,0.0,0.0,0.0,5.3501,0.0,5.3501,5.3501,5.3501,5.3501,5.3501,5.3501,5.3501,5.3501,5.3501,5.3501,5.3501,5.3501,5.3501,5.3501,5.3584,5.375,5.375,5.3799,5.3979,5.3979,0.0,0.0,5.4606,5.4848,5.4891,5.5477,5.5706,5.5706,5.5706,5.5706,5.5617,0.0,0.0,0.0,0.0,0.0,0.0,0.0,5.0253,4.9706,5.0092,5.0159,5.0283,5.0663,5.0712,5.0712,0.0,0.0,0.0,0.0,0.0,0.0,0.0,0.0,0.0,0.0,0.0,0.0,0.0,0.0,0.0,0.0,0.0,0.0,0.0,0.0,0.0,0.0,0.0,0.0,0.0,0.0,0.0,0.0,0.0,0.0,0.0,0.0,0.0,0.0,0.0,0.0,5.5463,5.4647,5.5487,5.651,5.4939,0.0,0.0,5.3684,5.3501,5.3501,5.3501,5.3501,5.3501,5.3501,0.0,0.0,5.3501,5.3501,5.3501,5.3501,5.3501,5.3501,5.3501,0.0,5.3501,0.0,5.3501,5.3501,0.0,0.0,0.0,0.0,0.0,0.0,5.3501,5.3501,0.0,5.3501,5.3501,5.3501,5.3501,5.3501,5.3501,5.3501,5.3501,5.3501,5.3501,5.3501,5.3865,5.4513,5.4513,5.4878,5.5495,5.5495,0.0,0.0,5.5563,5.5592,5.561,5.5678,5.5706,5.5706,5.5706,5.5706,5.5706,0.0,0.0,0.0,0.0,0.0,0.0,5.0689,5.017,4.9828,4.9749,4.9746,4.98,4.9962,4.9974,5.0171,0.0,0.0,0.0,0.0,0.0,0.0,0.0,0.0,0.0,0.0,0.0,0.0,0.0,0.0,0.0,0.0,0.0,0.0,0.0,0.0,0.0,0.0,0.0,0.0,0.0,0.0,0.0,0.0,0.0,0.0,0.0,0.0,0.0,0.0,0.0,0.0,0.0,5.5099,5.5942,0.0,0.0,5.5262,5.5203,5.4909,5.4499,5.4154,5.4154,5.4154,5.4059,5.3618,0.0,5.3501,5.3501,5.3501,5.3501,5.3501,5.3501,5.3501,0.0,0.0,0.0,5.3501,0.0,0.0,0.0,5.3501,0.0,0.0,0.0,5.3501,5.3501,5.3501,0.0,5.3501,5.3501,5.3501,5.3501,5.3501,5.3717,5.4154,5.4154,5.4374,5.4835,5.4835,5.4969,5.5262,5.5262,5.5437,5.5706,5.5706,0.0,0.0,5.6214,5.6438,5.6465,5.6909,5.708,5.708,5.708,5.708,5.708,0.0,0.0,0.0,0.0,0.0,5.1695,5.0806,5.0268,4.9888,4.9715,4.9476,4.9371,4.9475,4.9489,4.9733,5.0302,0.0,0.0,0.0,0.0,0.0,0.0,0.0,0.0,0.0,0.0,0.0,5.0514,5.0514,0.0,0.0,0.0,0.0,0.0,0.0,0.0,0.0,0.0,0.0,0.0,0.0,0.0,0.0,0.0,0.0,0.0,0.0,0.0,0.0,0.0,0.0,0.0,0.0,0.0,0.0,0.0,5.6031,5.6004,5.5762,5.532,5.4939,5.4939,5.4939,5.4787,0.0,0.0,5.3832,5.3832,5.3634,5.3501,5.3501,5.3501,5.3501,0.0,0.0,5.3501,5.3501,5.3501,0.0,0.0,0.0,5.3584,0.0,5.4027,5.4139,5.4139,5.4139,0.0,5.4139,5.4139,5.4059,5.3832,5.4027,5.4405,5.4922,5.4939,5.5173,5.5706,5.5706,5.5819,5.6031,5.6031,5.6169,5.6385,5.6385,0.0,0.0,5.6997,5.7234,5.7284,5.7815,5.7997,5.7997,5.7997,5.7997,5.7997,0.0,0.0,0.0,0.0,0.0,0.0,0.0,5.062,4.9711,5.0039,4.9399,4.9059,4.946,4.9489,4.9504,4.9504,0.0,0.0,0.0,0.0,0.0,0.0,0.0,0.0,0.0,0.0,5.0504,5.0123,5.0123,4.9911,4.9504,0.0,0.0,0.0,0.0,0.0,0.0,0.0,0.0,0.0,0.0,0.0,0.0,0.0,0.0,0.0,0.0,0.0,0.0,0.0,0.0,0.0,0.0,0.0,0.0,0.0,5.6887,5.6695,5.592,5.5678,5.5678,5.5678,5.5678,5.5678,0.0,0.0,5.4589,5.4589,5.3994,5.3501,5.3501,5.3501,5.3501,5.3501,0.0,0.0,5.3501,5.3501,0.0,0.0,0.0,5.3783,5.4513,5.5232,5.5678,5.5678,5.5678,0.0,5.5678,5.5678,5.535,5.462,5.5291,5.5678,5.5678,5.5678,5.5678,5.5706,5.5706,5.6104,5.6887,5.6887,5.7284,5.7973,0.0,0.0,0.0,5.7997,5.7997,5.7997,5.7997,5.7997,5.7997,5.7997,5.7997,5.7997,0.0,0.0,0.0,0.0,0.0,0.0,0.0,5.1555,5.1083,5.0652,4.9878,4.9418,4.9546,4.9045,4.8675,4.8675,0.0,0.0,0.0,0.0,0.0,0.0,0.0,0.0,0.0,0.0,4.9813,4.9692,4.9692,4.9617,4.9489,4.9218,4.9234,4.9475,0.0,0.0,0.0,0.0,0.0,0.0,0.0,0.0,0.0,0.0,0.0,0.0,0.0,0.0,0.0,0.0,0.0,0.0,0.0,0.0,0.0,0.0,0.0,0.0,5.7198,5.6902,5.6518,5.6518,5.6518,5.6367,5.5836,5.5506,5.535,5.535,5.5161,5.4999,5.4999,5.4999,5.4999,5.4999,5.4575,0.0,0.0,0.0,0.0,5.4939,5.4999,5.5102,0.0,0.0,5.5706,5.5706,5.5706,0.0,5.5706,5.6214,5.6177,5.5379,5.5581,5.5948,5.6518,5.6518,5.6755,5.7272,5.7272,5.7407,5.7637,5.7637,5.7774,0.0,0.0,0.0,0.0,5.7997,5.7997,5.7997,5.7997,5.7997,5.7997,5.7997,5.7997,5.7997,0.0,0.0,0.0,0.0,0.0,0.0,0.0,5.2197,5.1811,5.1316,5.0545,4.9941,4.9629,4.9114,4.8655,4.8343,0.0,0.0,0.0,0.0,0.0,0.0,0.0,0.0,0.0,4.9489,4.9431,4.928,4.928,4.9187,4.9046,4.913,4.9296,4.9533,4.9325,0.0,0.0,0.0,0.0,0.0,0.0,0.0,5.3185,0.0,0.0,0.0,0.0,0.0,0.0,0.0,0.0,0.0,0.0,0.0,0.0,0.0,5.766,0.0,0.0,5.766,5.7327,5.7327,5.7327,5.7191,5.6685,5.6349,5.6159,5.6159,5.592,5.5706,5.5706,5.5706,5.5706,5.5706,5.532,0.0,0.0,0.0,0.0,5.5667,0.0,0.0,0.0,5.6403,5.6562,5.6562,5.6562,0.0,5.6562,5.7047,5.7091,5.6588,5.6562,5.6807,5.7327,5.7327,5.754,5.7997,5.7997,5.7997,5.7997,5.7997,5.7997,0.0,0.0,0.0,0.0,5.7997,5.7997,5.7997,5.7997,5.7997,5.7997,5.7997,5.7997,5.7997,0.0,0.0,0.0,0.0,0.0,0.0,0.0,0.0,0.0,5.2087,5.1371,5.06,4.9849,4.9721,4.9334,0.0,0.0,0.0,0.0,0.0,0.0,0.0,0.0,0.0,0.0,4.9416,4.9234,4.8846,4.8846,4.8694,4.8416,4.9225,4.9629,4.9721,5.0472,0.0,0.0,0.0,0.0,0.0,5.2913,5.3185,0.0,0.0,0.0,0.0,0.0,0.0,0.0,0.0,0.0,0.0,0.0,0.0,0.0,0.0,0.0,0.0,0.0,5.7997,0.0,5.7997,5.7997,5.7997,5.7997,5.7474,0.0,5.6989,5.6394,5.5847,5.5847,5.5847,5.5847,5.5847,5.5819,5.5791,0.0,5.5847,0.0,0.0,5.6518,0.0,5.6989,5.7589,5.7997,5.7997,0.0,0.0,5.7997,5.7997,5.7997,5.7997,5.7997,5.7997,5.7997,5.7997,5.7997,5.7997,5.7997,5.7997,5.7997,5.7997,5.7997,0.0,0.0,0.0,0.0,5.7997,5.7997,5.7997,5.8024,5.8047,5.8047,5.8092,5.8097,5.8097,0.0,0.0,0.0,0.0,0.0,0.0,0.0,0.0,0.0,0.0,5.2215,5.1646,5.1444,5.0894,5.0178,0.0,0.0,0.0,0.0,0.0,0.0,0.0,0.0,0.0,0.0,4.8568,4.8532,4.8439,4.8439,4.8733,4.9317,4.95,4.9941,5.0527,5.0729,0.0,0.0,0.0,0.0,0.0,5.3112,5.3185,0.0,0.0,0.0,0.0,5.3185,5.3185,0.0,0.0,0.0,0.0,0.0,0.0,0.0,0.0,5.7997,5.7997,5.7997,0.0,5.7997,5.7997,5.7997,5.7997,0.0,5.7862,5.775,5.775,0.0,5.7456,5.7456,5.7456,5.7456,5.7456,5.6997,5.6799,5.7364,0.0,0.0,5.7456,5.7637,5.775,5.775,5.7886,5.7997,5.7997,0.0,5.7997,5.7997,5.7997,5.7997,5.7997,5.7997,5.7997,5.7997,5.7997,5.7997,5.7997,5.7997,5.7997,5.7997,5.7997,5.7997,0.0,0.0,0.0,5.7997,5.7997,5.7997,5.8042,5.8397,5.8547,5.857,5.8951,5.9065,5.9065,0.0,0.0,0.0,0.0,0.0,0.0,0.0,0.0,0.0,0.0,0.0,0.0,0.0,0.0,0.0,0.0,0.0,0.0,0.0,0.0,0.0,0.0,0.0,0.0,4.8306,4.8306,4.8306,4.8306,4.8306,4.8746,4.961,4.9996,5.0582,5.1371,5.1738,5.2142,5.2582,5.3023,5.3185,5.3185,5.3185,0.0,0.0,0.0,0.0,0.0,5.3185,5.3185,0.0,5.3185,5.3739,5.4546,0.0,0.0,0.0,0.0,5.7997,5.7997,5.7997,5.7997,5.7997,5.7997,5.7997,5.7997,5.7997,0.0,0.0,0.0,0.0,0.0,0.0,5.7997,5.7997,5.7997,5.7679,0.0,0.0,0.0,5.7997,5.7997,5.7997,5.7997,0.0,0.0,5.7997,0.0,0.0,5.7997,5.7997,5.7997,5.7997,5.7997,5.7997,5.7997,5.7997,5.7997,5.7997,5.7997,5.7997,5.7813,5.7464,5.7831,5.7795,0.0,0.0,0.0,5.802,5.8216,5.8307,5.8372,5.8835,5.9009,5.9047,5.932,5.9389,5.9389,0.0,0.0,0.0,0.0,0.0,0.0,0.0,0.0,0.0,0.0,0.0,0.0,0.0,0.0,0.0,0.0,0.0,0.0,0.0,0.0,0.0,0.0,0.0,4.8306,4.8306,4.8306,4.8306,4.8306,4.8434,4.893,4.9812,5.06,5.1408,5.2197,5.2913,5.3185,5.3185,5.3185,5.3185,5.3185,5.3185,0.0,0.0,0.0,0.0,0.0,0.0,0.0,0.0,5.3185,5.383,5.4693,5.5372,0.0,0.0,0.0,0.0,0.0,5.7997,5.7997,5.7997,5.7997,5.7997,5.7997,5.7997,0.0,0.0,0.0,0.0,0.0,0.0,5.7997,0.0,0.0,0.0,0.0,5.7997,5.7997,5.7997,5.7997,5.7997,0.0,5.7997,5.7997,5.7997,0.0,0.0,5.7997,5.7997,5.7997,5.7997,5.7997,5.807,5.8041,5.7913,5.7859,5.7813,5.7813,5.7685,5.7308,5.6732,5.7394,5.7405,5.6863,0.0,0.0,5.8072,5.8596,5.8796,5.8855,5.9319,5.9511,5.9528,5.9595,5.9611,5.9611,0.0,0.0,0.0,0.0,0.0,0.0,0.0,0.0,0.0,0.0,0.0,0.0,0.0,0.0,0.0,0.0,0.0,0.0,0.0,0.0,0.0,0.0,4.8691,4.8306,4.8306,4.8306,4.8306,4.8306,4.904,4.9831,5.0637,5.1444,5.2252,5.3023,5.313,5.3185,5.3185,5.3185,5.3185,5.3185,5.3185,0.0,0.0,0.0,0.0,0.0,0.0,0.0,0.0,5.3185,5.4197,5.5427,5.5556,0.0,0.0,0.0,0.0,0.0,5.7997,5.7997,5.7997,5.7997,5.7997,5.7997,5.7997,0.0,0.0,0.0,0.0,0.0,0.0,5.7997,5.7997,0.0,0.0,5.7997,0.0,0.0,5.7997,5.7997,0.0,5.7997,5.7997,5.7997,0.0,0.0,0.0,5.7997,5.7997,5.7997,5.7997,5.7997,5.8394,5.8236,5.7489,5.7136,5.6987,5.6987,5.629,5.6071,5.6282,5.6412,5.6629,5.6925,0.0,5.8087,5.8144,5.8966,5.9284,5.9337,5.9823,5.9996,6.004,6.0437,6.0597,6.0597,0.0,0.0,0.0,0.0,0.0,0.0,0.0,0.0,0.0,0.0,0.0,0.0,0.0,0.0,0.0,0.0,0.0,0.0,0.0,0.0,0.0,5.0251,4.9866,4.9444,4.9003,4.9003,4.9224,4.9664,5.005,5.0655,5.1463,5.227,5.2858,5.3185,5.3185,5.3185,5.3185,5.3185,5.3185,5.3185,0.0,0.0,0.0,0.0,0.0,0.0,0.0,0.0,0.0,0.0,5.4271,5.5614,5.5614,0.0,0.0,0.0,0.0,0.0,5.7997,5.7997,5.7997,5.7997,5.7997,5.7997,5.7997,0.0,0.0,0.0,0.0,0.0,0.0,0.0,5.7997,5.7997,0.0,5.8394,5.8394,5.8591,5.8755,0.0,0.0,5.8755,5.8755,5.8755,0.0,0.0,0.0,0.0,5.8755,5.8755,5.8755,5.8755,5.8971,5.8653,5.7791,5.7154,5.6852,5.6851,5.6479,5.6183,5.5935,5.6385,5.6454,5.6319,0.0,5.8091,5.8184,5.9301,5.9773,5.982,6.0278,6.0482,6.0495,6.0714,6.08,6.08,0.0,0.0,0.0,0.0,0.0,0.0,0.0,0.0,0.0,0.0,0.0,0.0,0.0,0.0,0.0,0.0,0.0,0.0,0.0,0.0,5.1279,5.1096,5.1077,5.0692,4.9904,4.9886,5.0178,5.0802,5.0986,5.1481,5.2289,5.2913,5.3185,5.3185,5.3185,5.3316,5.3482,5.3482,5.3592,5.3757,0.0,0.0,0.0,0.0,0.0,0.0,0.0,0.0,0.0,0.0,0.0,0.0,0.0,0.0,0.0,5.7997,5.7997,5.7997,5.7997,5.7997,5.7997,5.7997,0.0,5.8042,5.8142,0.0,0.0,0.0,0.0,0.0,0.0,5.8329,0.0,5.8329,5.8632,5.8874,5.8874,5.9158,5.9389,5.9389,5.9389,5.9389,5.9389,0.0,0.0,0.0,0.0,0.0,5.9389,5.9389,5.9389,5.9389,5.9511,5.9051,5.7978,5.7466,5.7021,5.6623,5.6434,5.6066,5.5574,5.6201,5.6192,5.5803,5.7437,5.8158,5.8265,5.9679,6.0264,6.0311,6.0647,6.08,6.08,6.08,6.08,6.08,0.0,0.0,0.0,0.0,0.0,0.0,0.0,0.0,0.0,0.0,0.0,0.0,0.0,0.0,0.0,0.0,0.0,0.0,0.0,0.0,5.2692,5.194,5.1903,5.1536,5.0729,5.071,5.0747,5.0802,5.1555,5.2325,5.3115,5.3167,5.3185,5.3185,5.3185,5.361,5.4308,5.4308,5.473,5.5354,5.4601,0.0,0.0,0.0,0.0,0.0,0.0,0.0,0.0,0.0,0.0,0.0,0.0,0.0,5.7997,5.7997,5.7997,5.7997,5.7997,5.7997,5.7997,5.7997,5.7997,0.0,5.8547,5.8652,0.0,0.0,0.0,0.0,0.0,5.9302,5.9302,5.9302,5.9319,5.9337,5.9337,0.0,5.9389,5.9389,5.9389,5.9389,5.9389,0.0,0.0,0.0,0.0,0.0,5.9389,5.9389,5.9389,5.9389,5.9804,5.9278,5.7649,5.8017,5.7384,5.5788,5.5015,5.4837,5.5143,5.52,5.5403,5.5791,5.754,5.8289,5.8404,6.0061,6.0746,6.0757,6.08,6.08,6.08,6.08,6.08,6.08,0.0,0.0,0.0,0.0,0.0,0.0,0.0,0.0,0.0,0.0,0.0,0.0,0.0,0.0,0.0,0.0,0.0,0.0,0.0,0.0,5.3078,5.2766,5.2747,5.2601,5.2307,5.1793,5.1793,5.2307,5.2601,5.2913,5.3185,5.3185,5.3185,5.3185,5.3185,5.3665,5.4399,5.4399,5.4858,5.5578,5.5262,5.484,0.0,0.0,0.0,0.0,0.0,0.0,0.0,0.0,5.4932,5.5739,0.0,5.7354,5.7997,5.7997,5.8213,5.8439,5.8439,5.8652,5.8874,5.8874,5.8874,0.0,0.0,0.0,0.0,0.0,0.0,0.0,0.0,0.0,5.9389,5.9389,5.9644,5.9839,5.9839,6.0103,6.0264,6.0264,6.0264,6.0264,0.0,0.0,0.0,0.0,0.0,0.0,6.0264,6.0264,6.0264,6.0264,6.0437,5.9735,5.8054,5.8212,5.7435,5.5702,5.539,5.5319,5.5477,5.5477,5.5854,5.6579,5.778,5.8588,5.9146,6.0319,6.08,6.08,6.08,6.08,6.08,6.08,6.08,6.08,0.0,0.0,0.0,0.0,0.0,0.0,0.0,0.0,0.0,0.0,0.0,0.0,0.0,0.0,0.0,0.0,0.0,0.0,0.0,5.3185,5.3185,5.3185,5.3185,5.3185,5.3185,5.2656,5.2656,5.3185,5.3185,5.3185,5.3185,5.3185,5.3185,5.3185,5.3185,5.3665,5.4399,5.4399,5.5005,5.5959,5.5684,5.5409,0.0,0.0,0.0,0.0,0.0,0.0,0.0,0.0,5.5958,0.0,0.0,0.0,0.0,0.0,5.8461,5.8735,5.8874,5.9158,5.9389,5.9389,0.0,0.0,0.0,0.0,0.0,0.0,0.0,0.0,0.0,0.0,0.0,0.0,6.0118,6.0324,6.0324,6.061,6.08,6.08,6.08,6.08,0.0,0.0,0.0,0.0,0.0,0.0,0.0,6.08,6.08,6.08,6.08,5.9992,5.8319,5.83,5.7434,5.5703,5.5703,5.5703,5.5703,5.5972,5.6445,5.706,5.8184,5.8992,5.9569,6.0435,6.08,6.08,6.08,6.08,6.08,6.08,6.08,6.08,0.0,0.0,0.0,0.0,0.0,0.0,0.0,0.0,0.0,0.0,0.0,0.0,0.0,0.0,0.0,0.0,0.0,0.0,5.3185,5.3185,5.3185,5.3185,5.3185,5.3185,5.3185,5.3185,5.3185,5.3185,5.3185,5.3185,5.3185,5.3185,5.3185,5.3185,5.3185,5.3665,5.4399,5.4399,5.5317,5.673,5.5923,5.6069,5.6712,0.0,0.0,0.0,0.0,0.0,0.0,0.0,5.8199,5.8245,0.0,0.0,0.0,0.0,5.8715,5.8815,5.9266,5.9407,5.9407,0.0,0.0,0.0,0.0,0.0,0.0,0.0,0.0,6.08,6.08,0.0,0.0,6.08,6.08,6.08,6.08,6.08,6.08,6.08,6.08,6.08,0.0,0.0,0.0,0.0,0.0,0.0,0.0,6.08,6.08,6.08,6.08,5.9992,5.8338,5.8319,5.7434,5.5722,5.5722,5.5722,5.5742,5.6618,5.7003,5.7118,5.8781,5.9492,5.9588,6.0435,6.08,6.08,6.08,6.08,6.08,6.08,6.08,6.08,0.0,0.0,0.0,0.0,0.0,0.0,0.0,0.0,0.0,0.0,0.0,0.0,0.0,0.0,0.0,0.0,0.0,0.0,5.3185,5.3185,5.3185,5.3185,5.3185,5.3185,5.3185,5.3185,5.3185,5.3185,5.3185,5.3185,5.3185,5.3185,5.3185,5.3185,5.3185,5.3665,5.4399,5.4399,5.5005,5.5978,5.6308,5.6253,5.6022,0.0,0.0,0.0,0.0,0.0,0.0,0.0,0.0,0.0,0.0,0.0,0.0,5.9176,5.9443,5.9709,5.9855,6.0132,0.0,6.0378,0.0,0.0,0.0,0.0,0.0,0.0,0.0,6.08,6.08,0.0,0.0,6.08,6.08,6.08,6.08,6.08,6.08,6.08,6.08,0.0,0.0,0.0,0.0,0.0,0.0,0.0,0.0,6.08,6.08,6.08,6.08,6.0262,5.9146,5.9146,5.8607,5.753,5.753,5.7203,5.6618,5.6887,5.7638,5.8781,5.9281,5.9858,6.0435,6.0685,6.08,6.08,6.08,6.08,6.08,6.08,6.08,6.0816,0.0,0.0,0.0,0.0,0.0,0.0,0.0,0.0,0.0,0.0,0.0,0.0,0.0,0.0,0.0,0.0,0.0,0.0,0.0,0.0,5.2875,5.3185,5.3185,5.3185,5.3185,5.3185,5.3185,5.3185,5.3185,5.3185,5.3185,5.3185,5.3185,5.3185,5.3185,5.3482,5.3922,5.3922,5.4399,5.5188,5.5996,5.6216,5.6209,0.0,0.0,0.0,0.0,0.0,0.0,0.0,0.0,0.0,0.0,0.0,0.0,5.9677,5.9885,6.0146,6.0324,6.0578,0.0,6.08,6.08,6.08,6.08,0.0,0.0,0.0,0.0,6.08,6.08,6.08,0.0,6.08,6.08,6.08,6.08,6.08,6.08,6.08,6.08,0.0,0.0,0.0,0.0,0.0,0.0,0.0,0.0,6.08,6.08,6.08,6.08,6.0377,5.9511,5.9492,5.9108,5.83,5.83,5.8184,5.7992,5.7992,5.8531,5.9511,5.9877,6.03,6.08,6.08,6.08,6.08,6.08,6.0823,6.0882,6.0882,6.0934,6.1001,0.0,0.0,0.0,0.0,0.0,0.0,0.0,0.0,0.0,0.0,0.0,0.0,0.0,0.0,0.0,0.0,0.0,0.0,0.0,0.0,5.2404,5.3082,5.3164,5.3185,5.3185,5.3185,5.3185,5.3185,5.3185,5.3185,5.3185,5.3185,5.3185,5.3185,5.3185,5.3185,5.3185,5.3185,5.3665,5.4473,5.5262,5.6069,5.6944,5.8273,0.0,0.0,0.0,0.0,0.0,0.0,0.0,0.0,6.0311,6.0161,6.0161,6.0161,6.0161,6.025,6.069,6.08,0.0,6.08,6.08,0.0,6.08,6.08,6.08,6.08,0.0,6.08,6.08,6.08,6.08,6.08,6.08,6.08,6.08,6.08,6.08,6.08,0.0,0.0,0.0,0.0,0.0,0.0,0.0,0.0,0.0,6.08,6.08,6.08,6.08,6.0416,5.9627,5.9627,5.9261,5.8531,5.8531,5.8927,5.9622,5.9542,5.955,5.9665,6.0454,6.08,6.08,6.08,6.0804,6.0827,6.0827,6.0904,6.1031,6.1031,6.1131,6.1309,0.0,0.0,0.0,0.0,0.0,0.0,0.0,0.0,0.0,0.0,0.0,0.0,0.0,0.0,0.0,0.0,0.0,0.0,0.0,0.0,5.2159,5.2335,5.2875,5.3185,5.3185,5.3185,5.3185,5.3185,5.3185,5.3185,5.3185,5.3185,5.3185,5.3185,5.3185,5.3185,5.3185,5.3185,5.3665,5.4473,5.5262,5.6069,5.6989,5.8614,5.9302,0.0,0.0,0.0,0.0,0.0,0.0,0.0,6.069,6.0647,6.0647,6.0647,6.0647,6.0678,6.0769,6.08,0.0,0.0,6.08,6.08,6.08,6.08,6.08,6.08,6.08,6.08,6.08,6.08,6.08,6.08,6.08,6.08,6.08,6.08,6.08,6.08,0.0,0.0,0.0,0.0,0.0,0.0,0.0,0.0,6.08,6.08,6.08,6.08,6.08,6.0704,6.0512,6.0512,6.0435,0.0,6.0262,6.0404,6.0644,5.9854,5.9877,6.0531,6.0723,6.08,6.08,6.08,6.0869,6.0963,6.0963,6.1065,6.1234,6.1234,6.1259,6.132,0.0,0.0,0.0,0.0,0.0,0.0,0.0,0.0,0.0,0.0,0.0,0.0,0.0,0.0,0.0,0.0,0.0,0.0,0.0,0.0,0.0,5.2071,5.2809,5.3185,5.3185,5.3185,5.3185,5.3185,5.3185,5.3185,0.0,0.0,0.0,5.3185,0.0,5.3185,5.3222,5.361,5.4014,5.4509,5.5702,5.6436,5.6993,5.8747,5.9389,5.9509,6.045,0.0,0.0,0.0,0.0,0.0,0.0,0.0,6.08,6.08,6.08,6.08,6.08,0.0,0.0,6.08,0.0,6.08,6.08,6.0856,6.0904,6.0904,6.0845,6.08,6.08,6.08,6.08,6.08,6.08,6.08,6.08,6.08,6.08,6.08,0.0,0.0,0.0,0.0,0.0,0.0,0.0,6.08,6.08,6.08,6.0831,6.0894,6.0904,6.0935,6.1037,6.1037,6.1037,6.1037,6.1037,6.1087,6.1131,6.0594,6.0611,6.1037,6.1037,6.1037,6.1037,6.1037,6.1068,6.1131,6.1131,6.124,6.1407,6.1407,6.144,6.1504,0.0,0.0,0.0,0.0,0.0,0.0,0.0,0.0,0.0,0.0,0.0,0.0,0.0,0.0,0.0,0.0,0.0,0.0,0.0,0.0,0.0,0.0,5.2809,5.3185,5.3185,5.3185,5.3185,5.3185,0.0,0.0,0.0,0.0,0.0,5.3185,0.0,5.3277,5.3463,5.4124,5.4564,5.4932,5.6271,5.6895,5.7195,5.8784,5.9389,5.9509,6.045,6.08,6.08,6.08,0.0,0.0,0.0,0.0,6.08,6.08,6.08,6.08,6.08,0.0,6.0834,6.0888,6.0899,0.0,6.0899,6.0973,6.1056,6.1056,6.0954,6.0899,6.0899,6.0899,6.0899,6.0899,6.0899,6.0899,6.0899,6.0899,6.0899,6.0899,0.0,0.0,0.0,0.0,0.0,0.0,0.0,6.0899,6.0899,6.0899,6.0944,6.1048,6.1056,6.1123,6.1303,6.1303,6.1303,6.1309,6.1312,6.1323,6.1348,6.1349,6.1334,6.1303,6.1303,6.1303,6.1303,6.1303,6.1301,6.1323,6.1323,6.1424,6.1522,6.1522,6.1608,6.1699,0.0,0.0,0.0,0.0,0.0,0.0,0.0,0.0,0.0,0.0,0.0,0.0,0.0,0.0,0.0,0.0,0.0,0.0,5.1024,0.0,0.0,5.2083,5.2809,5.3185,5.3185,5.3185,5.3185,5.3185,0.0,0.0,0.0,0.0,0.0,5.3185,0.0,0.0,5.4252,5.4344,5.5207,5.651,5.6712,5.7226,5.7949,5.9009,5.9389,5.9509,6.045,6.08,6.08,6.08,6.08,0.0,0.0,0.0,6.08,6.08,6.08,6.08,0.0,0.0,6.1025,0.0,6.124,6.124,0.0,0.0,6.1253,0.0,6.1253,6.124,6.124,6.124,6.124,6.124,6.124,6.124,6.124,6.124,6.124,6.124,0.0,0.0,0.0,0.0,0.0,0.0,6.124,6.124,6.124,6.124,6.1234,6.1253,6.1253,6.1265,6.1303,6.1303,6.1303,6.1309,6.1424,6.1465,6.1488,6.1585,6.1515,6.1303,6.1303,6.1303,6.1303,6.1303,6.1359,6.1465,6.1465,6.1551,6.1679,6.1679,6.1679,6.1699,0.0,0.0,0.0,0.0,0.0,0.0,0.0,0.0,0.0,0.0,0.0,0.0,0.0,0.0,0.0,5.1183,5.1185,5.1185,5.1185,5.1479,5.179,5.2147,5.243,5.2769,5.3185,5.3185,5.3185,0.0,0.0,0.0,0.0,5.3185,5.3185,0.0,0.0,0.0,0.0,5.5372,5.6161,5.684,5.7299,5.7685,5.807,5.8755,5.9176,5.9475,6.0161,6.0578,6.08,6.08,6.08,6.08,6.08,0.0,0.0,0.0,6.08,6.0827,6.0894,6.1034,6.1193,0.0,6.1303,6.1303,6.1303,0.0,6.14,6.14,6.1465,6.1488,6.1337,6.1303,6.1303,6.1303,6.1303,6.1303,6.1303,6.1303,6.1303,6.1303,0.0,0.0,0.0,0.0,0.0,0.0,6.1303,6.1303,6.1303,6.1303,6.1323,6.142,6.14,6.1448,6.1515,6.1517,6.1517,6.1517,6.1582,6.1609,6.161,6.1679,6.1634,6.1517,6.1517,6.1517,6.1517,6.1517,6.1553,6.1609,6.1609,6.1656,6.1699,6.1699,6.1699,6.1699,0.0,0.0,0.0,0.0,0.0,0.0,0.0,0.0,0.0,0.0,0.0,0.0,0.0,0.0,0.0,0.0,5.1792,5.1708,5.1505,5.1648,5.1882,5.2192,5.2319,5.2645,5.3185,5.3185,0.0,0.0,0.0,0.0,5.3185,5.3185,5.3295,0.0,5.4124,5.4509,0.0,0.0,0.0,0.0,0.0,5.7997,5.8047,5.8526,5.899,5.9458,5.9931,6.0411,6.08,6.08,6.08,6.08,6.08,6.08,0.0,0.0,0.0,0.0,0.0,0.0,6.1349,6.1383,6.1392,6.1392,0.0,0.0,6.1549,0.0,6.1633,6.1635,6.144,6.1392,6.1392,6.1392,6.1392,6.1392,6.1392,6.1392,6.1392,0.0,0.0,0.0,0.0,0.0,0.0,0.0,6.1392,6.1392,6.1392,6.1392,6.1448,6.1547,6.1549,6.1606,6.1699,6.1699,6.1699,6.1699,6.1699,6.1699,6.1699,6.1699,6.1699,6.1699,6.1699,6.1699,6.1699,6.1699,6.1699,6.1699,6.1699,6.1699,6.1699,6.1699,6.1699,6.1699,0.0,0.0,0.0,0.0,0.0,0.0,0.0,0.0,0.0,0.0,0.0,0.0,5.2164,5.2249,5.2553,5.3315,5.3382,5.3061,5.23,5.2886,5.2968,5.2218,5.2795,0.0,5.3203,5.3185,0.0,0.0,0.0,0.0,5.3185,5.3185,5.361,5.4344,5.4381,5.4821,5.5574,0.0,0.0,0.0,0.0,0.0,0.0,5.8526,5.899,5.9458,5.9931,6.0411,6.08,6.08,6.08,6.08,6.08,6.08,6.0819,0.0,0.0,0.0,0.0,6.1475,0.0,6.1656,6.1679,0.0,0.0,0.0,6.1699,6.1699,6.1699,6.1699,6.1679,6.1679,6.1679,6.1679,6.1679,6.1679,6.1679,6.1679,6.1679,0.0,0.0,0.0,0.0,0.0,0.0,0.0,6.1679,6.1679,6.1679,6.1679,6.1679,6.1699,6.1699,6.1699,6.1699,6.1699,6.1699,6.1699,6.1699,6.1699,6.1699,6.1699,6.1699,6.1699,6.1699,6.1699,6.1699,6.1699,6.1699,6.1699,6.1699,6.1699,6.1699,6.1699,6.1699,6.1699,0.0,0.0,0.0,0.0,0.0,0.0,0.0,0.0,0.0,0.0,0.0,0.0,0.0,5.3078,5.3196,5.3484,5.3501,5.3382,5.3095,5.2816,5.2977,5.3667,5.2972,5.2989,5.3956,5.3463,0.0,0.0,0.0,5.3185,5.3185,5.3185,5.3628,5.4418,5.4932,5.5611,5.6418,5.7226,0.0,0.0,0.0,0.0,0.0,0.0,0.0,0.0,0.0,0.0,6.08,6.08,6.08,6.08,6.08,6.08,6.0831,6.0973,6.1195,0.0,0.0,0.0,0.0,6.1699,6.1699,6.1699,6.1699,6.1699,6.1699,6.1699,6.1699,6.1699,6.1699,6.1699,6.1699,6.1699,6.1699,6.1699,6.1699,6.1699,6.1699,0.0,0.0,0.0,0.0,0.0,0.0,0.0,0.0,6.1699,6.1699,6.1699,6.1699,6.1699,6.1699,6.1699,6.1699,6.1699,6.1699,6.1699,6.1699,6.1699,6.1699,6.1699,6.1699,6.1699,6.1699,6.1699,6.1699,6.1699,6.1699,6.1699,6.1699,6.1699,6.1699,6.1699,6.1699,6.1699,0.0,0.0,0.0,0.0,0.0,0.0,0.0,0.0,0.0,0.0,0.0,0.0,0.0,0.0,5.3501,5.3501,5.3501,5.3501,5.3501,5.301,5.3247,5.4451,5.3527,5.3429,5.4378,0.0,0.0,0.0,0.0,0.0,0.0,5.3185,5.3775,5.4821,5.5354,5.6051,0.0,0.0,0.0,5.7997,0.0,0.0,5.8024,0.0,0.0,0.0,0.0,0.0,6.08,6.08,6.08,6.08,6.08,6.0877,6.0983,0.0,0.0,0.0,6.1575,0.0,0.0,0.0,0.0,6.1699,6.1699,6.1699,6.1699,6.1699,6.1699,6.1699,6.1699,6.1699,6.1699,6.1699,6.1699,6.1699,6.1699,6.1699,6.1699,0.0,0.0,0.0,0.0,0.0,0.0,0.0,0.0,0.0,6.1699,6.1699,6.1699,6.1699,6.1699,6.1699,6.1699,6.1699,6.1699,6.1699,6.1699,6.1699,6.1699,6.1699,6.1699,6.1699,6.1699,6.1699,6.1699,6.1699,6.1699,6.1699,6.1699,6.1699,6.1699,6.1699,6.1699,6.1699,0.0,0.0,0.0,0.0,0.0,0.0,0.0,0.0,0.0,0.0,0.0,0.0,0.0,0.0,0.0,5.3501,5.3501,5.3501,5.3501,5.3501,5.383,5.4504,5.45,5.4486,5.4451,0.0,0.0,0.0,0.0,0.0,0.0,0.0,5.4087,5.5614,5.5611,5.6069,5.6895,0.0,5.7997,5.7997,0.0,5.7997,5.7997,0.0,0.0,0.0,5.9424,6.0025,0.0,6.08,0.0,0.0,0.0,0.0,0.0,0.0,0.0,0.0,0.0,0.0,0.0,0.0,0.0,0.0,6.1699,0.0,6.1699,6.1699,6.1699,6.1699,6.1699,6.1699,6.1699,6.1699,6.1699,6.1699,6.1699,6.1699,6.1699,0.0,0.0,0.0,0.0,0.0,0.0,0.0,6.1699,6.1699,6.1699,6.1699,6.1699,6.1699,6.1699,6.1699,6.1699,6.1699,6.1699,6.1699,6.1699,6.1699,6.1699,6.1699,6.1699,6.1699,6.1699,6.1699,6.1699,6.1699,6.1699,6.1699,6.1699,6.1699,6.1699,6.1699,6.1699,6.1699,0.0,0.0,0.0,0.0,0.0,0.0,0.0,0.0,0.0,0.0,0.0,0.0,5.3501,5.3501,5.3501,5.3501,5.3501,5.3501,5.3501,5.3501,5.4053,5.532,5.4811,5.4737,5.5258,0.0,0.0,0.0,0.0,0.0,0.0,0.0,0.0,0.0,5.6198,5.6914,5.7685,5.7905,0.0,5.7997,5.7997,5.7997,0.0,0.0,0.0,0.0,0.0,6.0578,6.08,0.0,6.08,6.08,0.0,0.0,0.0,0.0,0.0,0.0,6.1699,0.0,0.0,0.0,0.0,0.0,0.0,0.0,6.1699,6.1699,6.1699,6.1699,6.1699,6.1699,6.1699,6.1699,6.1699,6.1699,6.1699,6.1699,6.1699,0.0,0.0,0.0,0.0,0.0,0.0,0.0,6.1699,6.1699,6.1699,6.1699,6.1699,6.1699,6.1699,6.1699,6.1699,6.1699,6.1699,6.1699,6.1699,6.1699,6.1699,6.1699,6.1699,6.1699,6.1699,6.1699,6.1699,6.1699,6.1699,6.1699,6.1699,6.1699,6.1699,6.1699,6.1699,6.1699,0.0,0.0,0.0,0.0,0.0,0.0,0.0,0.0,0.0,0.0,0.0,0.0,0.0,0.0,5.3501,5.3501,5.3501,5.3501,5.3501,5.3501,5.4171,5.5621,5.5235,5.5185,5.5588,0.0,0.0,0.0,0.0,0.0,0.0,0.0,0.0,0.0,0.0,0.0,0.0,0.0,0.0,0.0,5.7997,0.0,0.0,5.8834,5.923,0.0,0.0,0.0,6.08,6.08,6.08,0.0,0.0,0.0,0.0,0.0,0.0,0.0,0.0,0.0,0.0,0.0,0.0,0.0,6.1699,6.1699,6.1699,0.0,6.1699,6.1699,6.1699,6.1699,6.1699,6.1699,6.1699,6.1699,6.1699,6.1699,6.1699,0.0,0.0,0.0,0.0,6.1699,6.1699,6.1699,6.1699,6.1699,6.1699,6.1699,6.1699,6.1699,6.1699,6.1699,6.1699,6.1699,6.1699,6.1699,6.1699,6.1699,6.1699,6.1699,6.1699,6.1699,6.1699,6.1699,6.1699,6.1699,6.1699,6.1699,6.1699,6.1699,6.1699,6.1699,6.1699,6.1699,0.0,0.0,0.0,0.0,0.0,0.0,0.0,0.0,0.0,0.0,0.0,0.0,0.0,0.0,0.0,0.0,5.3501,5.3501,5.3501,5.3501,5.4171,5.5621,5.5706,5.5668,5.5588,0.0,0.0,0.0,0.0,0.0,0.0,0.0,0.0,0.0,0.0,0.0,0.0,0.0,0.0,5.7997,5.7997,5.7997,0.0,0.0,5.9028,5.9477,5.9996,6.0456,6.08,6.08,6.08,0.0,0.0,0.0,0.0,0.0,6.1472,0.0,0.0,0.0,0.0,0.0,0.0,0.0,6.1699,6.1699,6.1679,0.0,6.1678,6.1657,6.1657,6.1657,6.1657,6.1657,6.1678,6.1679,6.1699,6.1699,6.1699,0.0,0.0,0.0,6.1699,6.1699,6.1699,6.1699,6.1699,6.1699,6.1699,6.1699,6.1699,6.1699,6.1699,6.1699,6.1699,6.1699,6.1699,6.1699,6.1699,6.1699,6.1699,6.1699,6.1699,6.1699,6.1699,6.1699,6.1699,6.1699,6.1699,6.1699,6.1699,6.1699,6.1699,6.1699,6.1699,6.1699,4.9001,0.0,0.0,0.0,0.0,0.0,0.0,0.0,0.0,0.0,0.0,0.0,0.0,0.0,0.0,0.0,5.3501,5.3501,5.3501,5.3501,5.4171,5.5621,5.5706,5.5668,5.5588,5.6088,0.0,0.0,0.0,0.0,0.0,0.0,0.0,0.0,0.0,0.0,0.0,0.0,0.0,5.7997,5.7997,0.0,5.8074,5.8951,5.9319,5.9509,6.0351,6.0714,6.08,6.08,6.08,6.08,0.0,0.0,0.0,6.1246,0.0,0.0,0.0,0.0,0.0,0.0,0.0,0.0,6.1699,6.161,6.1544,0.0,6.1451,6.1388,6.1388,6.1388,6.1388,6.1388,6.1462,6.1579,6.1679,6.1699,6.1699,0.0,0.0,0.0,6.1699,6.1699,6.1699,6.1699,6.1699,6.1699,6.1699,6.1699,6.1699,6.1699,6.1699,6.1699,6.1699,6.1699,6.1699,6.1699,6.1699,6.1699,6.1699,6.1699,6.1699,6.1699,6.1699,6.1699,6.1699,6.1699,6.1699,6.1699,6.1699,6.1699,6.1699,6.1699,6.1699,6.1699,4.9001,0.0,0.0,0.0,0.0,0.0,0.0,0.0,0.0,0.0,0.0,0.0,0.0,0.0,0.0,0.0,0.0,0.0,0.0,0.0,5.4544,5.5649,5.6059,5.6266,5.6194,5.6602,0.0,0.0,0.0,0.0,0.0,0.0,0.0,0.0,0.0,0.0,0.0,0.0,5.7997,5.7997,5.7997,0.0,5.8097,5.9047,5.9389,5.9509,6.045,6.08,6.08,6.08,6.08,0.0,0.0,6.0894,6.1048,0.0,6.1387,6.154,0.0,0.0,0.0,6.1699,0.0,0.0,0.0,6.1547,6.1472,6.14,6.1358,6.1303,6.1303,6.1303,6.1303,6.1303,6.1369,6.1409,6.1498,6.161,6.1699,6.1699,0.0,0.0,6.1699,6.1699,6.1699,6.1699,6.1699,6.1699,6.1699,6.1699,6.1699,6.1699,6.1699,6.1699,6.1699,6.1699,6.1699,6.1699,6.1699,6.1699,6.1699,6.1699,6.1699,6.1699,6.1699,6.1699,6.1699,6.1699,6.1699,6.1699,6.1699,6.1699,6.1699,6.1699,6.1699,6.1699,4.9001,0.0,0.0,0.0,0.0,0.0,0.0,0.0,0.0,0.0,0.0,0.0,0.0,0.0,0.0,0.0,0.0,0.0,0.0,0.0,0.0,5.5893,5.6545,5.6871,5.6799,5.695,5.6638,0.0,0.0,0.0,0.0,0.0,0.0,0.0,0.0,0.0,0.0,0.0,0.0,5.802,0.0,5.8092,5.8097,5.9047,5.9389,5.9509,6.045,6.08,6.08,6.08,6.08,6.08,6.08,6.0871,0.0,0.0,0.0,0.0,0.0,0.0,0.0,0.0,0.0,6.1678,0.0,0.0,0.0,6.1312,6.1253,6.1206,0.0,0.0,0.0,0.0,0.0,0.0,0.0,6.1368,0.0,6.1613,0.0,0.0,6.1658,6.1658,6.1678,6.1699,6.1679,6.1679,6.1699,6.1699,6.1699,6.1699,6.1699,6.1699,6.1699,6.1699,6.1699,6.1699,6.1699,6.1699,6.1699,6.1699,6.1699,6.1699,6.1679,6.1658,6.1658,6.1634,6.1613,6.1633,6.1679,6.1679,6.1658,6.1699,6.1679,6.1658,4.9001,4.9526,0.0,0.0,0.0,0.0,0.0,0.0,0.0,0.0,0.0,0.0,0.0,0.0,0.0,0.0,0.0,0.0,5.4419,0.0,0.0,0.0,5.6861,5.6871,5.6799,5.7501,5.7464,0.0,0.0,0.0,0.0,0.0,0.0,0.0,5.7997,0.0,0.0,0.0,5.7997,0.0,5.8442,5.8354,0.0,5.9047,5.9389,5.9509,6.045,6.08,6.08,0.0,6.08,6.08,0.0,6.0804,6.089,6.1213,0.0,0.0,0.0,0.0,0.0,0.0,6.1699,0.0,0.0,0.0,6.1326,6.1309,0.0,0.0,0.0,0.0,0.0,0.0,0.0,0.0,6.0071,6.0767,6.1358,6.1358,6.1451,0.0,0.0,6.1515,6.1577,6.1699,6.1584,6.1579,6.1699,6.1699,6.1699,6.1699,6.1699,6.1699,6.1699,6.1699,6.1699,6.1699,6.1699,6.1699,6.1699,6.1699,6.1699,6.1699,6.1579,6.1515,6.1509,6.1383,6.1358,6.1359,6.1608,6.1632,6.1542,6.1657,6.1613,6.1515,4.9086,4.9593,0.0,0.0,0.0,0.0,0.0,0.0,0.0,0.0,0.0,0.0,0.0,0.0,0.0,0.0,0.0,5.3799,0.0,0.0,0.0,0.0,5.7327,5.7514,5.7501,5.7831,5.7831,5.7501,5.7831,0.0,0.0,0.0,0.0,0.0,5.8264,0.0,5.8397,0.0,5.8397,0.0,0.0,0.0,0.0,5.9441,5.9981,6.0264,6.0666,6.08,6.08,0.0,6.08,0.0,0.0,0.0,0.0,0.0,0.0,0.0,0.0,0.0,0.0,0.0,0.0,0.0,6.1606,0.0,6.1364,0.0,0.0,0.0,0.0,0.0,0.0,0.0,6.0605,0.0,0.0,0.0,6.1079,0.0,0.0,0.0,0.0,0.0,0.0,0.0,6.1458,6.1415,6.1462,6.1544,6.1582,6.1582,6.1658,6.1699,6.1699,6.1699,6.1699,6.1699,6.1612,6.1582,6.158,6.1504,6.1462,6.1462,6.1415,6.1373,6.1369,6.1312,6.1303,6.132,6.1409,6.1436,6.1383,6.1448,6.1436,6.1373,4.9712,0.0,0.0,0.0,0.0,0.0,5.3416,5.3501,5.3501,0.0,0.0,0.0,5.3501,5.3501,0.0,0.0,5.3501,5.3881,0.0,0.0,5.6159,0.0,0.0,0.0,0.0,5.7997,5.7997,0.0,0.0,0.0,0.0,0.0,0.0,0.0,0.0,5.8894,5.8894,0.0,5.8894,5.8913,5.9028,5.9158,5.9356,5.9885,6.0397,6.08,6.08,6.08,6.08,6.08,6.08,0.0,6.08,0.0,0.0,0.0,0.0,0.0,6.1451,0.0,0.0,0.0,0.0,0.0,0.0,0.0,0.0,0.0,0.0,0.0,0.0,0.0,0.0,0.0,0.0,6.0723,0.0,6.0646,0.0,0.0,0.0,0.0,0.0,0.0,0.0,6.144,6.1293,6.124,6.1303,6.1383,6.1448,6.1448,6.1544,6.1584,6.1584,6.1584,6.1584,6.1584,6.1498,6.1448,6.1444,6.1334,6.1303,6.1303,6.124,6.122,6.1214,6.1184,6.1162,6.1162,6.1162,6.1318,6.15,6.135,6.1415,6.1564,5.1117,5.1725,0.0,0.0,0.0,0.0,5.3501,5.3501,5.3501,5.3501,0.0,0.0,0.0,0.0,0.0,0.0,0.0,5.4124,5.5581,0.0,5.6376,0.0,0.0,5.7997,0.0,0.0,0.0,0.0,0.0,0.0,0.0,0.0,0.0,0.0,0.0,5.9372,5.9372,5.9372,5.9372,5.9425,5.987,6.0324,6.069,0.0,6.0397,6.08,6.08,0.0,0.0,6.08,6.08,0.0,0.0,0.0,0.0,0.0,0.0,0.0,0.0,0.0,0.0,6.1678,0.0,0.0,0.0,0.0,6.1458,0.0,0.0,0.0,0.0,0.0,0.0,0.0,0.0,0.0,0.0,0.0,0.0,0.0,0.0,0.0,0.0,0.0,6.1085,6.1283,6.1108,6.1085,6.1297,6.1289,6.1314,6.1314,6.132,6.1301,6.1301,6.1301,6.1301,6.1301,6.1314,6.1314,6.1314,6.1309,6.1303,6.1297,6.1085,6.1014,6.0997,6.088,6.0816,6.0816,6.0816,6.1335,6.2001,6.1488,6.1716,6.2275,0.0,0.0,0.0,0.0,0.0,5.3501,5.3501,5.3501,5.3501,0.0,5.3501,0.0,0.0,5.3501,5.3501,0.0,0.0,5.4651,5.5621,5.6186,0.0,0.0,0.0,5.7997,0.0,0.0,0.0,0.0,0.0,0.0,0.0,0.0,0.0,0.0,0.0,5.987,0.0,0.0,0.0,0.0,0.0,6.0384,6.0769,0.0,6.0647,6.08,6.08,6.08,0.0,6.08,6.08,6.08,6.08,6.08,6.0804,6.0847,6.0925,0.0,0.0,0.0,6.1509,6.1551,0.0,0.0,0.0,0.0,0.0,0.0,0.0,0.0,0.0,0.0,0.0,0.0,0.0,0.0,0.0,0.0,0.0,0.0,0.0,0.0,0.0,0.0,0.0,6.1097,6.0954,6.0902,6.0974,6.1051,6.1093,6.1093,6.1227,6.1303,6.1303,6.1303,6.1303,6.1303,6.1172,6.1093,6.1105,6.101,6.0974,6.0974,6.0902,6.088,6.0908,6.1443,6.1658,6.1704,6.2243,6.2627,6.2805,6.2081,6.2304,6.2959,5.2739,0.0,0.0,0.0,0.0,5.3501,5.3501,5.3501,0.0,0.0,5.3501,0.0,5.3501,0.0,5.3881,0.0,5.4575,5.532,5.6077,5.6616,0.0,5.7973,5.7997,5.7997,0.0,0.0,0.0,0.0,0.0,5.8397,0.0,0.0,0.0,0.0,0.0,6.0351,6.0351,6.0351,6.0351,0.0,0.0,6.054,0.0,0.0,6.08,6.08,0.0,6.08,6.08,6.08,6.08,6.08,6.08,6.08,6.08,6.08,6.0869,6.0945,6.0999,6.1201,0.0,6.1495,6.1606,0.0,6.1699,0.0,0.0,0.0,0.0,0.0,0.0,0.0,0.0,0.0,0.0,0.0,0.0,6.08,0.0,0.0,0.0,0.0,0.0,0.0,6.0842,6.0915,6.0856,6.08,0.0,0.0,6.0925,6.0925,6.1053,6.1108,6.1108,6.1108,6.1108,6.1128,6.0982,6.0925,6.0925,6.0834,6.08,6.0819,6.1127,6.1262,6.132,6.2185,6.2531,6.257,6.3108,6.3493,6.3666,6.282,6.3051,6.382,5.3501,0.0,0.0,0.0,5.3534,0.0,0.0,0.0,5.3551,0.0,5.3584,5.3618,5.3618,5.4232,5.4651,5.4651,5.532,5.6059,5.6861,5.6938,0.0,0.0,5.7997,5.7997,5.7997,0.0,0.0,0.0,0.0,0.0,0.0,0.0,0.0,0.0,6.061,0.0,6.08,6.08,6.08,6.08,6.08,6.08,6.08,6.08,6.08,6.08,6.08,6.08,6.08,6.08,6.08,6.08,6.08,6.08,6.08,6.08,6.08,6.0831,6.0963,6.115,6.1323,6.1455,0.0,0.0,0.0,0.0,6.1658,0.0,0.0,0.0,0.0,0.0,0.0,0.0,0.0,0.0,0.0,0.0,0.0,0.0,0.0,0.0,0.0,6.08,6.08,6.08,6.08,0.0,0.0,0.0,6.08,6.08,6.08,6.08,6.08,6.08,6.08,6.08,6.08,6.08,6.08,6.08,6.0819,6.0916,6.1735,6.212,6.2216,6.3031,6.3346,6.3365,6.3404,6.3935,6.457,6.3743,6.3955,6.4782,5.3501,5.3501,5.3668,0.0,5.3848,5.3501,0.0,0.0,0.0,0.0,5.4787,5.5131,5.5131,5.5291,5.5408,5.5408,5.6132,0.0,0.0,0.0,0.0,5.7997,5.7997,5.7997,5.7997,5.7997,5.8168,5.8526,0.0,0.0,5.9741,0.0,0.0,0.0,0.0,0.0,6.08,6.08,6.08,6.08,6.08,6.08,0.0,0.0,6.08,6.08,6.08,6.08,6.08,6.08,6.08,6.08,6.08,6.08,6.08,6.08,6.08,6.0804,6.0845,6.107,6.1314,6.1334,6.1537,6.1699,0.0,0.0,0.0,0.0,0.0,0.0,0.0,0.0,0.0,0.0,0.0,0.0,0.0,0.0,0.0,6.08,0.0,0.0,6.08,6.08,6.08,6.08,6.08,0.0,0.0,0.0,0.0,6.08,6.08,6.08,6.08,6.08,6.08,6.08,6.08,6.08,6.08,6.08,6.1146,6.1793,6.2005,6.2435,6.307,6.3916,6.4282,6.4339,6.4974,6.5378,6.5532,6.532,6.5378,6.559,5.3501,0.0,0.0,5.4544,0.0,0.0,5.4468,5.4281,0.0,5.4982,5.5144,0.0,5.5649,5.6004,5.6214,5.6214,5.6927,0.0,5.7376,0.0,0.0,5.7997,5.7997,5.7997,5.7997,5.7997,0.0,5.8694,0.0,0.0,6.0099,0.0,0.0,0.0,0.0,6.08,6.08,6.08,6.08,6.08,6.08,0.0,0.0,6.08,6.08,6.08,6.08,6.08,6.08,6.08,6.08,6.08,6.08,6.08,6.08,6.08,6.08,6.08,6.08,6.1046,6.1303,6.1303,6.1504,6.1699,6.1699,6.1699,6.1699,0.0,0.0,0.0,0.0,0.0,0.0,0.0,0.0,0.0,0.0,0.0,0.0,0.0,6.08,0.0,6.08,6.08,6.08,6.08,6.08,0.0,0.0,0.0,0.0,6.08,6.08,6.08,6.08,6.08,6.08,6.08,6.08,6.0993,6.1358,6.1358,6.182,6.2647,6.3031,6.3455,6.3935,6.4801,6.5166,6.5224,6.5705,6.5897,6.5897,6.5897,6.5897,6.5897,5.3618,0.0,0.0,0.0,0.0,0.0,0.0,5.4835,0.0,5.5695,0.0,5.5291,5.5931,5.6624,5.704,5.704,0.0,5.7997,5.7997,5.7997,5.7997,5.7997,5.7997,5.7997,5.7997,5.7997,5.826,0.0,0.0,0.0,0.0,0.0,0.0,0.0,0.0,0.0,0.0,6.08,6.08,6.08,6.08,6.08,6.08,6.08,6.08,6.08,6.08,6.08,6.08,6.08,6.08,6.08,6.08,6.08,6.08,6.08,6.08,6.0793,6.0819,6.1053,6.1289,6.1312,6.1512,6.1699,6.1699,6.1699,6.1699,6.1699,6.1699,6.1699,0.0,0.0,0.0,0.0,0.0,0.0,0.0,0.0,0.0,0.0,0.0,0.0,6.08,6.08,6.08,6.08,0.0,0.0,0.0,0.0,0.0,6.08,6.08,6.08,6.08,0.0,6.0858,6.0973,6.0973,6.1416,6.2274,6.2274,6.2704,6.3512,6.4282,6.4666,6.4839,6.559,6.5897,6.5897,6.5897,6.5897,6.5897,6.5897,6.5897,6.5897,5.4296,0.0,0.0,0.0,0.0,5.6141,5.7389,5.685,5.6403,5.666,5.7098,5.7456,5.7594,5.7708,5.7815,5.7815,5.7927,0.0,0.0,0.0,0.0,5.7997,5.7997,5.7997,5.7997,5.7997,5.8418,0.0,0.0,0.0,0.0,0.0,0.0,0.0,0.0,0.0,6.08,6.08,0.0,6.08,6.08,6.08,6.08,6.08,6.08,6.08,6.08,6.08,6.08,6.08,6.08,6.08,6.08,6.08,6.08,6.08,6.08,6.0819,6.0935,6.1128,6.1337,6.144,6.1582,6.1699,6.1699,6.1699,6.1699,6.1699,6.1699,6.1699,6.1699,0.0,0.0,0.0,0.0,0.0,0.0,0.0,0.0,0.0,0.0,6.08,0.0,6.08,6.08,0.0,0.0,0.0,0.0,0.0,0.0,0.0,6.08,0.0,0.0,0.0,6.1146,6.187,6.187,6.23,6.3089,6.3089,6.357,6.4378,6.4532,6.5013,6.5686,6.584,6.5897,6.5897,6.5897,6.5897,6.5897,6.5897,6.5897,6.5897,0.0,0.0,0.0,0.0,0.0,0.0,0.0,5.7703,5.7474,5.7474,5.7449,5.7565,5.7973,5.7997,5.7997,5.7997,5.7997,5.7997,5.7997,5.7997,5.7997,5.7997,5.7997,5.8119,5.8372,5.8354,5.8815,5.9757,0.0,0.0,0.0,0.0,0.0,0.0,0.0,6.08,0.0,0.0,0.0,6.08,6.08,6.08,6.08,6.08,6.08,6.08,6.08,6.08,6.08,6.08,6.08,6.08,6.08,6.08,6.0816,6.0873,6.0895,6.0935,6.1105,6.127,6.1428,6.1475,6.1606,6.1699,6.1699,6.1699,6.1699,6.1699,6.1699,6.1699,6.1699,6.1584,0.0,0.0,0.0,0.0,0.0,0.0,0.0,0.0,0.0,0.0,0.0,0.0,0.0,0.0,0.0,0.0,0.0,0.0,0.0,0.0,0.0,0.0,0.0,0.0,0.0,6.212,6.2512,6.3166,6.3974,6.3974,6.4455,6.5263,6.5263,6.5513,6.5897,6.5897,6.5897,6.5897,6.5897,6.5897,6.5897,6.5897,6.5897,6.5897,0.0,5.6465,0.0,0.0,5.7613,0.0,5.7997,5.7997,5.7997,5.7997,5.7474,5.7351,5.795,5.7997,5.7997,5.7997,5.7997,5.7997,5.7997,5.7997,5.8047,5.8123,5.8164,5.8372,5.8835,5.8855,5.9248,0.0,0.0,0.0,0.0,0.0,0.0,0.0,0.0,0.0,0.0,0.0,6.08,6.08,6.08,6.08,6.0793,6.0842,6.0845,6.0856,6.089,6.0911,6.0911,6.0911,6.0869,6.0845,6.0845,6.0869,6.0933,6.1034,6.1053,6.1093,6.1295,6.1428,6.1507,6.1542,6.1612,6.1699,6.1699,6.1699,6.1699,6.1699,6.1699,6.1699,6.1699,6.161,0.0,0.0,0.0,0.0,0.0,0.0,0.0,0.0,0.0,0.0,6.08,0.0,0.0,0.0,0.0,0.0,6.08,0.0,0.0,0.0,0.0,6.1069,6.1069,0.0,6.2435,6.2627,6.3281,6.4032,6.4878,6.4878,6.5243,6.5897,6.5897,6.5897,6.5897,6.5897,6.5897,6.5897,6.5897,6.5897,6.5897,6.5897,6.5897,6.5897,0.0,0.0,0.0,0.0,0.0,0.0,5.7997,5.7997,5.7997,5.7997,5.795,5.7909,5.7997,5.7997,5.7997,5.7997,5.7997,5.7997,5.7997,5.7997,5.819,5.8611,5.8613,5.8855,5.9319,5.9337,5.9595,0.0,0.0,6.0338,0.0,0.0,0.0,0.0,0.0,0.0,0.0,6.08,6.08,6.08,6.08,6.08,6.0816,6.0935,6.099,6.1016,6.1186,6.124,6.124,6.124,6.1128,6.099,6.099,6.1105,6.1266,6.1278,6.1265,6.1301,6.1448,6.1498,6.154,6.1656,6.1699,6.1699,6.1699,6.1699,6.1699,6.1699,6.1699,6.1699,6.1699,6.1699,6.1679,0.0,0.0,0.0,0.0,0.0,6.0944,6.0827,0.0,0.0,0.0,6.08,0.0,0.0,6.08,0.0,0.0,0.0,0.0,6.08,0.0,6.1985,6.1985,6.2781,6.3589,6.4378,6.4436,6.4936,6.5782,6.5782,6.582,6.5897,6.5897,6.5897,6.5897,6.5897,6.5897,6.5897,6.5897,6.5897,6.5897,6.5897,6.5897,6.5897,0.0,0.0,0.0,0.0,0.0,0.0,0.0,5.7997,5.7997,5.7997,5.7997,5.7997,5.7997,5.7997,5.7997,5.7997,5.7997,5.7997,5.7997,5.826,5.8505,5.8694,5.8971,5.9337,5.9823,5.9823,6.004,0.0,0.0,0.0,0.0,0.0,0.0,0.0,0.0,6.08,6.08,6.08,6.08,6.0823,6.0883,6.0925,6.0935,6.1112,6.1186,6.1193,6.1265,6.1303,6.1303,6.1303,6.1246,6.1186,6.1186,6.1234,6.1326,6.1407,6.1428,6.1451,6.1582,6.1612,6.1634,6.1699,6.1699,6.1699,6.1699,6.1699,6.1699,6.1699,6.1699,6.1699,6.1699,6.1699,6.1699,0.0,0.0,0.0,0.0,0.0,0.0,0.0,0.0,6.08,0.0,0.0,0.0,0.0,0.0,0.0,0.0,0.0,0.0,6.1562,0.0,6.232,6.282,6.3666,6.4262,6.4609,6.5128,6.5551,6.5897,6.5897,6.5897,6.5897,6.5897,6.5897,6.5897,6.5897,6.5897,6.5897,6.5897,6.5897,6.5897,6.5897,6.5897,6.5897,5.7997,0.0,5.7997,0.0,5.7997,5.7997,5.7997,5.7997,5.7997,5.7997,5.8119,5.8146,5.802,5.7997,5.8047,5.819,5.8213,5.826,5.8397,5.8715,5.8971,5.9103,5.9424,0.0,6.0311,6.0311,6.0469,6.08,6.08,0.0,0.0,0.0,0.0,0.0,6.08,6.0819,6.0858,6.0858,6.0882,6.0954,6.1051,6.1097,6.112,6.1295,6.1349,6.1354,6.1392,6.1424,6.1424,6.1424,6.1424,6.142,6.1364,6.1398,6.144,6.154,6.1553,6.158,6.1679,6.1699,6.1699,6.1699,6.1699,6.1699,6.1699,6.1699,6.1699,6.1699,6.1699,6.1699,6.1699,6.1699,6.1699,6.1699,0.0,0.0,0.0,0.0,0.0,0.0,6.0892,6.08,6.08,6.08,0.0,0.0,0.0,0.0,0.0,0.0,0.0,0.0,0.0,0.0,0.0,6.4551,6.4974,6.4993,6.5609,6.5897,6.5897,6.5897,6.5897,6.5897,6.5897,6.5897,6.5897,6.5897,6.5897,6.5897,6.5897,6.5897,6.5897,6.5897,6.5897,6.5897,5.7997,5.7997,5.7997,5.7997,5.7997,5.7997,5.7997,5.7997,5.7997,5.7997,5.8397,5.8505,5.8047,5.7997,5.819,5.8652,5.8694,5.8894,5.9337,5.9389,5.9611,0.0,0.0,6.0311,6.0769,6.08,6.0781,6.08,0.0,0.0,6.08,0.0,6.08,6.08,6.08,6.0871,6.0997,6.0997,6.112,6.1283,6.1303,6.1303,6.1301,6.1448,6.1501,6.1512,6.1656,6.1699,6.1699,6.1699,6.1699,6.1678,6.1544,6.1584,6.1699,6.1699,6.1699,6.1699,6.1699,6.1699,6.1699,6.1699,6.1699,6.1699,6.1699,6.1699,6.1699,6.1699,6.1699,6.1699,6.1699,6.1699,6.1699,6.1699,0.0,0.0,0.0,0.0,0.0,0.0,6.0892,6.08,6.08,6.08,0.0,0.0,0.0,0.0,0.0,0.0,0.0,6.2101,6.3705,0.0,6.4589,6.5455,6.5878,6.5878,6.5878,6.5897,6.5897,6.5897,6.5897,6.5897,6.5897,6.5897,6.5897,6.5897,6.5897,6.5897,6.5897,6.5897,6.5897,6.5897,6.5897,6.5897,5.7997,5.7997,5.7997,5.7997,5.826,5.8482,5.8482,5.8755,5.8952,5.8952,5.9084,5.9121,5.8971,5.8952,5.9009,0.0,5.9176,5.923,0.0,5.9693,5.9931,6.0084,6.0411,6.0647,6.08,6.08,6.08,6.08,0.0,0.0,0.0,6.08,6.08,6.0793,6.0894,6.0963,6.1014,6.115,6.124,6.1314,6.1411,6.144,6.1451,6.1582,6.1634,6.1635,6.1679,6.1699,6.1699,6.1699,6.1699,6.1699,6.1656,6.1678,6.1699,6.1699,6.1699,6.1699,6.1699,6.1699,6.1699,6.1699,6.1699,6.1699,6.1699,6.1699,6.1699,6.1699,6.2168,6.2598,6.2598,6.3066,6.3476,6.3476,6.3476,0.0,0.0,0.0,0.0,0.0,6.2674,6.2512,6.2512,6.2512,0.0,0.0,0.0,0.0,0.0,0.0,0.0,0.0,6.432,0.0,6.5474,6.5763,6.5897,6.5897,6.5897,6.5897,6.5897,6.5897,6.5897,6.5897,6.5897,6.5897,6.5897,6.5897,6.5897,6.5897,6.5897,6.5897,6.5897,6.5897,6.5897,6.5974,5.7997,5.8142,5.826,5.826,5.8652,5.8952,5.8952,5.9194,5.9389,5.9389,5.9543,5.9661,5.9661,5.9823,0.0,5.9677,5.9661,5.9741,5.9916,6.0208,6.0351,6.0351,6.0634,6.08,6.08,6.08,0.0,6.08,6.08,6.08,6.08,6.08,6.0831,6.0882,6.0953,6.1077,6.1195,6.1314,6.1392,6.1455,6.1544,6.1579,6.1582,6.1678,6.1699,6.1699,6.1699,6.1699,6.1699,6.1699,6.1699,6.1699,6.1699,6.1699,6.1699,6.1699,6.1699,6.1699,6.1699,6.1699,6.1699,6.1699,6.1699,6.1699,6.1699,6.1699,6.1797,6.2129,6.2617,6.3105,6.3437,6.3926,6.4297,6.4297,6.4297,6.4297,6.4297,0.0,0.0,0.0,0.0,0.0,0.0,6.3288,6.3455,0.0,0.0,0.0,0.0,0.0,0.0,6.4589,6.4916,0.0,6.5878,6.5897,6.5897,6.5897,6.5897,6.5897,6.5897,6.5897,6.5897,6.5897,6.5897,6.5897,6.5897,6.5897,6.5897,6.5897,6.5897,6.5897,6.5936,6.6244,6.634,6.6474,5.8047,5.8397,5.8715,0.0,5.914,0.0,5.9441,5.9494,5.9511,5.9511,5.9885,6.0146,6.0146,6.054,6.0622,6.0194,0.0,0.0,0.0,6.08,6.08,6.08,6.08,6.08,6.08,6.08,6.08,6.08,6.08,6.0793,6.0816,6.0816,6.0892,6.1023,6.102,6.1208,6.1504,6.1509,6.1582,6.1699,6.1699,6.1699,6.1699,6.1699,6.1699,6.1699,6.1699,6.1699,6.1699,6.1699,6.1699,6.1699,6.1699,6.1699,6.1699,6.1699,6.1699,6.1699,6.1699,6.1699,6.1699,6.1699,6.1699,6.1699,6.1699,6.1758,6.2012,6.2832,6.3105,6.3437,6.4238,6.4433,6.4473,6.4473,6.4473,6.4472,6.4453,0.0,0.0,0.0,0.0,0.0,0.0,6.3481,6.382,0.0,0.0,0.0,0.0,0.0,6.4686,6.4686,6.5474,6.5897,6.5897,6.5897,6.5897,6.5897,6.5897,6.5897,6.5897,6.5897,6.5897,6.5897,6.5897,6.5897,6.5897,6.5897,6.5897,6.5897,6.5897,6.5936,6.607,6.6821,6.7128,6.7301,0.0,0.0,5.8815,5.9176,5.9628,5.9931,5.9931,6.0236,6.0469,6.0469,6.0565,6.0634,6.0634,6.0734,6.0757,6.0634,6.0634,6.069,6.08,6.08,6.08,6.08,6.08,6.08,6.08,6.08,6.08,6.08,6.08,6.0847,6.0954,6.0954,6.1059,6.1234,6.1335,6.1424,6.1507,6.1609,6.1678,6.1699,6.1699,6.1699,6.1699,6.1699,6.1699,6.1699,6.1699,6.1699,6.1699,6.1699,6.1699,6.1699,6.1699,6.1699,6.1699,6.1699,6.1699,6.1699,6.1699,6.1699,6.1699,6.1699,6.1699,6.1699,6.1699,6.2207,6.2754,6.2969,6.4062,6.5058,6.5254,6.584,6.6289,6.6289,6.6289,6.6228,6.6082,6.5898,0.0,0.0,6.5402,6.5282,6.5282,6.5282,6.5378,0.0,0.0,0.0,0.0,6.5705,6.559,6.559,6.5782,6.5897,6.5897,6.5897,6.5897,6.5897,6.5897,6.5897,6.5897,6.5897,6.5897,6.5897,6.5897,6.5897,6.5897,6.5897,6.5897,6.5897,6.5897,6.6282,6.684,6.7032,6.7513,6.8225,5.8857,5.9176,5.9407,5.9677,6.0118,6.0424,6.0424,6.0634,6.08,6.08,6.08,6.08,6.08,6.08,6.08,6.08,6.08,6.08,6.08,6.08,6.08,6.08,6.08,6.08,6.08,6.08,6.0831,6.0894,6.0894,6.0983,6.1143,6.1143,6.1221,6.1387,6.1462,6.1522,6.1605,6.1678,6.1699,6.1699,6.1699,6.1699,6.1699,6.1699,6.1699,6.1699,6.1699,6.1699,6.1699,6.1699,6.1699,6.1699,6.1699,6.1699,6.1699,6.1699,6.1699,6.1699,6.1699,6.1699,6.1699,6.1699,6.1699,6.1797,6.2207,6.2656,6.3223,6.4023,6.4941,6.5723,6.6113,6.6582,6.6894,6.6894,6.6812,6.6717,6.6622,6.6404,0.0,6.6109,6.5974,6.5897,6.5897,6.5897,6.5897,6.5897,6.5897,0.0,6.5897,6.5897,6.5897,6.5897,6.5897,6.5897,6.5897,6.5897,6.5897,6.5897,6.5897,6.5897,6.5897,6.5897,6.5897,6.5897,6.5897,6.5897,6.5897,6.5897,6.5897,6.5936,6.6301,6.6724,6.7186,6.7994,6.859,6.9109,5.9256,5.9839,6.0132,6.0189,6.054,6.08,6.08,6.08,6.08,6.08,6.08,6.08,6.08,6.08,6.08,6.08,6.08,6.08,6.08,6.08,6.08,6.08,6.08,6.08,6.08,6.0808,6.0894,6.1048,6.1048,6.1138,6.1323,6.1323,6.1392,6.154,6.154,6.1585,6.1699,6.1699,6.1699,6.1699,6.1699,6.1699,6.1699,6.1699,6.1699,6.1699,6.1699,6.1699,6.1699,6.1699,6.1699,6.1699,6.1699,6.1699,6.1699,6.1699,6.1699,6.1699,6.1699,6.1699,6.1699,6.1699,6.1699,6.1933,6.2793,6.3105,6.3652,6.5273,6.5703,6.6015,6.6758,6.6894,6.6894,6.6894,6.6738,6.6593,6.658,0.0,6.61,6.607,6.5971,6.5897,6.5897,6.5897,6.5897,6.5897,6.5897,6.5897,6.5897,6.5897,6.5897,6.5897,6.5897,6.5897,6.5897,6.5897,6.5897,6.5897,6.5897,6.5897,6.5897,6.5897,6.5897,6.5897,6.5897,6.5897,6.5897,6.6032,6.607,6.6147,6.6974,6.7378,6.7667,6.9148,6.9783,6.9975,5.973,6.004,6.0222,6.0622,6.0757,6.08,6.08,6.08,6.08,6.08,6.08,6.08,6.08,6.08,6.08,6.08,6.08,6.08,6.08,6.08,6.08,6.08,6.08,6.08,6.08,6.0915,6.1056,6.1246,6.1246,6.1328,6.1465,6.1465,6.1544,6.1678,6.1678,6.1679,6.1699,6.1699,6.1699,6.1699,6.1699,6.1699,6.1699,6.1699,6.1699,6.1699,6.1699,6.1699,6.1699,6.1699,6.1699,6.1699,6.1699,6.1699,6.1699,6.1699,6.1699,6.1699,6.1699,6.1699,6.1699,6.1699,6.1699,6.1933,6.2793,6.3574,6.4375,6.539,6.6191,6.6738,6.6875,6.6894,6.6894,6.6894,6.6738,6.6569,6.6446,0.0,6.6069,6.5931,6.5916,6.5897,6.5897,6.5897,6.5897,6.5897,6.5897,6.5897,6.5897,6.5897,6.5897,6.5897,6.5897,6.5897,6.5897,6.5897,6.5897,6.5897,6.5897,6.5897,6.5897,6.5897,6.5897,6.5897,6.5897,6.5897,6.5955,6.6628,6.6898,6.6994,6.7859,6.8648,6.934,6.961,7.0129,7.0725,5.9523,6.0156,6.0553,6.0757,6.08,6.08,6.08,6.08,6.08,6.08,6.08,6.08,6.08,6.08,6.08,6.08,6.08,6.0831,6.0895,6.0834,6.08,6.08,6.086,6.0964,6.1081,6.112,6.124,6.1415,6.1415,6.1488,6.1608,6.1608,6.1635,6.1699,6.1699,6.1699,6.1699,6.1699,6.1699,6.1699,6.1699,6.1699,6.1699,6.1699,6.1699,6.1699,6.1699,6.1699,6.1699,6.1699,6.1699,6.1699,6.1699,6.1699,6.1699,6.1699,6.1699,6.1699,6.1699,6.1699,6.1699,6.1699,6.2051,6.2637,6.3496,6.4375,6.5254,6.6113,6.6621,6.6894,6.6894,6.6894,6.6854,6.6763,6.6603,0.0,0.0,6.6099,6.5971,6.5903,6.5897,6.5897,6.5897,6.5897,6.5897,6.5897,6.5897,6.5897,6.5897,6.5897,6.5897,6.5897,6.5897,6.5897,6.5897,6.5897,6.5897,6.5897,6.5897,6.5897,6.5897,6.5897,6.5897,6.5897,6.5897,6.6147,6.6571,6.6936,6.7378,6.7898,6.8763,6.936,6.9744,7.0187,7.0571,7.0898,5.9273,6.0204,6.08,6.08,6.08,6.08,6.08,6.08,6.08,6.08,6.08,6.08,6.08,6.08,6.0816,6.0845,6.0856,6.0914,6.1065,6.0964,6.0932,6.0932,6.0999,6.1153,6.1334,6.1358,6.14,6.1547,6.1547,6.1606,6.1699,6.1699,6.1699,6.1699,6.1699,6.1699,6.1699,6.1699,6.1699,6.1699,6.1699,6.1699,6.1699,6.1699,6.1699,6.1699,6.1699,6.1699,6.1699,6.1699,6.1699,6.1699,6.1699,6.1699,6.1699,6.1699,6.1699,6.1699,6.1699,6.1699,6.1699,6.1699,6.2363,6.3223,6.4101,6.4961,6.5859,6.6719,6.6894,6.6894,6.6894,6.6854,6.6787,6.6625,0.0,0.0,0.0,6.5986,6.5897,6.5897,6.5897,6.5897,6.5897,6.5897,6.5897,6.5897,6.5897,6.5897,6.5897,6.5897,6.5897,6.5897,6.5897,6.5897,6.5897,6.5897,6.5897,6.5897,6.5897,6.5897,6.5897,6.5897,6.5994,6.6186,6.6186,6.6628,6.7417,6.7609,6.8109,6.8802,6.9648,6.9975,7.0052,7.0667,7.0898,7.0898,5.9327,6.0204,6.08,6.08,6.08,6.08,6.08,6.08,6.08,6.08,6.08,6.08,6.08,6.08,6.0836,6.0972,6.099,6.1073,6.1278,6.1278,6.1253,6.1253,6.1265,6.1339,6.1472,6.1495,6.1549,6.1699,6.1699,6.1699,6.1699,6.1699,6.1699,6.1699,6.1699,6.1699,6.1699,6.1699,6.1699,6.1699,6.1699,6.1699,6.1699,6.1699,6.1699,6.1699,6.1699,6.1699,6.1699,6.1699,6.1699,6.1699,6.1699,6.1699,6.1699,6.1699,6.1699,6.1699,6.1699,6.1699,6.1699,6.1699,6.2363,6.3223,6.4101,6.4961,6.5859,6.6719,6.6894,6.6894,6.6894,6.6742,6.6622,6.6597,0.0,0.0,6.609,6.5986,6.5897,6.5897,6.5897,6.5897,6.5897,6.5897,6.5897,6.5897,6.5897,6.5897,6.5897,6.5897,6.5897,6.5897,6.5897,6.5897,6.5897,6.5897,6.5897,6.5897,6.5897,6.5897,6.5897,6.5897,6.6301,6.7013,6.7013,6.7494,6.8379,6.9186,6.9552,6.9687,7.0494,7.0802,7.0821,7.0879,7.0898,7.0898,5.8588,5.9415,6.0165,6.0704,6.08,6.08,6.08,6.08,6.08,6.08,6.0871,6.0915,6.0915,6.1036,6.1124,6.1186,6.1193,6.1246,6.1404,6.1409,6.1409,6.1409,6.1409,6.1495,6.1612,6.1613,6.1656,6.1699,6.1699,6.1699,6.1699,6.1699,6.1699,6.1699,6.1699,6.1699,6.1699,6.1699,6.1699,6.1699,6.1699,6.1699,6.1699,6.1699,6.1699,6.1699,6.1699,6.1699,6.1699,6.1699,6.1699,6.1699,6.1699,6.1699,6.1699,6.1699,6.1699,6.1699,6.1699,6.1699,6.1699,6.1699,6.2754,6.3887,6.4219,6.539,6.6504,6.6836,6.681,6.6713,6.6713,6.6572,6.6446,6.6302,0.0,6.607,6.5997,6.5926,6.5897,6.5897,6.5897,6.5897,6.5897,6.5897,6.5897,6.5897,6.5897,6.5897,6.5897,6.5897,6.5897,6.5897,6.5897,6.5897,6.5897,6.5897,6.5897,6.5897,6.5897,6.5897,6.5917,6.6417,6.6801,6.7128,6.7667,6.8398,6.9225,6.9571,6.9994,7.0475,7.0783,7.0898,7.0898,7.0898,7.0898,7.0898,5.8127,5.8954,5.9762,6.0646,6.08,6.08,6.08,6.0842,6.0869,6.0869,6.1,6.1085,6.1085,6.122,6.1326,6.1349,6.1354,6.1428,6.1551,6.1553,6.1553,6.1553,6.1553,6.1608,6.1699,6.1699,6.1699,6.1699,6.1699,6.1699,6.1699,6.1699,6.1699,6.1699,6.1699,6.1699,6.1699,6.1699,6.1699,6.1699,6.1699,6.1699,6.1699,6.1699,6.1699,6.1699,6.1699,6.1699,6.1699,6.1699,6.1699,6.1699,6.1699,6.1699,6.1699,6.1699,6.1678,6.1634,6.1634,6.1608,6.1663,6.2011,6.3203,6.4355,6.4566,6.5755,6.6788,6.6756,6.6636,6.6533,6.6533,6.6404,6.6252,6.6118,6.606,6.6011,6.5916,6.5897,6.5897,6.5897,6.5897,6.5897,6.5897,6.5897,6.5897,6.5897,6.5897,6.5897,6.5897,6.5897,6.5897,6.5897,6.5897,6.5897,6.5897,6.5897,6.5897,6.5897,6.5897,6.6032,6.6301,6.684,6.7398,6.7955,6.8552,6.9302,7.0071,7.0071,7.0398,7.0898,7.0898,7.0898,7.0898,7.0898,7.0898,7.0898,5.8127,5.8934,5.9762,6.0658,6.0812,6.0812,6.0793,6.0925,6.1006,6.1006,6.1186,6.1309,6.1309,6.1309,6.1369,6.1498,6.1504,6.1551,6.1699,6.1699,6.1699,6.1699,6.1699,6.1699,6.1699,6.1699,6.1699,6.1699,6.1699,6.1699,6.1699,6.1699,6.1699,6.1699,6.1699,6.1699,6.1699,6.1699,6.1699,6.1699,6.1699,6.1699,6.1699,6.1699,6.1699,6.1699,6.1699,6.1699,6.1699,6.1699,6.1699,6.1699,6.1699,6.1699,6.1699,6.1699,6.1606,6.1501,6.1501,6.1392,6.1573,6.2707,6.3652,6.447,6.5148,6.5969,6.6569,6.6423,6.6406,6.6406,6.6406,6.6228,6.6109,6.6109,6.5997,6.5897,6.5897,6.5897,6.5897,6.5897,6.5897,6.5897,6.5897,6.5897,6.5897,6.5897,6.5897,6.5897,6.5897,6.5897,6.5897,6.5897,6.5897,6.5897,6.5897,6.5897,6.5897,6.5897,6.5897,6.632,6.709,6.7109,6.8052,6.9706,6.9706,7.0167,7.0898,7.0898,7.0898,7.0898,7.0898,7.0898,7.0898,7.0898,7.0898,7.0898,5.8011,5.8492,5.9136,6.0664,6.0945,6.0991,6.1124,6.1179,6.1214,6.1214,6.133,6.1444,6.1444,6.1517,6.1605,6.1634,6.1635,6.1657,6.1699,6.1699,6.1699,6.1699,6.1699,6.1699,6.1699,6.1699,6.1699,6.1699,6.1699,6.1699,6.1699,6.1699,6.1699,6.1699,6.1699,6.1699,6.1699,6.1699,6.1699,6.1699,6.1699,6.1699,6.1699,6.1699,6.1699,6.1699,6.1699,6.1699,6.1699,6.1699,6.1634,6.1544,6.1448,6.1428,6.1428,6.1428,6.1383,6.1349,6.1349,6.1323,6.152,6.242,6.3295,6.4164,6.4963,6.5829,6.6446,6.6419,6.6283,6.6198,6.6198,6.6068,6.5967,6.5967,6.5921,6.5897,6.5897,6.5897,6.5897,6.5897,6.5897,6.5897,6.5897,6.5897,6.5897,6.5897,6.5897,6.5897,6.5897,6.5897,6.5897,6.5897,6.5897,6.5897,6.5897,6.5897,6.5897,6.5897,6.6474,6.6859,6.7128,6.8359,6.9206,6.9725,7.0302,7.0687,7.0898,7.0898,7.0898,7.0898,7.0898,7.0898,7.0898,7.0898,7.0898,7.0898,5.7592,5.8182,5.8919,6.034,6.0887,6.1165,6.1271,6.1358,6.1369,6.1369,6.1501,6.158,6.158,6.1656,6.1699,6.1699,6.1699,6.1699,6.1699,6.1699,6.1699,6.1699,6.1699,6.1699,6.1699,6.1699,6.1699,6.1699,6.1699,6.1699,6.1699,6.1699,6.1699,6.1699,6.1699,6.1699,6.1699,6.1699,6.1699,6.1699,6.1699,6.1699,6.1699,6.1635,6.1612,6.161,6.1553,6.1544,6.1544,6.1544,6.1495,6.1415,6.1337,6.1303,6.1303,6.1303,6.124,6.1186,6.1186,6.1147,6.1375,6.253,6.3316,6.4092,6.5241,6.5906,6.6272,6.6209,6.6109,6.6024,6.6024,6.5955,6.5897,6.5897,6.5897,6.5897,6.5897,6.5897,6.5897,6.5897,6.5897,6.5897,6.5897,6.5897,6.5897,6.5897,6.5897,6.5897,6.5897,6.5897,6.5897,6.5897,6.5897,6.6051,6.6359,6.6359,6.6359,6.6378,6.7225,6.7782,6.8148,6.9225,6.9879,7.0206,7.0687,7.0898,7.0898,7.0898,7.0898,7.0898,7.0898,7.0898,7.0898,7.0898,7.0898,7.0898,5.7052,5.8013,5.8979,5.9855,6.0736,6.1312,6.1323,6.1444,6.1512,6.1512,6.1613,6.1699,6.1699,6.1699,6.1699,6.1699,6.1699,6.1699,6.1699,6.1699,6.1699,6.1699,6.1699,6.1699,6.1699,6.1699,6.1699,6.1699,6.1699,6.1699,6.1699,6.1699,6.1699,6.1699,6.1699,6.1699,6.1699,6.1699,6.1679,6.1679,6.1678,6.1658,6.1656,6.154,6.1472,6.1462,6.1334,6.1303,6.1303,6.1291,6.1265,6.1265,6.1266,6.1259,6.1259,6.1259,6.1128,6.099,6.099,6.0894,6.1204,6.2878,6.3535,6.4153,6.5741,6.607,6.6049,6.5921,6.5897,6.5897,6.5897,6.5897,6.5897,6.5897,6.5897,6.5897,6.5897,6.5897,6.5897,6.5897,6.5897,6.5897,6.5897,6.5897,6.5897,6.5897,6.5897,6.5897,6.5897,6.5897,6.5897,6.5897,6.5974,6.6359,6.709,6.7244,6.7282,6.7225,6.8109,6.8936,6.9706,6.9763,7.0206,7.0898,7.0898,7.0898,7.0898,7.0898,7.0898,7.0898,7.0898,7.0898,7.0898,7.0898,7.0898,7.0898,5.7204,5.8076,5.9011,5.9997,6.0889,6.1498,6.1605,6.1635,6.1657,6.1657,6.1679,6.1699,6.1699,6.1699,6.1699,6.1699,6.1699,6.1699,6.1699,6.1699,6.1699,6.1699,6.1699,6.1699,6.1699,6.1699,6.1699,6.1699,6.1699,6.1699,6.1699,6.1699,6.1699,6.1699,6.1699,6.1699,6.1699,6.1582,6.1547,6.1522,6.1432,6.1398,6.1373,6.1344,6.1334,6.1328,6.132,6.1303,6.1285,6.1128,6.1073,6.104,6.0944,6.0911,6.0911,6.0911,6.0869,6.0845,6.0845,6.0819,6.1204,6.2878,6.3357,6.3841,6.5558,6.595,6.5946,6.5923,6.5897,6.5897,6.5897,6.5897,6.5897,6.5897,6.5897,6.5897,6.5897,6.5897,6.5897,6.5897,6.5897,6.5897,6.5897,6.5897,6.5897,6.5897,6.5897,6.5897,6.5897,6.5897,6.5897,6.5897,6.6513,6.6917,6.709,6.8456,6.8783,6.8129,6.9013,6.9513,6.9725,7.036,7.0744,7.0898,7.0898,7.0898,7.0898,7.0898,7.0898,7.0898,7.0898,7.0898,7.0898,7.0898,7.0898,7.0898,5.6842,5.8015,5.9092,5.9628,6.0765,6.1612,6.1699,6.1699,6.1699,6.1699,6.1699,6.1699,6.1699,6.1699,6.1699,6.1699,6.1699,6.1699,6.1699,6.1699,6.1699,6.1699,6.1699,6.1699,6.1699,6.1634,6.1634,6.1699,6.1634,6.1634,6.1699,6.1634,6.1635,6.1699,6.1634,6.1608,6.1605,6.1458,6.1396,6.1407,6.1337,6.1303,6.1297,6.12,6.1165,6.115,6.1087,6.1072,6.1055,6.0945,6.0895,6.0894,6.0819,6.08,6.08,6.08,6.08,6.08,6.08,6.08,6.1204,6.2878,6.3288,6.3762,6.5493,6.5897,6.5897,6.5897,6.5897,6.5897,6.5897,6.5897,6.5897,6.5897,6.5897,6.5897,6.5897,6.5897,6.5897,6.5897,6.5897,6.5897,6.5897,6.5897,6.5897,6.5897,6.5897,6.5897,6.5897,6.5897,6.607,6.6455,6.6878,6.7494,6.8321,6.9244,6.9667,6.961,7.0052,7.0264,7.0283,7.0706,7.0898,7.0898,7.0898,7.0898,7.0898,7.0898,7.0898,7.0898,7.0898,7.0898,7.0898,7.0898,7.0898,7.0898,5.6426,5.7922,5.9199,5.9199,6.0586,6.1699,6.1699,6.1699,6.1699,6.1699,6.1699,6.1699,6.1699,6.1699,6.1699,6.1699,6.1699,6.1699,6.1699,6.1699,6.1699,6.1699,6.1679,6.1678,6.1678,6.1522,6.152,6.1678,6.1551,6.1547,6.1633,6.1544,6.1547,6.1632,6.1512,6.1462,6.1455,6.1312,6.1246,6.124,6.1214,6.122,6.1206,6.1034,6.0982,6.0954,6.0834,6.08,6.08,6.08,6.08,6.08,6.08,6.08,6.08,6.08,6.08,6.08,6.08,6.08,6.1204,6.2878,6.3288,6.3762,6.5493,6.5897,6.5897,6.5897,6.5897,6.5897,6.5897,6.5897,6.5897,6.5897,6.5897,6.5897,6.5897,6.5897,6.5897,6.5897,6.5897,6.5897,6.5897,6.5897,6.5897,6.5897,6.5897,6.5897,6.5897,6.6032,6.6397,6.7071,6.7378,6.8244,6.9687,6.984,7.0244,7.0898,7.0898,7.0898,7.0898,7.0898,7.0898,7.0898,7.0898,7.0898,7.0898,7.0898,7.0898,7.0898,7.0898,7.0898,7.0898,7.0898,7.0898,7.0898,5.6562,5.7988,5.9199,5.9199,6.0586,6.1699,6.1699,6.1699,6.1699,6.1699,6.1699,6.1699,6.1699,6.1699,6.1699,6.1699,6.1699,6.1699,6.1699,6.1699,6.1699,6.1699,6.1584,6.1537,6.1537,6.1407,6.1383,6.1537,6.1509,6.1451,6.1369,6.1455,6.1448,6.1344,6.1348,6.1337,6.1306,6.1116,6.1048,6.1031,6.0904,6.0867,6.0867,6.0842,6.0831,6.0819,6.0823,6.08,6.08,6.08,6.08,6.08,6.08,6.08,6.08,6.08,6.08,6.08,6.08,6.08,6.1204,6.2878,6.3288,6.3762,6.5493,6.5897,6.5897,6.5897,6.5897,6.5897,6.5897,6.5897,6.5897,6.5897,6.5897,6.5897,6.5897,6.5897,6.5897,6.5897,6.5897,6.5897,6.5897,6.5897,6.5897,6.5897,6.5897,6.5897,6.5897,6.6551,6.6994,6.709,6.8552,6.9456,6.9706,7.0398,7.0783,7.0898,7.0898,7.0898,7.0898,7.0898,7.0898,7.0898,7.0898,7.0898,7.0898,7.0898,7.0898,7.0898,7.0898,7.0898,7.0898,7.0898,7.0898,7.0898,5.6601,5.8008,5.9199,5.9199,6.0586,6.1699,6.1699,6.1699,6.1699,6.1699,6.1699,6.1699,6.1699,6.1699,6.1699,6.1699,6.1699,6.1699,6.1699,6.1633,6.1584,6.1584,6.1458,6.1398,6.1398,6.1214,6.1167,6.122,6.122,6.1252,6.1303,6.1252,6.1252,6.1303,6.1186,6.1123,6.1128,6.0954,6.0883,6.0873,6.0819,6.08,6.08,6.08,6.08,6.08,6.08,6.08,6.08,6.08,6.08,6.08,6.08,6.08,6.08,6.08,6.08,6.08,6.08,6.08,6.1204,6.2878,6.3288,6.3762,6.5493,6.5897,6.5897,6.5897,6.5897,6.5897,6.5897,6.5897,6.5897,6.5897,6.5897,6.5897,6.5897,6.5897,6.5897,6.5897,6.5897,6.5897,6.5897,6.5897,6.5897,6.5897,6.5897,6.609,6.6551,6.6898,6.7552,6.8513,6.9302,6.9917,7.0379,7.0725,7.0898,7.0898,7.0898,7.0898,7.0898,7.0898,7.0898,7.0898,7.0898,7.0898,7.0898,7.0898,7.0898,7.0898,7.0898,7.0898,7.0898,7.0898,7.0898,7.0898]}]]